     2.10           OBSERVATION DATA    G (GPS)             RINEX VERSION / TYPE
teqc 2000Jul20 Karen Wendt 20040727 23:23:19UTC             PGM / RUN BY / DATE
Linux 2.0.36|Pentium II|gcc -static|Linux|486/DX+           COMMENT
teqc 2000Jul20 Karen Wendt 20040727 23:23:19UTC             COMMENT
BIT 2 OF LLI FLAGS DATA COLLECTED UNDER A/S CONDITION       COMMENT
lass Mt_Lassic_USCGS_unstamped                              MARKER NAME
CHS USGS                                                    OBSERVER / AGENCY
ZE1200331018 ASHTECH UZ-12 ZE00                             REC # / TYPE / VERS
CR619992801 ASH701945B_M NONE                               ANT # / TYPE
 -2691866.0000 -4058578.0000  4107462.0000                  APPROX POSITION XYZ
        0.1600        0.0000        0.0000                  ANTENNA: DELTA H/E/N
     1     1                                                WAVELENGTH FACT L1/2
     5    C1    L1    L2    P1    P2                        # / TYPES OF OBSERV
    30.0000                                                 INTERVAL
                                                            COMMENT
National Earthquake Hazard Reduction Program                COMMENT
Crustal Strain Project                                      COMMENT
345 Middlefield Road, MS/977                                COMMENT
U.S. Geological Survey, Menlo Park, California 94025        COMMENT
Contact: kwendt@usgs.gov (Ph: 650-329-4866)                 COMMENT
Antenna height is vertical to base of antenna               COMMENT
                                                            COMMENT
SNR is mapped to RINEX snr flag value [1-9]                 COMMENT
L1: 1 -> 1; 90 -> 5; 210 -> 9                               COMMENT
L2: 1 -> 1; 150 -> 5; 250 -> 9                              COMMENT
  2004     7    18     0     0    0.0000000     GPS         TIME OF FIRST OBS
                                                            END OF HEADER
 04  7 18  0  0  0.0000000  0  8G 1G13G27G20G16G 3G23G 8
  21421741.883   -20781540.18243 -16138253.55042  21421743.870    21421742.318
  20570032.261   -28432630.27044 -21872673.55242  20570034.811    20570031.364
  22115711.945   -18385689.38343 -14258018.81942  22115714.017    22115712.636
  23065170.813   -13388820.05143 -10204708.20942  23065172.172    23065171.155
  22616921.390   -15915413.98943 -12308827.50542  22616923.127    22616920.565
  24052176.001    -8594087.04943  -6676619.48942  24052178.099    24052178.253
  21013847.876   -24752460.82443 -19278579.99942  21013850.002    21013844.849
  24234060.793    -9823906.73843  -7593688.91042  24234061.533    24234062.828
 04  7 18  0  0 30.0000000  0  8G 1G13G27G20G16G 3G23G 8
  21431561.194   -20729939.50743 -16098045.25942  21431563.133    21431561.639
  20563243.993   -28468302.90844 -21900470.40742  20563246.544    20563243.092
  22105707.903   -18438260.87643 -14298983.59042  22105709.961    22105708.579
  23085702.445   -13280925.89843 -10120634.93642  23085703.841    23085702.838
  22630608.425   -15843488.44643 -12252781.65542  22630610.171    22630607.609
  24039778.766    -8659234.45343  -6727383.64142  24039780.841    24039781.026
  21023329.105   -24702636.55743 -19239755.91542  21023331.239    21023326.127
  24217118.539    -9912938.73843  -7663064.39242  24217119.276    24217120.559
 04  7 18  0  1  0.0000000  0  8G 1G13G27G20G16G 3G23G 8
  21441436.877   -20678042.44543 -16057606.00942  21441438.843    21441437.344
  20556514.600   -28503666.10044 -21928026.13242  20556517.127    20556513.674
  22095741.147   -18490636.38443 -14339795.64242  22095743.180    22095741.822
  23106270.413   -13172840.90143 -10036412.95142  23106271.810    23106270.819
  22644373.709   -15771151.05543 -12196414.87942  22644375.532    22644373.025
  24027433.380    -8724109.62643  -6777935.65942  24027435.505    24027435.612
  21032875.431   -24652470.36743 -19200665.39742  21032877.535    21032872.472
  24200200.069   -10001844.97443  -7732341.86842  24200200.863    24200202.084
 04  7 18  0  1 30.0000000  0  8G 1G13G27G20G16G 3G23G 8
  21451368.244   -20625852.74143 -16016938.72842  21451370.221    21451368.757
  20549843.574   -28538722.46344 -21955342.77142  20549846.109    20549842.662
  22085810.891   -18542820.06943 -14380458.22442  22085812.925    22085811.601
  23126873.347   -13064571.64743  -9952047.37942  23126874.780    23126873.846
  22658216.223   -15698408.27443 -12139732.22542  22658218.056    22658215.509
  24015139.505    -8788713.60243  -6828276.36242  24015141.690    24015141.852
  21042486.091   -24601966.12543 -19161311.45942  21042488.211    21042483.101
  24183304.974   -10090628.93643  -7801524.06342  24183305.729    24183306.886
 04  7 18  0  2  0.0000000  0  8G 1G13G27G20G16G 3G23G 8
  21461356.885   -20573362.35043 -15976037.14142  21461358.854    21461357.398
  20543232.850   -28573462.09244 -21982412.59942  20543235.381    20543231.941
  22075918.738   -18594803.79043 -14420964.99542  22075920.733    22075919.446
  23147512.520   -12956112.52243  -9867533.86642  23147513.933    23147513.023
  22672137.026   -15625254.02143 -12082728.93242  22672138.906    22672136.359
  24002899.502    -8853035.05543  -6878396.91142  24002901.620    24002901.867
  21052162.607   -24551115.72743 -19121687.79242  21052164.772    21052159.650
  24166434.805   -10179281.78843  -7870604.08242  24166435.590    24166436.681
 04  7 18  0  2 30.0000000  0  8G 1G13G27G20G16G 3G23G 8
  21471401.477   -20520577.79343 -15934906.34242  21471403.431    21471401.980
  20536681.346   -28607890.52144 -22009239.93642  20536683.898    20536680.426
  22066063.257   -18646594.13943 -14461321.08242  22066065.316    22066064.080
  23168185.983   -12847473.07443  -9782879.83942  23168187.393    23168186.496
  22686134.402   -15551697.66843 -12025412.32442  22686136.312    22686133.731
  23990712.695    -8917077.84543  -6928300.32442  23990714.720    23990714.858
  21061903.758   -24499925.90943 -19081799.63842  21061905.882    21061900.765
  24149588.396   -10267809.39943  -7939586.51942  24149589.341    24149590.284
 04  7 18  0  3  0.0000000  0  8G 1G13G27G20G16G 3G23G 8
  21481502.518   -20467496.82843 -15893544.57642  21481504.436    21481502.959
  20530189.770   -28642003.87744 -22035821.76442  20530192.326    20530188.908
  22056245.005   -18698189.29843 -14501525.07742  22056247.063    22056245.864
  23188893.733   -12738653.66343  -9698085.57842  23188895.134    23188894.255
  22700208.226   -15477739.36643 -11967782.50842  22700210.187    22700207.504
  23978579.661    -8980836.81543  -6977982.58542  23978581.730    23978581.904
  21071709.866   -24448394.47043 -19041645.29042  21071712.001    21071706.869
  24132766.327   -10356209.52243  -8008469.63142  24132767.278    24132768.036
 04  7 18  0  3 30.0000000  0  8G 1G13G27G20G16G 3G23G 8
  21491660.194   -20414117.90843 -15851950.63942  21491662.127    21491660.635
  20523758.760   -28675799.05644 -22062155.66042  20523761.321    20523757.878
  22046464.252   -18749587.69443 -14541575.75342  22046466.297    22046465.013
  23209635.553   -12629655.29243  -9613151.86942  23209636.924    23209636.064
  22714358.353   -15403379.85743 -11909840.05742  22714360.338    22714357.667
  23966501.522    -9044307.45743  -7027440.16342  23966503.618    23966503.589
  21081581.212   -24396520.19143 -19001223.78942  21081583.345    21081578.239
  24115968.963   -10444480.01743  -8077251.73342  24115969.907    24115970.458
 04  7 18  0  4  0.0000000  0  8G 1G13G27G20G16G 3G23G 8
  21501873.991   -20360444.00243 -15810126.84042  21501875.906    21501874.447
  20517387.926   -28709277.91344 -22088243.07342  20517390.497    20517387.015
  22036720.295   -18800792.56743 -14581475.63042  22036722.314    22036720.991
  23230410.179   -12520484.17343  -9528083.55142  23230411.539    23230410.699
  22728583.795   -15328624.70043 -11851589.31042  22728585.754    22728583.090
  23954478.288    -9107489.85843  -7076673.14342  23954480.470    23954480.347
  21091517.216   -24344306.27143 -18960537.63642  21091519.338    21091514.206
  24099195.871   -10532623.12743  -8145934.57442  24099196.843    24099197.261
 04  7 18  0  4 30.0000000  0  8G 1G13G27G20G16G 3G23G 8
  21512144.084   -20306474.37743 -15768072.61342  21512145.996    21512144.544
  20511077.783   -28742437.98044 -22114082.07742  20511080.333    20511076.838
  22027013.258   -18851803.17943 -14621224.13442  22027015.286    22027013.992
  23251217.347   -12411141.90043  -9442881.87642  23251218.698    23251217.888
  22742884.252   -15253475.55543 -11793031.56042  22742886.152    22742883.513
  23942510.595    -9170380.32343  -7125678.64842  23942512.699    23942512.630
  21101518.014   -24291751.79943 -18919586.12542  21101520.134    21101515.040
  24082447.195   -10620637.42743  -8214517.01342  24082448.140    24082448.690
 04  7 18  0  5  0.0000000  0  8G 1G13G27G20G16G 3G23G 8
  21522470.545   -20252208.71743 -15725787.70342  21522472.441    21522470.993
  20504828.567   -28775277.76144 -22139671.51142  20504831.127    20504827.655
  22017343.263   -18902619.47043 -14660821.22342  22017345.249    22017343.887
  23272056.641   -12301630.97743  -9357548.79142  23272057.959    23272057.181
  22757259.252   -15177934.39943 -11734168.35042  22757261.167    22757258.523
  23930599.072    -9232975.63943  -7174454.15742  23930601.132    23930600.905
  21111583.586   -24238856.88743 -18878369.32642  21111585.724    21111580.658
  24065723.331   -10708522.08443  -8282998.44042  24065724.224    24065724.816
 04  7 18  0  5 30.0000000  0  8G 1G13G27G20G16G 3G23G 8
  21532853.688   -20197645.03443 -15683270.57042  21532855.587    21532854.118
  20498640.998   -28807793.50144 -22165008.44442  20498643.554    20498640.110
  22007710.570   -18953239.48543 -14700265.36542  22007712.583    22007711.158
  23292927.898   -12191952.06943  -9272084.79542  23292929.270    23292928.491
  22771708.725   -15102001.96943 -11675000.25442  22771710.603    22771707.972
  23918744.608    -9295270.96743  -7222995.92342  23918746.658    23918746.496
  21121714.285   -24185619.80343 -18836885.90442  21121716.437    21121711.325
  24049024.515   -10796274.90743  -8351377.17642  24049025.495    24049025.841
 04  7 18  0  6  0.0000000  0  8G 1G13G27G20G16G 3G23G 8
  21543293.521   -20142783.53243 -15640521.37142  21543295.438    21543293.936
  20492515.313   -28839984.23544 -22190092.12542  20492517.858    20492514.392
  21998115.130   -19003663.62243 -14739556.87442  21998117.134    21998115.739
  23313830.493   -12082108.36143  -9186492.38742  23313831.907    23313831.156
  22786232.145   -15025680.85943 -11615529.28442  22786234.034    22786231.417
  23906947.663    -9357263.46043  -7271301.70542  23906949.824    23906949.741
  21131910.048   -24132040.91343 -18795136.14242  21131912.214    21131907.055
  24032350.900   -10883895.37443  -8419652.75242  24032351.851    24032352.125
 04  7 18  0  6 30.0000000  0  8G 1G13G27G20G16G 3G23G 8
  21553788.861   -20087630.22643 -15597544.79442  21553790.803    21553789.294
  20486450.586   -28871854.46644 -22214926.06542  20486453.149    20486449.666
  21988555.877   -19053898.02943 -14778700.54442  21988557.842    21988556.420
  23334762.897   -11972108.30943  -9100778.15742  23334764.302    23334763.581
  22800828.014   -14948979.33843 -11555761.89042  22800829.830    22800827.207
  23895207.857    -9418956.31343  -7319373.99542  23895209.974    23895210.034
  21142169.644   -24078126.41143 -18753124.86242  21142171.828    21142166.642
  24015701.287   -10971389.11443  -8487829.59442  24015702.245    24015702.522
 04  7 18  0  7  0.0000000  0  8G 1G13G27G20G16G 3G23G 8
  21564341.235   -20032177.03343 -15554334.54242  21564343.178    21564341.759
  20480448.675   -28903394.72044 -22239502.87742  20480451.225    20480447.779
  21979034.120   -19103934.92843 -14817690.30542  21979036.131    21979034.663
  23355725.999   -11861946.67243  -9014938.01842  23355727.419    23355726.750
  22815497.200   -14871892.02043 -11495693.88542  22815499.034    22815496.436
  23883527.191    -9480338.41243  -7367204.17042  23883529.228    23883529.319
  21152494.626   -24023868.44143 -18710845.94342  21152496.796    21152491.639
  23999077.304   -11058747.65143  -8555901.06842  23999078.248    23999078.699
 04  7 18  0  7 30.0000000  0  8G 1G13G27G20G16G 3G23G 8
  21574950.033   -19976427.69143 -15510893.52342  21574951.944    21574950.557
  20474509.157   -28934607.14544 -22263824.24142  20474511.705    20474508.237
  21969549.270   -19153777.86343 -14856528.93542  21969551.322    21969549.829
  23376718.706   -11751629.79343  -8928976.93542  23376720.040    23376719.418
  22830238.686   -14794424.89943 -11435329.92942  22830240.520    22830237.937
  23871905.481    -9541410.53543  -7414792.77842  23871907.552    23871907.716
  21162884.224   -23969270.75843 -18668302.32242  21162886.382    21162881.261
  23982478.503   -11145973.64843  -8623869.26342  23982479.454    23982480.056
 04  7 18  0  8  0.0000000  0  8G 1G13G27G20G16G 3G23G 8
  21585614.773   -19920384.34943 -15467223.41142  21585616.665    21585615.301
  20468631.916   -28965492.22144 -22287890.53042  20468634.473    20468630.972
  21960100.902   -19203429.13443 -14895218.21642  21960102.959    21960101.490
  23397740.018   -11641162.44243  -8842898.57742  23397741.414    23397740.766
  22845051.609   -14716582.47343 -11374673.52142  22845053.459    22845050.926
  23860342.863    -9602171.88643  -7462139.23042  23860344.935    23860345.171
  21173338.061   -23914335.53643 -18625495.68342  21173340.228    21173335.088
  23965904.858   -11233068.86143  -8691735.56642  23965905.695    23965906.264
 04  7 18  0  8 30.0000000  0  8G 1G13G27G20G16G 3G23G 8
  21596335.910   -19864044.43943 -15423322.20242  21596337.826    21596336.443
  20462817.719   -28996046.01444 -22311698.67442  20462820.294    20462816.756
  21950689.431   -19252886.48043 -14933756.37842  21950691.493    21950690.054
  23418789.880   -11530544.82543  -8756703.13542  23418791.311    23418790.670
  22859936.018   -14638364.74843 -11313724.67542  22859937.800    22859935.304
  23848840.395    -9662617.32243  -7509239.51442  23848842.411    23848842.814
  21183856.553   -23859060.64643 -18582424.35542  21183858.705    21183853.588
  23949356.628   -11320030.43943  -8759497.73042  23949357.433    23949357.882
 04  7 18  0  9  0.0000000  0  8G 1G13G27G20G16G 3G23G 8
  21607113.602   -19807407.18643 -15379189.30442  21607115.522    21607114.185
  20457066.962   -29026266.57044 -22335247.15342  20457069.515    20457065.951
  21941315.034   -19302149.08043 -14972142.80042  21941317.046    21941315.698
  23439868.049   -11419778.95743  -8670392.17742  23439869.415    23439868.881
  22874891.468   -14559773.55643 -11252484.81142  22874893.257    22874890.708
  23837398.849    -9722743.05743  -7556090.67642  23837400.917    23837401.209
  21194439.757   -23803445.66343 -18539088.02742  21194441.894    21194436.798
  23932833.927   -11406857.05343  -8827154.73042  23932834.722    23932835.159
 04  7 18  0  9 30.0000000  0  8G 1G13G27G20G16G 3G23G 8
  21617947.436   -19750475.12143 -15334826.68842  21617949.323    21617947.987
  20451379.415   -29056154.93044 -22358536.78442  20451381.958    20451378.398
  21931977.200   -19351219.83443 -15010379.73842  21931979.146    21931977.824
  23460973.447   -11308870.14043  -8583969.84742  23460974.705    23460974.236
  22889917.075   -14480813.95543 -11190957.88742  22889918.811    22889916.251
  23826018.144    -9782548.76043  -7602692.49242  23826020.338    23826020.453
  21205087.175   -23747493.15143 -18495488.69742  21205089.307    21205084.249
  23916336.594   -11493550.62043  -8894708.06242  23916337.411    23916337.713
 04  7 18  0 10  0.0000000  0  8G 1G13G27G20G16G 3G23G 8
  21628837.736   -19693246.43443 -15290232.94042  21628839.623    21628838.225
  20445755.688   -29085707.68144 -22381564.90342  20445758.257    20445754.709
  21922676.172   -19400096.96443 -15048465.79942  21922678.123    21922676.797
  23482105.859   -11197819.05243  -8497436.65442  23482107.133    23482106.652
  22905012.614   -14401486.45843 -11129144.29342  22905014.298    22905011.820
  23814699.353    -9842029.56043  -7649041.15942  23814701.360    23814701.686
  21215799.124   -23691201.72143 -18451625.27142  21215801.266    21215796.188
  23899864.939   -11580108.61443  -8962155.76242  23899865.920    23899866.063
 04  7 18  0 10 30.0000000  0  8G 1G13G27G20G16G 3G23G 8
  21639784.167   -19635722.89143 -15245409.42242  21639786.047    21639784.584
  20440195.837   -29114924.95744 -22404331.60442  20440198.384    20440194.838
  21913411.689   -19448782.15143 -15086402.28642  21913413.654    21913412.308
  23503264.468   -11086630.14143  -8410796.03542  23503265.823    23503265.216
  22920177.316   -14321795.03743 -11067047.12142  22920179.009    22920176.624
  23803442.459    -9901184.37443  -7695135.76542  23803444.546    23803444.780
  21226575.167   -23634573.09543 -18407499.09042  21226577.303    21226572.273
  23883419.126   -11666531.86743  -9029498.45242  23883420.030    23883420.302
 04  7 18  0 11  0.0000000  0  8G 1G13G27G20G16G 3G23G 8
  21650786.773   -19577903.64243 -15200355.49142  21650788.698    21650787.271
  20434700.246   -29143804.49944 -22426835.14142  20434702.810    20434699.256
  21904183.872   -19497274.62343 -15124188.60142  21904185.854    21904184.478
  23524448.958   -10975305.23743  -8324049.45342  23524450.309    23524449.705
  22935411.058   -14241741.45843 -11004667.73842  22935412.749    22935410.402
  23792248.629    -9960009.22543  -7740973.26642  23792250.566    23792250.730
  21237415.537   -23577606.59943 -18363109.63442  21237417.660    21237412.637
  23866999.013   -11752819.75443  -9096735.66242  23866999.930    23867000.229
 04  7 18  0 11 30.0000000  0  8G 1G13G27G20G16G 3G23G 8
  21661845.914   -19519787.44243 -15155070.16142  21661847.822    21661846.457
  20429269.475   -29172343.39144 -22449073.23242  20429272.048    20429268.491
  21894992.950   -19545573.18143 -15161823.81042  21894994.943    21894993.553
  23545659.155   -10863845.39543  -8237197.74342  23545660.495    23545659.885
  22950713.572   -14161326.78843 -10942006.99242  22950715.209    22950712.898
  23781118.096   -10018500.00743  -7786550.44242  23781120.183    23781120.264
  21248320.456   -23520300.89143 -18318455.85542  21248322.580    21248317.569
  23850605.109   -11838969.93243  -9163865.57442  23850605.906    23850606.399
 04  7 18  0 12  0.0000000  0  8G 1G13G27G20G16G 3G23G 8
  21672961.112   -19461376.66943 -15109555.29542  21672963.021    21672961.685
  20423903.338   -29200542.55744 -22471046.60242  20423905.914    20423902.347
  21885838.496   -19593680.24443 -15199309.81742  21885840.460    21885839.068
  23566894.017   -10752255.78543  -8150244.90942  23566895.422    23566894.802
  22966083.807   -14080556.00743 -10879068.74342  22966085.516    22966083.110
  23770051.386   -10076656.42143  -7831867.08742  23770053.413    23770053.354
  21259289.417   -23462658.77543 -18273539.93842  21259291.528    21259286.528
  23834237.093   -11924984.48043  -9230889.79742  23834237.858    23834238.436
 04  7 18  0 12 30.0000000  0  8G 1G13G27G20G16G 3G23G 8
  21684132.719   -19402669.83843 -15063809.73742  21684134.590    21684133.245
  20418602.442   -29228399.00144 -22492752.91942  20418605.015    20418601.425
  21876720.691   -19641594.55643 -15236645.62142  21876722.643    21876721.283
  23588153.319   -10640537.59343  -8063191.86642  23588154.662    23588154.184
  22981521.624   -13999429.82443 -10815853.56342  22981523.404    22981520.968
  23759049.065   -10134474.05643  -7876919.72442  23759051.080    23759050.921
  21270322.562   -23404679.13143 -18228361.02342  21270324.683    21270319.699
  23817895.250   -12010861.46743  -9297806.82042  23817896.047    23817896.446
 04  7 18  0 13  0.0000000  0  8G 1G13G27G20G16G 3G23G 8
  21695360.336   -19343668.35643 -15017834.58442  21695362.232    21695360.887
  20413366.762   -29255912.73144 -22514192.18742  20413369.315    20413365.705
  21867639.268   -19689317.62243 -15273832.40942  21867641.245    21867639.855
  23609436.269   -10528695.02743  -7976041.93042  23609437.653    23609437.293
  22997026.211   -13917952.38043 -10752364.67542  22997028.026    22997025.661
  23748111.363   -10191951.43843  -7921707.23642  23748113.383    23748113.395
  21281419.686   -23346363.47243 -18182920.26742  21281421.802    21281416.815
  23801579.386   -12096601.28243  -9364616.97042  23801580.273    23801580.620
 04  7 18  0 13 30.0000000  0  8G 1G13G27G20G16G 3G23G 8
  21706644.391   -19284370.30343 -14971628.33442  21706646.313    21706644.987
  20408197.003   -29283080.03244 -22535361.51242  20408199.543    20408195.915
  21858594.683   -19736847.32943 -15310868.52042  21858596.656    21858595.248
  23630742.819   -10416728.77843  -7888795.59542  23630744.200    23630743.961
  23012597.710   -13836123.83543 -10688602.21842  23012599.442    23012597.147
  23737239.609   -10249083.35943  -7966225.58242  23737241.591    23737241.500
  21292581.122   -23287709.86143 -18137216.18242  21292583.239    21292578.226
  23785290.037   -12182201.70143  -9431318.49742  23785290.909    23785291.251
 04  7 18  0 14  0.0000000  0  8G 1G13G27G20G16G 3G23G 8
  21717984.423   -19224778.24643 -14925192.99442  21717986.308    21717985.035
  20403092.887   -29309902.20944 -22556261.90342  20403095.438    20403091.814
  21849586.338   -19784186.33543 -15347756.03542  21849588.352    21849586.899
  23652072.008   -10304643.59643  -7801456.61242  23652073.381    23652073.217
  23028235.078   -13753949.20243 -10624570.06342  23028236.808    23028234.525
  23726433.524   -10305869.58043  -8010474.54642  23726435.491    23726435.350
  21303806.306   -23228721.26643 -18091251.06742  21303808.406    21303803.396
  23769027.030   -12267664.49043  -9497912.80642  23769027.810    23769028.062
 04  7 18  0 14 30.0000000  0  8G 1G13G27G20G16G 3G23G 8
  21729380.492   -19164891.36843 -14878527.92842  21729382.384    21729381.124
  20398054.906   -29336376.87244 -22576891.50442  20398057.467    20398053.839
  21840614.387   -19831334.04743 -15384494.49542  21840616.422    21840614.955
  23673423.497   -10192441.48943  -7714026.51242  23673424.841    23673424.664
  23043937.916   -13671430.34643 -10560269.68242  23043939.703    23043937.413
  23715693.779   -10362306.84743  -8054451.58142  23715695.795    23715695.701
  21315095.348   -23169396.95743 -18045024.35542  21315097.451    21315092.459
  23752790.349   -12352988.45043  -9564398.93042  23752791.100    23752791.369
 04  7 18  0 15  0.0000000  0  8G 1G13G27G20G16G 3G23G 8
  21740832.911   -19104708.79743 -14831632.44242  21740834.782    21740833.508
  20393083.594   -29362501.33844 -22597248.23142  20393086.165    20393082.531
  21831679.017   -19878289.60943 -15421083.22442  21831681.022    21831679.565
  23694796.874   -10080124.18443  -7626506.64542  23694798.197    23694797.983
  23059706.126   -13588568.57843 -10495702.10242  23059707.857    23059705.506
  23705021.169   -10418391.03143  -8098153.51342  23705023.392    23705023.108
  21326448.448   -23109736.35543 -17998535.59942  21326450.544    21326445.510
  23736580.402   -12438172.00143  -9630775.63842  23736581.163    23736581.514
 04  7 18  0 15 30.0000000  0  8G 1G13G27G20G16G 3G23G 8
  21752341.157   -19044232.74143 -14784508.26742  21752343.033    21752341.673
  20388178.759   -29388276.45544 -22617332.73842  20388181.317    20388177.690
  21822779.850   -19925055.17943 -15457523.91042  21822781.825    21822780.341
  23716191.279    -9967696.39243  -7538900.69142  23716192.570    23716192.363
  23075538.552   -13505368.74043 -10430871.09442  23075540.328    23075537.920
  23694415.981   -10474121.69243  -8141579.96642  23694418.093    23694417.797
  21337865.072   -23049741.91243 -17951786.70842  21337867.143    21337862.068
  23720396.915   -12523216.37143  -9697043.90042  23720397.706    23720398.017
 04  7 18  0 16  0.0000000  0  8G 1G13G27G20G16G 3G23G 8
  21763905.242   -18983463.09943 -14737155.32942  21763907.150    21763905.764
  20383340.720   -29413700.45244 -22637143.64242  20383343.288    20383339.687
  21813916.876   -19971630.54343 -15493816.37942  21813918.859    21813917.326
  23737606.167    -9855160.75343  -7451210.69542  23737607.412    23737607.274
  23091434.916   -13421832.87543 -10365778.23842  23091436.697    23091434.273
  23683878.584   -10529495.71343  -8184728.49642  23683880.704    23683880.464
  21349345.134   -22989413.66043 -17904777.70042  21349347.231    21349342.157
  23704239.959   -12608121.41943  -9763203.59042  23704240.828    23704241.016
 04  7 18  0 16 30.0000000  0  8G 1G13G27G20G16G 3G23G 8
  21775525.937   -18922396.00743 -14689570.61142  21775527.877    21775526.464
  20378570.558   -29438767.93844 -22656676.74542  20378573.093    20378569.546
  21805090.729   -20018012.02443 -15529957.77242  21805092.767    21805091.154
  23759041.887    -9742515.69343  -7363435.44942  23759043.122    23759042.969
  23107395.482   -13337959.59343 -10300422.47042  23107397.263    23107394.849
  23673410.436   -10584506.30843  -8227593.85942  23673412.514    23673412.293
  21360889.446   -22928747.89443 -17857505.70342  21360891.503    21360886.524
  23688110.415   -12692882.37943  -9829251.00542  23688111.283    23688111.446
 04  7 18  0 17  0.0000000  0  8G 1G13G27G20G16G 3G23G 8
  21787202.085   -18861037.62043 -14641758.91642  21787203.986    21787202.619
  20373867.315   -29463483.71044 -22675935.78542  20373869.860    20373866.334
  21796300.332   -20064205.76743 -15565952.87642  21796302.371    21796300.736
  23780496.724    -9629770.11243  -7275581.85742  23780497.956    23780497.927
  23123418.664   -13253757.42243 -10234810.42042  23123420.442    23123418.043
  23663010.796   -10639156.57543  -8270178.44442  23663012.867    23663012.663
  21372496.773   -22867751.09343 -17809975.75242  21372498.811    21372493.884
  23672007.249   -12777505.12043  -9895190.73342  23672008.033    23672008.122
 04  7 18  0 17 30.0000000  0  8G 1G13G27G20G16G 3G23G 8
  21798934.555   -18799383.42643 -14593716.71342  21798936.469    21798935.054
  20369232.156   -29487841.73144 -22694916.06142  20369234.681    20369231.142
  21787546.547   -20110207.21043 -15601798.13942  21787548.585    21787546.956
  23801971.139    -9516922.03343  -7187648.41642  23801972.277    23801972.327
  23139504.822   -13169224.33943 -10168940.51742  23139506.603    23139504.144
  23652681.142   -10693439.38843  -8312476.70842  23652683.250    23652682.961
  21384167.928   -22806419.04543 -17762184.57542  21384169.986    21384165.035
  23655931.387   -12861984.29543  -9961018.57642  23655932.150    23655932.228
 04  7 18  0 18  0.0000000  0  8G 1G13G27G20G16G 3G23G 8
  21810723.063   -18737434.56443 -14545444.91442  21810724.963    21810723.557
  20364665.173   -29511841.20144 -22713616.94242  20364667.712    20364664.168
  21778829.132   -20156017.49243 -15637494.44442  21778831.151    21778829.534
  23823464.376    -9403974.81043  -7099637.71342  23823465.546    23823465.665
  23155653.235   -13084363.80843 -10102815.45142  23155655.002    23155652.570
  23642421.755   -10747352.86043  -8354487.14642  23642423.799    23642423.576
  21395902.651   -22744752.72643 -17714132.92242  21395904.754    21395899.756
  23639882.631   -12946320.28543 -10026734.84742  23639883.419    23639883.579
 04  7 18  0 18 30.0000000  0  8G 1G13G27G20G16G 3G23G 8
  21822567.076   -18675193.73643 -14496945.59442  21822568.998    21822567.606
  20360166.255   -29535483.20244 -22732039.27742  20360168.766    20360165.250
  21770147.561   -20201639.18843 -15673043.80042  21770149.606    21770148.044
  23844975.450    -9290933.93543  -7011554.03442  23844976.665    23844976.738
  23171863.028   -12999180.62043 -10036438.98742  23171864.838    23171862.351
  23632232.526   -10800896.81543  -8396209.65942  23632234.698    23632234.480
  21407700.409   -22682755.11443 -17665823.11342  21407702.557    21407697.492
  23623860.816   -13030515.14643 -10092341.13742  23623861.589    23623861.749
 04  7 18  0 19  0.0000000  0  8G 1G13G27G20G16G 3G23G 8
  21834467.233   -18612658.37843 -14448216.78742  21834469.106    21834467.683
  20355736.148   -29558763.57744 -22750179.82042  20355738.688    20355735.139
  21761502.403   -20247069.71343 -15708444.18842  21761504.428    21761502.856
  23866504.358    -9177799.24543  -6923397.25142  23866505.650    23866505.656
  23188134.352   -12913674.74843  -9969811.06742  23188136.070    23188133.593
  23622114.896   -10854065.64543  -8437639.87642  23622116.902    23622116.703
  21419561.669   -22620423.73343 -17617253.23142  21419563.846    21419558.755
  23607866.434   -13114565.66343 -10157834.98542  23607867.157    23607867.359
 04  7 18  0 19 30.0000000  0  8G 1G13G27G20G16G 3G23G 8
  21846422.786   -18549831.87643 -14399261.10342  21846424.659    21846423.216
  20351374.503   -29581684.27844 -22768040.09942  20351377.020    20351373.476
  21752892.964   -20292312.50943 -15743698.29642  21752894.969    21752893.427
  23888049.962    -9064576.57343  -6835171.90942  23888051.362    23888051.324
  23204465.957   -12827851.99643  -9902936.21942  23204467.646    23204465.181
  23612068.286   -10906860.15743  -8478778.40642  23612070.404    23612070.235
  21431485.724   -22557762.28643 -17568426.15442  21431487.902    21431482.853
  23591899.041   -13198474.76143 -10223218.62542  23591899.715    23591899.801
 04  7 18  0 20  0.0000000  0  8G 1G13G27G20G16G 3G23G 8
  21858434.068   -18486712.34943 -14350077.08442  21858435.941    21858434.500
  20347081.946   -29604241.82644 -22785617.40342  20347084.476    20347080.901
  21744319.662   -20337365.51543 -15778804.51542  21744321.630    21744320.094
  23909612.195    -8951266.58543  -6746878.54642  23909613.645    23909613.584
  23220857.720   -12741712.73643  -9835814.75042  23220859.427    23220856.963
  23602093.930   -10959275.44243  -8519621.44942  23602096.088    23602095.838
  21443472.968   -22494769.16743 -17519340.63142  21443475.079    21443470.111
  23575959.021   -13282239.55743 -10288489.80342  23575959.748    23575959.771
 04  7 18  0 20 30.0000000  0  8G 1G13G27G20G16G 3G23G 8
  21870500.986   -18423300.18043 -14300665.04442  21870502.888    21870501.449
  20342858.747   -29626434.79844 -22802910.62142  20342861.308    20342857.711
  21735782.390   -20382229.00643 -15813763.06142  21735784.357    21735782.821
  23931190.543    -8837872.03743  -6658519.28942  23931191.933    23931191.971
  23237309.148   -12655259.67243  -9768448.76842  23237310.944    23237308.470
  23592192.438   -11011308.82043  -8560166.89242  23592194.470    23592194.162
  21455523.151   -22431444.77443 -17469996.97642  21455525.295    21455520.409
  23560046.510   -13365859.96543 -10353648.47242  23560047.160    23560047.226
 04  7 18  0 21  0.0000000  0  8G 1G13G27G20G16G 3G23G 8
  21882623.775   -18359594.38543 -14251024.19242  21882625.717    21882624.309
  20338705.381   -29648260.79944 -22819917.88442  20338707.955    20338704.345
  21727281.348   -20426902.21443 -15848573.33742  21727283.310    21727281.766
  23952784.684    -8724394.40943  -6570095.29042  23952785.988    23952786.114
  23253820.010   -12568494.06843  -9700839.23242  23253821.857    23253819.507
  23582363.979   -11062956.87843  -8600412.08342  23582366.049    23582365.832
  21467636.550   -22367788.57643 -17420394.76542  21467638.662    21467633.797
  23544161.838   -13449333.94643 -10418693.04142  23544162.546    23544162.557
 04  7 18  0 21 30.0000000  0  8G 1G13G27G20G16G 3G23G 8
  21894801.922   -18295598.07443 -14201156.95542  21894803.850    21894802.440
  20334621.547   -29669721.57344 -22836640.54942  20334624.105    20334620.494
  21718815.917   -20471388.16743 -15883237.70042  21718817.909    21718816.357
  23974393.536    -8610839.29843  -6481610.89142  23974394.882    23974394.999
  23270389.341   -12481421.65643  -9632990.62742  23270391.158    23270388.863
  23572608.974   -11114219.72643  -8640357.11642  23572611.070    23572610.806
  21479812.464   -22303803.85643 -17370536.57042  21479814.586    21479809.667
  23528304.527   -13532664.61843 -10483625.95542  23528305.248    23528305.146
 04  7 18  0 22  0.0000000  0  8G 1G13G27G20G16G 3G23G 8
  21907035.665   -18231309.28443 -14151061.84242  21907037.624    21907036.281
  20330607.939   -29690813.14144 -22853075.53242  20330610.486    20330606.885
  21710386.529   -20515684.82943 -15917754.56042  21710388.514    21710386.960
  23996017.144    -8497207.33743  -6393066.63542  23996018.466    23996018.506
  23287016.946   -12394042.86043  -9564903.30042  23287018.811    23287016.533
  23562928.183   -11165092.43143  -8679998.14242  23562930.287    23562930.063
  21492051.234   -22239488.90543 -17320421.04442  21492053.358    21492048.416
  23512474.968   -13615849.22843 -10548445.05342  23512475.743    23512475.554
 04  7 18  0 22 30.0000000  0  8G 1G13G27G20G16G 3G23G 8
  21919325.059   -18166728.17143 -14100738.92542  21919327.046    21919325.723
  20326664.930   -29711533.90244 -22869221.57042  20326667.488    20326663.847
  21701993.180   -20559792.27543 -15952123.98342  21701995.132    21701993.570
  24017654.885    -8383500.97943  -6304464.40742  24017656.241    24017656.282
  23303702.435   -12306360.03743  -9496579.04242  23303704.325    23303702.071
  23553322.133   -11215572.36143  -8719333.11242  23553324.187    23553323.980
  21504352.758   -22174843.99143 -17270048.41242  21504354.853    21504349.951
  23496673.324   -13698887.00843 -10613149.73742  23496674.126    23496673.886
 04  7 18  0 23  0.0000000  0  8G 1G13G27G20G16G 3G23G 8
  21931669.717   -18101856.55743 -14050189.64042  21931671.722    21931670.436
  20322792.262   -29731884.69944 -22885079.32742  20322794.843    20322791.197
  21693635.508   -20603712.06643 -15986347.17642  21693637.484    21693635.917
  24039305.927    -8269724.59443  -6215807.62042  24039307.294    24039307.467
  23320445.075   -12218377.23643  -9428021.06342  23320446.909    23320444.606
  23543791.082   -11265658.49743  -8758361.23342  23543793.114    23543792.833
  21516716.685   -22109871.23043 -17219420.31042  21516718.761    21516713.905
  23480899.307   -13781779.60843 -10677741.28742  23480900.120    23480899.921
 04  7 18  0 23 30.0000000  0  8G 1G13G27G20G16G 3G23G 8
  21944069.731   -18036694.03743 -13999413.68642  21944071.740    21944070.521
  20318990.412   -29751863.39244 -22900647.13042  20318992.998    20318989.375
  21685313.628   -20647443.81943 -16020423.84942  21685315.625    21685314.028
  24060969.920    -8155880.21243  -6127097.81942  24060971.304    24060971.495
  23337244.354   -12130096.28243  -9359230.74242  23337246.226    23337243.964
  23534335.595   -11315347.46943  -8797079.88442  23534337.694    23534337.334
  21529143.047   -22044570.18643 -17168536.40342  21529145.165    21529140.341
  23465153.317   -13864525.25443 -10742218.34942  23465154.094    23465153.857
 04  7 18  0 24  0.0000000  0  8G 1G13G27G20G16G 3G23G 8
  21956525.014   -17971241.23443 -13948411.53742  21956526.958    21956525.797
  20315259.647   -29771468.75744 -22915924.03242  20315262.233    20315258.569
  21677027.407   -20690988.12743 -16054354.46042  21677029.406    21677027.796
  24082646.203    -8041970.75643  -6038337.34642  24082647.679    24082647.847
  23354099.818   -12041520.30543  -9290210.52542  23354101.649    23354099.474
  23524955.953   -11364637.20643  -8835487.43242  23524958.088    23524957.691
  21541631.715   -21978941.77643 -17117397.40842  21541633.860    21541629.037
  23449435.175   -13947124.21343 -10806581.10542  23449435.963    23449435.711
 04  7 18  0 24 30.0000000  0  8G 1G13G27G20G16G 3G23G 8
  21969036.016   -17905495.72343 -13897181.31342  21969037.939    21969036.798
  20311600.760   -29790696.44344 -22930906.64442  20311603.325    20311599.637
  21668777.352   -20734342.43043 -16088137.01342  21668779.332    21668777.707
  24104334.920    -7927996.22943  -5949526.13142  24104336.471    24104336.622
  23371011.447   -11952649.03743  -9220960.21842  23371013.299    23371011.127
  23515653.333   -11413522.51643  -8873579.84142  23515655.511    23515655.053
  21554183.101   -21912983.98243 -17066001.75842  21554185.238    21554180.393
  23433745.507   -14029573.68543 -10870827.38142  23433746.279    23433746.065
 04  7 18  0 25  0.0000000  0  8G 1G13G27G20G16G 3G23G 8
  21981601.980   -17839461.73043 -13845726.28842  21981603.856    21981602.678
  20308013.185   -29809549.29844 -22945597.17642  20308015.753    20308012.035
  21660562.707   -20777510.65543 -16121774.57142  21660564.686    21660563.080
  24126034.839    -7813963.01843  -5860669.21842  24126036.363    24126036.427
  23387978.079   -11863488.98543  -9151484.89242  23387979.908    23387977.764
  23506427.556   -11462004.69143  -8911358.12842  23506429.563    23506429.214
  21566796.339   -21846701.02943 -17014352.72942  21566798.494    21566793.627
  23418083.807   -14111876.46543 -10934959.32242  23418084.501    23418084.322
 04  7 18  0 25 30.0000000  0  8G 1G13G27G20G16G 3G23G 8
  21994222.914   -17773138.35043 -13794045.76442  21994224.835    21994223.600
  20304497.466   -29828024.54744 -22959993.46842  20304500.036    20304496.321
  21652383.645   -20820491.79943 -16155266.34842  21652385.638    21652384.034
  24147745.522    -7699872.81943  -5771767.89342  24147746.893    24147747.210
  23404999.487   -11774041.44643  -9081785.53142  23405001.334    23404999.059
  23497279.058   -11510079.98043  -8948819.35342  23497281.047    23497280.778
  21579471.649   -21780092.13843 -16962449.72842  21579473.782    21579468.911
  23402450.137   -14194031.53843 -10998976.18042  23402450.849    23402450.661
 04  7 18  0 26  0.0000000  0  8G 1G13G27G20G16G 3G23G 8
  22006899.134   -17706524.47243 -13742138.88442  22006901.076    22006899.810
  20301054.020   -29846119.89244 -22974093.74142  20301056.600    20301052.896
  21644240.403   -20863284.68743 -16188611.43742  21644242.431    21644240.815
  24169466.890    -7585726.80543  -5682823.08742  24169468.227    24169468.602
  23422075.237   -11684307.72343  -9011863.19942  23422077.046    23422074.835
  23488208.895   -11557744.36643  -8985960.39842  23488210.844    23488210.513
  21592209.112   -21713156.52043 -16910292.14442  21592211.235    21592206.327
  23386845.059   -14276036.70643 -11062876.25642  23386845.825    23386845.480
 04  7 18  0 26 30.0000000  0  8G 1G13G27G20G16G 3G23G 8
  22019630.318   -17639621.99543 -13690007.12242  22019632.220    22019631.005
  20297682.872   -29863835.33044 -22987897.97942  20297685.438    20297681.755
  21636132.648   -20905891.12643 -16221811.23542  21636134.670    21636133.095
  24191198.083    -7471529.20343  -5593838.08042  24191199.336    24191199.897
  23439204.736   -11594291.77543  -8941720.94242  23439206.531    23439204.328
  23479216.986   -11604996.94343  -9022780.56342  23479218.957    23479218.572
  21605008.293   -21645896.30443 -16857881.61142  21605010.426    21605005.544
  23371268.195   -14357893.11943 -11126660.40242  23371268.973    23371268.688
 04  7 18  0 27  0.0000000  0  8G 1G13G27G20G16G 3G23G 8
  22032416.797   -17572428.82843 -13637648.85742  22032418.683    22032417.464
  20294384.739   -29881167.03944 -23001403.19942  20294387.306    20294383.633
  21628060.810   -20948308.91043 -16254864.02942  21628062.839    21628061.245
  24212939.106    -7357280.27643  -5504813.07642  24212940.372    24212940.674
  23456387.815   -11503993.94243  -8871359.03542  23456389.658    23456387.491
  23470304.267   -11651833.20543  -9059276.31842  23470306.253    23470305.922
  21617869.598   -21578309.77543 -16805216.80942  21617871.746    21617866.854
  23355720.116   -14439598.31043 -11190326.70242  23355720.930    23355720.604
 04  7 18  0 27 30.0000000  0  9G 1G13G27G20G16G 3G23G 8G19
  22045256.690   -17504954.97743 -13585071.87342  22045258.559    22045257.349
  20291158.041   -29898123.52444 -23014616.03842  20291160.581    20291156.891
  21620023.024   -20990547.71743 -16287777.36642  21620025.073    21620023.444
  24234687.550    -7242992.28743  -5415757.62542  24234688.809    24234689.034
  23473622.292   -11413426.39643  -8800786.96342  23473624.091    23473621.867
  23461469.519   -11698260.04843  -9095453.04642  23461471.425    23461471.105
  21630791.123   -21510406.80843 -16752305.43842  21630793.300    21630788.403
  23340199.246   -14521161.31743 -11253882.21442  23340200.012    23340199.662
  24724373.329    -5922807.57453  -4596893.82952  24724374.878    24724374.160
 04  7 18  0 28  0.0000000  0  9G 1G13G27G20G16G 3G23G 8G19
  22058152.518   -17437187.00643 -13532265.69942  22058154.410    22058153.200
  20288005.605   -29914689.64844 -23027524.70342  20288008.163    20288004.466
  21612021.888   -21032593.93943 -16320540.63642  21612023.914    21612022.283
  24256445.500    -7128654.09143  -5326663.06142  24256446.899    24256447.038
  23490910.223   -11322577.66643  -8729995.78442  23490912.011    23490909.873
  23452715.795   -11744261.20543  -9131298.06542  23452717.774    23452717.358
  21643775.379   -21442174.24743 -16699137.24542  21643777.530    21643772.633
  23324708.026   -14602567.91743 -11317315.86542  23324708.824    23324708.431
  24708561.204    -6005900.64743  -4661641.58542  24708562.772    24708561.936
 04  7 18  0 28 30.0000000  0  9G 1G13G27G20G16G 3G23G 8G19
  22071103.216   -17369130.85943 -13479234.97942  22071105.093    22071103.882
  20284926.649   -29930869.73944 -23040132.56442  20284929.208    20284925.501
  21604056.287   -21074453.43643 -16353158.40542  21604058.298    21604056.653
  24278211.414    -7014273.96543  -5237535.83242  24278212.843    24278213.046
  23508250.096   -11231456.42943  -8658992.26842  23508251.827    23508249.750
  23444042.410   -11789840.00943  -9166813.99342  23444044.492    23444043.904
  21656821.140   -21373618.32643 -16645717.08342  21656823.259    21656818.430
  23309245.538   -14683823.29243 -11380631.68342  23309246.360    23309245.983
  24692757.669    -6088948.00143  -4726353.72142  24692759.375    24692758.316
 04  7 18  0 29  0.0000000  0  9G 1G13G27G20G16G 3G23G 8G19
  22084108.709   -17300786.63243 -13425979.77842  22084110.585    22084109.437
  20281921.407   -29946662.33244 -23052438.48542  20281923.956    20281920.257
  21596126.176   -21116126.25743 -16385630.71542  21596128.227    21596126.515
  24299984.749    -6899854.54643  -5148377.97142  24299986.153    24299986.420
  23525641.421   -11140064.82443  -8587778.06342  23525643.170    23525641.092
  23435449.856   -11834993.84543  -9201998.76942  23435451.993    23435451.401
  21669928.419   -21304739.39643 -16592045.22542  21669930.536    21669925.706
  23293811.975   -14764927.05643 -11443829.35942  23293812.723    23293812.425
  24676963.574    -6171946.55043  -4791027.83542  24676965.151    24676964.160
 04  7 18  0 29 30.0000000  0  9G 1G13G27G20G16G 3G23G 8G19
  22097168.489   -17232156.81843 -13372502.04242  22097170.387    22097169.290
  20278989.800   -29962068.11344 -23064442.99342  20278992.336    20278988.653
  21588231.192   -21157614.53843 -16417959.22642  21588233.227    21588231.544
  24321764.756    -6785400.33443  -5059193.01842  24321766.160    24321766.464
  23543083.326   -11048407.45843  -8516356.79842  23543085.051    23543082.993
  23426938.306   -11879722.14143  -9236851.94742  23426940.438    23426939.898
  21683096.648   -21235540.20743 -16538123.81942  21683098.775    21683093.914
  23278406.995   -14845880.53743 -11506909.93142  23278407.738    23278407.391
  24661178.822    -6254895.45543  -4855663.27042  24661180.485    24661179.523
 04  7 18  0 30  0.0000000  0  9G 1G13G27G20G16G 3G23G 8G19
  22110283.142   -17163239.23143 -13318800.07042  22110284.993    22110283.914
  20276132.514   -29977083.23444 -23076143.08942  20276135.061    20276131.384
  21580371.754   -21198915.94443 -16450142.12342  21580373.785    21580372.114
  24343551.334    -6670911.49243  -4969981.07242  24343552.756    24343553.151
  23560575.787   -10956484.43143  -8444728.51642  23560577.586    23560575.457
  23418508.685   -11924020.12843  -9271369.82542  23418510.740    23418510.250
  21696326.178   -21166018.69943 -16483951.24742  21696328.327    21696323.449
  23263031.112   -14926680.93243 -11569871.22442  23263031.834    23263031.453
  24645404.528    -6337789.16543  -4920255.67942  24645406.267    24645405.401
 04  7 18  0 30 30.0000000  0  9G 1G13G27G20G16G 3G23G 8G19
  22123452.340   -17094034.71643 -13264874.51842  22123454.213    22123453.202
  20273349.751   -29991706.74744 -23087538.03242  20273352.323    20273348.626
  21572547.787   -21240031.05743 -16482179.85342  21572549.792    21572548.145
  24365344.001    -6556391.12343  -4880744.54742  24365345.377    24365345.784
  23578118.209   -10864298.63943  -8372895.46542  23578120.053    23578117.872
  23410161.248   -11967885.74743  -9305550.78742  23410163.416    23410162.842
  21709616.850   -21096175.78343 -16429528.23442  21709618.989    21709614.139
  23247684.313   -15007328.38643 -11632713.33042  23247685.037    23247684.629
  24629641.251    -6420624.87743  -4984802.89442  24629643.102    24629642.384
 04  7 18  0 31  0.0000000  0  9G 1G13G27G20G16G 3G23G 8G19
  22136675.959   -17024544.45043 -13210726.29942  22136677.840    22136676.815
  20270641.554   -30005938.49344 -23098627.69942  20270644.101    20270640.411
  21564759.080   -21280960.98643 -16514073.28842  21564761.049    21564759.387
  24387141.869    -6441842.71843  -4791486.17342  24387143.378    24387143.686
  23595709.878   -10771853.54843  -8300860.37042  23595711.782    23595709.584
  23401896.517   -12011317.66043  -9339393.82142  23401898.582    23401897.951
  21722968.373   -21026013.23643 -16374856.15642  21722970.469    21722965.617
  23232366.572   -15087823.50043 -11695436.74242  23232367.321    23232366.838
  24613889.493    -6503400.49843  -5049303.30042  24613891.303    24613890.550
 04  7 18  0 31 30.0000000  0  9G 1G13G27G20G16G 3G23G 8G19
  22149953.655   -16954769.80143 -13156356.48542  22149955.528    22149954.519
  20268007.919   -30019778.27144 -23109411.93842  20268010.478    20268006.787
  21557005.416   -21321706.74943 -16545823.21342  21557007.370    21557005.707
  24408944.453    -6327269.76543  -4702208.69642  24408946.000    24408946.189
  23613350.296   -10679152.51843  -8228625.85242  23613352.182    23613349.993
  23393714.376   -12054314.38843  -9372897.73142  23393716.470    23393715.885
  21736380.486   -20955532.31943 -16319935.99842  21736382.568    21736377.724
  23217077.698   -15168166.80543 -11758041.84942  23217078.464    23217077.943
  24598149.769    -6586114.01143  -5113755.32042  24598151.489    24598150.603
 04  7 18  0 32  0.0000000  0  9G 1G13G27G20G16G 3G23G 8G19
  22163285.826   -16884709.07643 -13101763.75942  22163287.724    22163286.643
  20265449.656   -30033222.06944 -23119887.62742  20265452.196    20265448.498
  21549287.134   -21362266.33943 -16577428.07542  21549289.074    21549287.434
  24430751.605    -6212672.78443  -4612912.49642  24430753.127    24430753.526
  23631039.333   -10586196.11843  -8156192.35042  23631041.169    23631039.037
  23385616.046   -12096871.14343  -9406058.81642  23385618.142    23385617.606
  21749853.472   -20884731.46543 -16264766.53542  21749855.553    21749850.712
  23201818.259   -15248355.61843 -11820526.59142  23201819.003    23201818.478
  24582422.575    -6668760.50643  -5178155.12442  24582424.336    24582423.324
 04  7 18  0 32 30.0000000  0  9G 1G13G27G20G16G 3G23G 8G19
  22176671.804   -16814365.18343 -13046950.38042  22176673.713    22176672.638
  20262966.447   -30046271.42944 -23130055.95542  20262968.984    20262965.272
  21541603.801   -21402642.54243 -16608890.03442  21541605.706    21541604.076
  24452562.330    -6098056.94643  -4523601.60042  24452563.774    24452564.362
  23648776.041   -10492989.55243  -8083563.89042  23648777.831    23648775.689
  23377601.267   -12138988.37843  -9438877.41042  23377603.305    23377603.001
  21763386.765   -20813613.97043 -16209350.33942  21763388.841    21763383.966
  23186587.803   -15328391.75043 -11882892.35742  23186588.568    23186587.980
  24566708.329    -6751339.32043  -5242502.17542  24566710.000    24566708.996
 04  7 18  0 33  0.0000000  0  9G 1G13G27G20G16G 3G23G 8G19
  22190112.128   -16743735.86943 -12991914.59942  22190114.043    22190113.006
  20260559.047   -30058922.41844 -23139913.86542  20260561.598    20260557.896
  21533955.831   -21442832.84243 -16640207.13342  21533957.748    21533956.091
  24474376.707    -5983422.17243  -4434275.95642  24474378.148    24474378.778
  23666560.353   -10399532.55643  -8010740.31542  23666562.176    23666559.996
  23369671.121   -12180661.24243  -9471349.73342  23369673.126    23369672.877
  21776980.588   -20742177.73943 -16153685.78142  21776982.704    21776977.866
  23171386.909   -15408272.62843 -11945137.13942  23171387.679    23171387.054
  24551007.981    -6833844.68643  -5306791.99942  24551009.808    24551008.653
 04  7 18  0 33 30.0000000  0  9G 1G13G27G20G16G 3G23G 8G19
  22203606.379   -16672823.19343 -12936658.01742  22203608.325    22203607.285
  20258227.378   -30071175.37644 -23149461.62842  20258229.950    20258226.210
  21526342.881   -21482838.78043 -16671380.57842  21526344.851    21526343.196
  24496193.940    -5868772.45943  -4344938.66942  24496195.365    24496195.956
  23684391.565   -10305829.22043  -7937724.77542  23684393.409    23684391.200
  23361825.706   -12221888.98343  -9503475.22342  23361827.738    23361827.458
  21790634.689   -20670425.03343 -16097774.61842  21790636.782    21790632.003
  23156215.431   -15487999.31043 -12007261.78842  23156216.136    23156215.500
  24535321.924    -6916275.32443  -5371023.59642  24535323.818    24535322.553
 04  7 18  0 34  0.0000000  0  9G 1G13G27G20G16G 3G23G 8G19
  22217154.583   -16601627.28843 -12881180.75142  22217156.477    22217155.473
  20255971.722   -30083028.86644 -23158698.12142  20255974.293    20255970.540
  21518765.121   -21522660.26943 -16702410.30042  21518767.057    21518765.413
  24518013.490    -5754110.47943  -4255591.85842  24518014.743    24518015.634
  23702269.197   -10211881.98043  -7864519.19942  23702270.953    23702268.791
  23354065.583   -12262669.11943  -9535251.94842  23354067.512    23354067.254
  21804348.927   -20598356.30243 -16041617.21442  21804350.998    21804346.250
  23141073.362   -15567571.10543 -12069265.74742  23141074.081    23141073.466
  24519650.653    -6998628.04043  -5435194.48742  24519652.484    24519651.264
 04  7 18  0 34 30.0000000  0  9G 1G13G27G20G16G 3G23G 8G19
  22230756.587   -16530148.43043 -12825483.00242  22230758.471    22230757.464
  20253792.384   -30094481.45844 -23167622.22442  20253794.942    20253791.190
  21511222.423   -21562297.49943 -16733296.44842  21511224.367    21511222.690
  24539834.982    -5639438.53443  -4166237.28142  24539836.096    24539837.050
  23720192.765   -10117693.04843  -7791125.29642  23720194.519    23720192.414
  23346391.125   -12302999.18943  -9566677.97042  23346393.051    23346392.634
  21818123.339   -20525971.77943 -15985213.73942  21818125.378    21818120.643
  23125960.849   -15646987.54843 -12131148.65242  23125961.571    23125961.005
  24503994.858    -7080899.48043  -5499302.04542  24503996.718    24503995.548
 04  7 18  0 35  0.0000000  0  9G 1G13G27G20G16G 3G23G 8G19
  22244412.505   -16458386.44043 -12769564.61542  22244414.387    22244413.350
  20251689.687   -30105531.32944 -23176232.51542  20251692.251    20251688.469
  21503714.874   -21601750.09743 -16764038.72742  21503716.817    21503715.095
  24561658.022    -5524758.64143  -4076876.48842  24561659.152    24561660.167
  23738161.960   -10023264.51743  -7717544.69342  23738163.701    23738161.643
  23338802.720   -12342876.28343  -9597751.02042  23338804.708    23338804.313
  21831957.808   -20453271.69043 -15928564.37042  21831959.837    21831955.075
  23110878.105   -15726247.64643 -12192909.72242  23110878.798    23110878.322
  24488355.126    -7163086.11843  -5563343.53042  24488357.022    24488355.852
 04  7 18  0 35 30.0000000  0  9G 1G13G27G20G16G 3G23G 8G19
  22258121.822   -16386343.58843 -12713427.37942  22258123.739    22258122.729
  20249663.538   -30116178.83644 -23184529.27542  20249666.098    20249662.302
  21496242.025   -21641019.84543 -16794638.51742  21496243.984    21496242.291
  24583481.736    -5410075.14443  -3987512.89342  24583482.885    24583483.891
  23756175.928    -9928600.63043  -7643780.69042  23756177.747    23756175.702
  23331300.550   -12382300.07143  -9628470.81242  23331302.559    23331302.233
  21845851.752   -20380258.52543 -15871671.03842  21845853.820    21845849.055
  23095824.813   -15805352.94243 -12254550.14842  23095825.527    23095825.012
  24472731.783    -7245186.74443  -5627317.96542  24472733.662    24472732.609
 04  7 18  0 36  0.0000000  0  9G 1G13G27G20G16G 3G23G 8G19
  22271884.728   -16314019.23243 -12657070.78242  22271886.646    22271885.639
  20247714.320   -30126421.96544 -23192510.93642  20247716.880    20247713.112
  21488804.226   -21680105.76243 -16825095.06242  21488806.197    21488804.503
  24605305.804    -5295389.40043  -3898147.51942  24605306.975    24605308.129
  23774234.371    -9833702.75343  -7569834.36342  23774236.226    23774234.187
  23323885.439   -12421267.01243  -9658834.65642  23323887.391    23323887.072
  21859805.381   -20306931.60743 -15814533.21642  21859807.466    21859802.708
  23080801.275   -15884301.75643 -12316068.64342  23080802.002    23080801.507
  24457125.826    -7327196.99543  -5691221.98542  24457127.602    24457126.328
 04  7 18  0 36 30.0000000  0  9G 1G13G27G20G16G 3G23G 8G19
  22285701.078   -16241414.11143 -12600495.42142  22285702.955    22285702.015
  20245842.294   -30136259.56644 -23200176.59942  20245844.838    20245841.112
  21481401.346   -21719008.26143 -16855408.68542  21481403.303    21481401.588
  24627129.735    -5180704.37443  -3808782.71542  24627130.962    24627132.043
  23792336.812    -9738573.81743  -7495707.96042  23792338.658    23792336.629
  23316557.571   -12459775.17443  -9688840.97442  23316559.524    23316559.178
  21873818.541   -20233292.20243 -15757151.90842  21873820.592    21873815.870
  23065807.688   -15963093.78443 -12377464.96942  23065808.389    23065807.842
  24441537.418    -7409114.23843  -5755053.52242  24441539.252    24441538.024
 04  7 18  0 37  0.0000000  0  9G 1G13G27G20G16G 3G23G 8G19
  22299570.793   -16168528.41243 -12543701.42042  22299572.676    22299571.781
  20244047.689   -30145690.20244 -23207525.14542  20244050.252    20244046.543
  21474033.366   -21757727.05343 -16885579.15842  21474035.346    21474033.682
  24648953.117    -5066022.23243  -3719420.15642  24648954.305    24648955.546
  23810482.866    -9643215.82143  -7421403.07942  23810484.755    23810482.768
  23309317.464   -12497822.10943  -9718487.92142  23309319.476    23309319.044
  21887891.051   -20159340.64143 -15699527.35542  21887893.124    21887888.403
  23050843.993   -16041728.99443 -12438739.10342  23050844.646    23050844.030
  24425967.268    -7490935.08543  -5818809.95142  24425969.104    24425967.916
 04  7 18  0 37 30.0000000  0  9G 1G13G27G20G16G 3G23G 8G19
  22313493.527   -16095364.29143 -12486690.46042  22313495.387    22313494.469
  20242330.446   -30154714.27644 -23214556.88942  20242333.022    20242329.324
  21466699.981   -21796264.31243 -16915608.17442  21466701.925    21466700.281
  24670775.189    -4951347.15443  -3630063.10342  24670776.423    24670777.660
  23828671.787    -9547633.04943  -7346923.03942  23828673.625    23828671.624
  23302165.264   -12535407.42943  -9747775.14942  23302167.227    23302166.781
  21902022.591   -20085079.10343 -15641661.25842  21902024.636    21902019.952
  23035909.958   -16120208.12043 -12499891.61242  23035910.631    23035909.894
  24410415.847    -7572658.33143  -5882490.33142  24410417.616    24410416.465
 04  7 18  0 38  0.0000000  0  9G 1G13G27G20G16G 3G23G 8G19
  22327469.734   -16021918.78843 -12429460.23742  22327471.616    22327470.733
  20240691.473   -30163327.13444 -23221268.20442  20240694.048    20240690.316
  21459401.831   -21834616.33943 -16945492.85242  21459403.781    21459402.107
  24692596.162    -4836678.47643  -3540711.02342  24692597.375    24692598.764
  23846903.561    -9451824.65043  -7272267.18342  23846905.416    23846903.309
  23295101.937   -12572525.60343  -9776698.37242  23295103.800    23295103.468
  21916213.607   -20010504.97043 -15583551.57742  21916215.665    21916210.990
  23021006.150   -16198527.58443 -12560919.69642  23021006.899    23021006.128
  24394884.139    -7654277.32043  -5946089.46142  24394885.965    24394884.947
 04  7 18  0 38 30.0000000  0  9G 1G13G27G20G16G 3G23G 8G19
  22341499.004   -15948194.58743 -12372012.85242  22341500.900    22341500.018
  20239130.498   -30171530.11944 -23227660.13342  20239133.055    20239129.341
  21452138.342   -21872785.98443 -16975235.41142  21452140.311    21452138.651
  24714414.815    -4722021.00143  -3451367.64742  24714416.232    24714417.496
  23865177.427    -9355795.33243  -7197439.19142  23865179.277    23865177.132
  23288127.421   -12609176.78643  -9805257.69842  23288129.345    23288129.003
  21930463.568   -19935621.26643 -15525200.66942  21930465.605    21930460.929
  23006132.434   -16276689.05043 -12621824.67042  23006133.253    23006132.507
  24379372.498    -7735791.47143  -6009606.90542  24379374.300    24379373.249
 04  7 18  0 39  0.0000000  0  9G 1G13G27G20G16G 3G23G 8G19
  22355581.127   -15874192.60743 -12314349.01142  22355583.017    22355582.161
  20237647.723   -30179322.16144 -23233731.85242  20237650.295    20237646.579
  21444909.523   -21910773.46643 -17004836.03042  21444911.515    21444909.860
  24736230.855    -4607377.67843  -3362035.31842  24736232.221    24736233.414
  23883492.630    -9259548.23843  -7122441.49342  23883494.559    23883492.356
  23281242.077   -12645359.41043  -9833451.89942  23281244.008    23281243.599
  21944772.172   -19860429.10943 -15466609.40742  21944774.234    21944769.577
  22991288.812   -16354692.75243 -12682606.71642  22991289.580    22991288.793
  24363881.299    -7817197.95043  -6073040.44742  24363883.141    24363882.015
 04  7 18  0 39 30.0000000  0  9G 1G13G27G20G16G 3G23G 8G19
  22369716.147   -15799912.69743 -12256468.60342  22369718.047    22369717.207
  20236243.482   -30186701.49844 -23239481.98242  20236246.053    20236242.337
  21437715.527   -21948578.23943 -17034294.28242  21437717.483    21437715.843
  24758043.772    -4492750.27443  -3272715.39342  24758045.257    24758046.366
  23901848.966    -9163085.06343  -7047275.42642  23901850.915    23901848.757
  23274446.433   -12681070.31443  -9861278.55342  23274448.452    23274447.877
  21959139.439   -19784928.57743 -15407777.85842  21959141.512    21959136.889
  22976475.469   -16432537.29643 -12743264.75242  22976476.209    22976475.351
  24348411.247    -7898493.25143  -6136387.36042  24348413.072    24348411.956
 04  7 18  0 40  0.0000000  0  8G 1G13G27G16G 3G23G 8G19
  22383904.864   -15725350.74943 -12198368.42842  22383906.758    22383905.858
  20234918.883   -30193662.45544 -23244906.10542  20234921.419    20234917.680
  21430557.101   -21986195.96843 -17063606.78342  21430559.070    21430557.410
  23920246.868    -9066403.59243  -6971939.25242  23920248.893    23920246.627
  23267741.826   -12716302.95443  -9888732.52642  23267743.871    23267743.320
  21973566.221   -19709115.60743 -15348702.85142  21973568.266    21973563.664
  22961693.224   -16510218.19743 -12803795.27342  22961693.923    22961693.076
  24332963.854    -7979669.54743  -6199641.54442  24332965.726    24332964.652
 04  7 18  0 40 30.0000000  0  8G 1G13G27G16G 3G23G 8G19
  22398145.493   -15650516.18643 -12140055.82542  22398147.358    22398146.472
  20233672.431   -30200212.48344 -23250010.02542  20233674.995    20233671.244
  21423432.540   -22023635.61643 -17092780.52042  21423434.504    21423432.852
  23938684.175    -8969515.38543  -6896441.99842  23938686.049    23938683.872
  23261126.992   -12751064.06143  -9915819.05842  23261129.042    23261128.518
  21988050.567   -19633000.02743 -15289392.05942  21988052.613    21988048.033
  22946940.514   -16587743.83543 -12864204.79742  22946941.189    22946940.440
  24317538.002    -8060732.70043  -6262807.56442  24317539.857    24317538.745
 04  7 18  0 41  0.0000000  0  8G 1G13G27G16G 3G23G 8G19
  22412438.736   -15575405.01343 -12081527.69342  22412440.584    22412439.730
  20232505.217   -30206346.12444 -23254789.48542  20232507.775    20232504.080
  21416342.794   -22060892.72243 -17121812.01942  21416344.721    21416343.054
  23957161.227    -8872418.43043  -6820782.08742  23957163.087    23957160.831
  23254603.034   -12785347.34043  -9942533.25542  23254605.093    23254604.628
  22002593.266   -19556577.91343 -15229842.39642  22002595.313    22002590.698
  22932218.373   -16665109.10943 -12924489.37342  22932219.031    22932218.321
  24302135.171    -8141674.94843  -6325879.36642  24302137.047    24302135.907
 04  7 18  0 41 30.0000000  0  8G 1G13G27G16G 3G23G 8G19
  22426784.479   -15500017.95743 -12022784.59942  22426786.335    22426785.487
  20231417.513   -30212062.09444 -23259243.49042  20231420.047    20231416.367
  21409287.675   -22097967.71644 -17150701.61242  21409289.588    21409287.906
  23975677.323    -8775115.23143  -6744961.45942  23975679.334    23975677.119
  23248170.414   -12819150.78843  -9968873.56942  23248172.469    23248171.965
  22017194.084   -19479850.30543 -15170054.68742  22017196.150    22017191.523
  22917526.771   -16742313.81843 -12984648.84342  22917527.395    22917526.735
  24286755.834    -8222493.72843  -6388854.96342  24286757.724    24286756.510
 04  7 18  0 42  0.0000000  0  8G 1G13G27G16G 3G23G 8G19
  22441182.336   -15424357.19143 -11963828.20342  22441184.178    22441183.305
  20230409.125   -30217361.24444 -23263372.70042  20230411.650    20230407.961
  21402266.896   -22134862.07943 -17179450.45942  21402268.838    21402267.163
  23994232.069    -8677609.81043  -6668983.28542  23994233.994    23994231.842
  23241829.284   -12852473.62943  -9994839.38642  23241831.336    23241830.769
  22031852.593   -19402819.31743 -15110030.57842  22031854.675    22031850.067
  22902865.484   -16819359.22043 -13044684.17242  22902866.108    22902865.347
  24271400.376    -8303187.26643  -6451732.96342  24271402.150    24271400.913
 04  7 18  0 42 30.0000000  0  8G 1G13G27G16G 3G23G 8G19
  22455632.134   -15348422.90343 -11904658.68642  22455634.013    22455633.127
  20229480.416   -30222241.79644 -23267175.73242  20229482.934    20229479.203
  21395280.558   -22171575.60044 -17208058.38742  21395282.488    21395280.836
  24012824.826    -8579904.13043  -6592849.02942  24012826.693    24012824.773
  23235579.959   -12885313.80543 -10020429.09842  23235582.011    23235581.470
  22046568.706   -19325485.45043 -15049770.46742  22046570.811    22046566.242
  22888234.611   -16896244.63043 -13104594.83242  22888235.264    22888234.430
  24256069.262    -8383752.00743  -6514510.60242  24256071.140    24256069.879
 04  7 18  0 43  0.0000000  0  8G 1G13G27G16G 3G23G 8G19
  22470134.504   -15272212.43943 -11845273.95242  22470136.398    22470135.549
  20228632.148   -30226699.57844 -23270649.32842  20228634.662    20228630.938
  21388329.212   -22208105.21444 -17236523.00642  21388331.147    21388329.489
  24031455.761    -8481997.84643  -6516558.47142  24031457.668    24031455.809
  23229423.504   -12917666.13643 -10045638.67442  23229425.539    23229424.992
  22061342.996   -19247846.32743 -14989272.48742  22061345.091    22061340.492
  22873634.812   -16972966.70843 -13164378.20942  22873635.486    22873634.569
  24240763.890    -8464181.92443  -6577183.18042  24240765.713    24240764.443
 04  7 18  0 43 30.0000000  0  8G 1G13G27G16G 3G23G 8G19
  22484688.637   -15195730.00243 -11785677.29842  22484690.536    22484689.711
  20227863.816   -30230737.20644 -23273795.53442  20227866.339    20227862.604
  21381412.080   -22244454.79844 -17264847.34042  21381414.029    21381412.383
  24050123.702    -8383896.87743  -6440116.19742  24050125.638    24050123.817
  23223359.553   -12949531.99543 -10070469.19242  23223361.648    23223361.102
  22076174.473   -19169906.60243 -14928540.27042  22076176.552    22076171.950
  22859065.499   -17049528.79443 -13224036.92042  22859066.134    22859065.191
  24225484.098    -8544477.56243  -6639751.11942  24225485.916    24225484.599
 04  7 18  0 44  0.0000000  0  8G 1G13G27G16G 3G23G 8G19
  22499294.526   -15118976.01043 -11725869.03642  22499296.421    22499295.539
  20227175.740   -30234353.08444 -23276613.10742  20227178.260    20227174.515
  21374529.245   -22280624.24844 -17293031.31442  21374531.200    21374529.536
  24068828.383    -8285603.47843  -6363523.98742  24068830.221    24068828.500
  23217388.541   -12980909.54843 -10094919.18442  23217390.662    23217390.104
  22091063.094   -19091666.56543 -14867574.04142  22091065.179    22091060.580
  22844526.897   -17125929.31243 -13283569.72742  22844527.520    22844526.611
  24210230.510    -8624635.75443  -6702211.96442  24210232.232    24210230.785
 04  7 18  0 44 30.0000000  0  8G 1G13G27G16G 3G23G 8G19
  22513952.059   -15041950.45043 -11665849.15942  22513953.969    22513953.064
  20226568.208   -30237545.52744 -23279100.72242  20226570.749    20226567.021
  21367680.784   -22316613.12744 -17321074.57742  21367682.744    21367681.077
  24087569.276    -8187119.60043  -6286783.34242  24087571.042    24087569.398
  23211510.909   -13011796.26443 -10118986.71442  23211513.100    23211512.476
  22106008.792   -19013126.62143 -14806374.11842  22106010.845    22106006.275
  22830019.157   -17202168.14643 -13342976.55942  22830019.714    22830018.832
  24195003.683    -8704652.80343  -6764562.81742  24195005.462    24195003.882
 04  7 18  0 45  0.0000000  0  8G 1G13G27G16G 3G23G 8G19
  22528661.608   -14964651.39543 -11605616.18242  22528663.555    22528662.614
  20226041.951   -30240311.14844 -23281255.74942  20226044.478    20226040.751
  21360867.192   -22352418.80844 -17348975.09042  21360869.149    21360867.457
  24106346.398    -8088445.07643  -6209894.16242  24106348.258    24106346.548
  23205727.564   -13042188.01043 -10142668.56342  23205729.695    23205729.093
  22121011.883   -18934284.92943 -14744939.06742  22121013.961    22121009.359
  22815542.633   -17278242.39843 -13402255.13442  22815543.217    22815542.352
  24179804.932    -8784522.87343  -6826799.15542  24179806.706    24179805.005
 04  7 18  0 45 30.0000000  0  8G 1G13G27G16G 3G23G 8G19
  22543422.586   -14887081.72543 -11545172.32342  22543424.599    22543423.675
  20225596.688   -30242650.86144 -23283078.90142  20225599.243    20225595.515
  21354087.972   -22388043.73944 -17376734.76142  21354089.905    21354088.205
  24125158.992    -7989584.78443  -6132860.19842  24125160.828    24125159.086
  23200038.299   -13072084.78843 -10165964.71342  23200040.395    23200039.907
  22136071.814   -18855144.64843 -14683271.36242  22136073.887    22136069.304
  22801097.072   -17354154.11143 -13461407.04442  22801097.686    22801096.796
  24164634.157    -8864245.24243  -6888920.37742  24164636.007    24164634.285
 04  7 18  0 46  0.0000000  0  9G 1G13G27G16G10G 3G23G 8G19
  22558234.171   -14809246.49843 -11484521.55742  22558236.166    22558235.283
  20225231.735   -30244568.62644 -23284573.25942  20225234.299    20225230.586
  21347342.274   -22423492.58444 -17404357.22042  21347344.214    21347342.475
  24144005.604    -7890545.68343  -6055686.92942  24144007.385    24144005.559
  24628209.633    -2162657.38053  -1671515.99752  24628211.195    24628211.287
  23194442.786   -13101489.33443 -10188877.31742  23194444.780    23194444.389
  22151187.533   -18775711.05543 -14621375.09542  22151189.626    22151185.081
  22786681.757   -17429907.04743 -13520435.24742  22786682.377    22786681.453
  24149491.155    -8943821.40243  -6950927.68142  24149493.021    24149491.489
 04  7 18  0 46 30.0000000  0  9G 1G13G27G16G10G 3G23G 8G19
  22573098.811   -14731132.66643 -11423653.67742  22573100.750    22573099.868
  20224949.947   -30246049.34544 -23285727.05842  20224952.528    20224948.820
  21340632.675   -22458751.75944 -17431831.88742  21340634.625    21340632.822
  24162888.366    -7791316.28143  -5978365.35842  24162890.228    24162888.351
  24611912.278    -2248300.21143  -1738250.60742  24611913.899    24611914.100
  23188943.934   -13130386.01343 -10211394.18342  23188945.957    23188945.464
  22166361.544   -18695971.22243 -14559240.19742  22166363.659    22166359.135
  22772299.167   -17505487.40543 -13579328.96542  22772299.815    22772298.966
  24134379.323    -9023234.59343  -7012808.01042  24134381.146    24134379.574
 04  7 18  0 47  0.0000000  0  9G 1G13G27G16G10G 3G23G 8G19
  22588013.392   -14652756.11343 -11362581.08242  22588015.356    22588014.476
  20224748.661   -30247107.08044 -23286551.26642  20224751.253    20224747.523
  21333956.275   -22493836.48544 -17459170.61742  21333958.226    21333956.404
  24181803.911    -7691914.48043  -5900909.45142  24181805.753    24181803.906
  24595679.093    -2333605.34743  -1804722.07142  24595680.831    24595681.166
  23183539.126   -13158788.37143 -10233525.85842  23183541.177    23183540.602
  22181590.759   -18615941.17943 -14496879.16242  22181592.896    22181588.364
  22757946.757   -17580909.79443 -13638099.60642  22757947.364    22757946.499
  24119296.001    -9102497.09843  -7074570.90742  24119297.906    24119296.376
 04  7 18  0 47 30.0000000  0  9G 1G13G27G16G10G 3G23G 8G19
  22602979.350   -14574109.64843 -11301298.18042  22602981.284    22602980.451
  20224629.568   -30247733.00044 -23287038.99642  20224632.148    20224628.419
  21327314.551   -22528738.91644 -17486367.29642  21327316.489    21327314.685
  24200753.311    -7592334.69543  -5823314.85142  24200755.156    24200753.389
  24579512.253    -2418562.54843  -1870922.41742  24579513.916    24579514.299
  23178230.198   -13186686.78943 -10255264.86142  23178232.244    23178231.680
  22196876.514   -18535614.01143 -14434286.60942  22196878.634    22196874.151
  22743625.743   -17656166.33743 -13696741.01242  22743626.414    22743625.629
  24104243.694    -9181597.65643  -7136207.62642  24104245.434    24104243.928
 04  7 18  0 48  0.0000000  0  9G 1G13G27G16G10G 3G23G 8G19
  22617995.628   -14495198.99143 -11239809.40042  22617997.552    22617996.707
  20224591.875   -30247931.11144 -23287193.36942  20224594.449    20224590.762
  21320706.474   -22563464.53644 -17513426.20642  21320708.418    21320706.601
  24219735.216    -7492584.47443  -5745587.45742  24219737.074    24219735.259
  24563411.091    -2503174.23943  -1936853.52442  24563412.688    24563413.293
  23173016.486   -13214084.58643 -10276613.76342  23173018.522    23173018.106
  22212217.678   -18454995.62943 -14371467.13142  22212219.829    22212215.347
  22729335.654   -17731261.17443 -13755256.42342  22729336.294    22729335.508
  24089221.587    -9260538.53043  -7197719.91642  24089223.334    24089221.784
 04  7 18  0 48 30.0000000  0  9G 1G13G27G16G10G 3G23G 8G19
  22633063.017   -14416019.44843 -11178111.10642  22633064.945    22633064.149
  20224636.744   -30247695.23944 -23287009.57142  20224639.334    20224635.643
  21314133.121   -22598007.79444 -17540343.01842  21314135.059    21314133.224
  24238750.123    -7392660.84743  -5667724.93842  24238751.871    24238750.156
  24547377.240    -2587432.50143  -2002509.23542  24547378.763    24547379.232
  23167899.595   -13240974.42043 -10297566.85842  23167901.578    23167901.173
  22227615.117   -18374081.65943 -14308417.32442  22227617.241    22227612.753
  22715077.354   -17806189.03043 -13813641.72942  22715077.970    22715077.149
  24074231.520    -9339311.20543  -7259101.12642  24074233.273    24074231.664
 04  7 18  0 49  0.0000000  0  9G 1G13G27G16G10G 3G23G 8G19
  22648180.499   -14336576.46843 -11116207.52442  22648182.470    22648181.709
  20224763.549   -30247029.02744 -23286490.44242  20224766.101    20224762.393
  21307593.488   -22632373.59644 -17567121.54442  21307595.438    21307593.630
  24257796.570    -7292571.04443  -5589732.91042  24257798.329    24257796.655
  24531410.299    -2671339.28943  -2067891.09342  24531411.806    24531412.250
  23162878.714   -13267359.47443 -10318126.61842  23162880.751    23162880.245
  22243067.829   -18292877.71743 -14245141.57542  22243069.887    22243065.428
  22700849.977   -17880954.20243 -13871900.25542  22700850.625    22700849.785
  24059273.294    -9417917.29843  -7320352.54642  24059274.957    24059273.274
 04  7 18  0 49 30.0000000  0  9G 1G13G27G16G10G 3G23G 8G19
  22663348.606   -14256867.97743 -11054097.06542  22663350.541    22663349.827
  20224972.918   -30245928.81244 -23285633.13242  20224975.461    20224971.756
  21301088.096   -22666559.58344 -17593759.95642  21301090.045    21301088.247
  24276874.696    -7192314.76143  -5511611.17542  24276876.509    24276874.734
  24515511.146    -2754889.56543  -2132995.13642  24515512.822    24515512.983
  23157954.739   -13293235.13143 -10338289.45042  23157956.698    23157956.177
  22258575.994   -18211382.01343 -14181638.46942  22258578.085    22258573.601
  22686654.085   -17955553.62543 -13930029.61742  22686654.801    22686653.943
  24044347.808    -9496350.97643  -7381469.61442  24044349.507    24044347.846
 04  7 18  0 50  0.0000000  0  9G 1G13G27G16G10G 3G23G 8G19
  22678567.686   -14176891.61343 -10991777.88042  22678569.577    22678568.909
  20225265.601   -30244390.63944 -23284434.55642  20225268.156    20225264.462
  21294617.543   -22700562.44444 -17620255.67642  21294619.531    21294617.688
  24295984.597    -7091891.50643  -5433359.33642  24295986.418    24295984.825
  24499680.883    -2838077.67243  -2197816.96442  24499682.534    24499682.742
  23153128.412   -13318596.97543 -10358051.91242  23153130.462    23153129.885
  22274140.149   -18129592.23243 -14117906.21642  22274142.219    22274137.721
  22672490.478   -18029983.96443 -13988027.24142  22672491.158    22672490.205
  24029456.208    -9574606.46143  -7442447.82842  24029457.948    24029456.338
 04  7 18  0 50 30.0000000  0  9G 1G13G27G16G10G 3G23G 8G19
  22693836.155   -14096655.16343 -10929256.02342  22693838.031    22693837.387
  20225640.533   -30242420.26744 -23282899.20042  20225643.076    20225639.374
  21288180.459   -22734389.52644 -17646614.42342  21288182.414    21288180.574
  24315124.533    -6991310.66543  -5354984.70542  24315126.294    24315124.788
  24483918.803    -2920907.91143  -2262359.95342  24483920.420    24483920.541
  23148398.985   -13343450.09443 -10377417.94942  23148400.977    23148400.522
  22289758.683   -18047516.49543 -14053951.13742  22289760.764    22289756.263
  22658357.782   -18104251.87643 -14045898.29742  22658358.465    22658357.431
  24014597.715    -9652687.59643  -7503290.19842  24014599.529    24014597.901
 04  7 18  0 51  0.0000000  0  9G 1G13G27G16G10G 3G23G 8G19
  22709154.805   -14016154.94843 -10866528.62942  22709156.709    22709156.122
  20226098.721   -30240012.56544 -23281023.06842  20226101.256    20226097.513
  21281777.613   -22768036.45444 -17672832.79142  21281779.588    21281777.751
  24334294.834    -6890570.14543  -5276485.65042  24334296.675    24334295.154
  24468226.181    -3003373.04843  -2326618.43542  24468227.836    24468227.599
  23143767.526   -13367788.53143 -10396382.95442  23143769.440    23143769.055
  22305432.323   -17965151.10943 -13989770.36242  22305434.395    22305429.914
  22644256.802   -18178352.71843 -14103639.15542  22644257.525    22644256.463
  23999774.060    -9730586.67743  -7563990.70942  23999775.788    23999774.041
 04  7 18  0 51 30.0000000  0  9G 1G13G27G16G10G 3G23G 8G19
  22724523.559   -13935391.47743 -10803596.10942  22724525.470    22724524.960
  20226640.322   -30237166.52244 -23278805.37242  20226642.860    20226639.117
  21275409.121   -22801503.16944 -17698910.73742  21275411.088    21275409.217
  24353495.213    -6789672.16043  -5197863.88342  24353496.995    24353495.332
  24452603.462    -3085470.63643  -2390590.53342  24452605.083    24452604.847
  23139234.282   -13391610.61143 -10414945.59542  23139236.214    23139235.720
  22321160.854   -17882496.99443 -13925364.59942  22321162.956    22321158.517
  22630187.733   -18252285.80543 -14161249.30142  22630188.510    22630187.381
  23984985.596    -9808300.48443  -7624546.85742  23984987.281    23984985.498
 04  7 18  0 52  0.0000000  0  9G 1G13G27G16G10G 3G23G 8G19
  22739941.907   -13854367.85843 -10740460.86442  22739943.779    22739943.315
  20227265.110   -30233883.28144 -23276247.00542  20227267.656    20227263.916
  21269074.447   -22834792.00244 -17724850.07442  21269076.416    21269074.572
  24372724.577    -6688621.45143  -5119123.11242  24372726.365    24372724.673
  24437050.807    -3167200.34843  -2454275.96642  24437052.416    24437052.171
  23134799.272   -13414916.99243 -10433106.40342  23134801.135    23134800.620
  22336943.773   -17799557.47143 -13860736.44342  22336945.850    22336941.418
  22616150.252   -18326052.73843 -14218729.97542  22616150.987    22616149.989
  23970232.411    -9885828.38043  -7684958.12942  23970234.168    23970232.404
 04  7 18  0 52 30.0000000  0  9G 1G13G27G16G10G 3G23G 8G19
  22755409.939   -13773083.22943 -10677122.25742  22755411.839    22755411.330
  20227973.516   -30230160.53644 -23273346.16942  20227976.074    20227972.328
  21262773.925   -22867901.55544 -17750649.71342  21262775.891    21262774.058
  24391982.825    -6587418.90843  -5040264.03342  24391984.666    24391982.951
  24421568.890    -3248558.24143  -2517671.66542  24421570.495    24421570.398
  23130462.927   -13437704.57743 -10450862.93442  23130464.920    23130464.280
  22352781.127   -17716331.81643 -13795885.32242  22352783.187    22352778.776
  22602144.597   -18399652.59143 -14276080.46542  22602145.314    22602144.376
  23955515.478    -9963165.89643  -7745221.05242  23955517.250    23955515.536
 04  7 18  0 53  0.0000000  0  9G 1G13G27G16G10G 3G23G 8G19
  22770927.527   -13691537.64143 -10613580.28642  22770929.481    22770928.980
  20228765.953   -30225996.35644 -23270101.35542  20228768.490    20228764.725
  21256507.559   -22900831.18044 -17776309.14242  21256509.544    21256507.773
  24411269.581    -6486066.22243  -4961287.96642  24411271.531    24411269.697
  24406158.395    -3329540.73843  -2580774.84542  24406160.060    24406159.848
  23126225.820   -13459970.86743 -10468213.26542  23126227.814    23126227.169
  22368672.876   -17632820.23043 -13730811.40442  22368674.944    22368670.568
  22588171.111   -18473083.75343 -14333299.50842  22588171.813    22588170.843
  23940835.527   -10040309.19243  -7805332.64042  23940837.298    23940835.598
 04  7 18  0 53 30.0000000  0  9G 1G13G27G16G10G 3G23G 8G19
  22786494.506   -13609732.36743 -10549835.96442  22786496.494    22786496.053
  20229642.404   -30221390.59744 -23266512.44742  20229644.935    20229641.202
  21250275.341   -22933581.55844 -17801828.90342  21250277.312    21250275.556
  24430584.361    -6384566.46643  -4882197.29342  24430586.349    24430584.539
  24390819.660    -3410145.96243  -2643584.05142  24390821.239    24390821.020
  23122087.978   -13481715.17143 -10485156.86942  23122089.975    23122089.373
  22384618.757   -17549024.30643 -13665515.92642  22384620.821    22384616.426
  22574229.653   -18546346.37043 -14390387.22542  22574230.352    22574229.349
  23926193.021   -10117255.63843  -7865290.83642  23926194.784    23926193.087
 04  7 18  0 54  0.0000000  0  9G 1G13G27G16G10G 3G23G 8G19
  22802110.225   -13527671.44643 -10485892.45042  22802112.165    22802111.756
  20230602.372   -30216345.91044 -23262581.52142  20230604.918    20230601.151
  21244076.646   -22966155.83644 -17827211.44242  21244078.603    21244076.849
  24449926.009    -6282925.20343  -4802996.38242  24449927.974    24449926.348
  24375552.614    -3490374.80643  -2706099.98342  24375554.234    24375553.787
  23118049.236   -13502939.14243 -10501695.01542  23118051.187    23118050.561
  22400617.920   -17464948.25843 -13600002.16742  22400620.014    22400615.627
  22560319.711   -18619443.56443 -14447346.03642  22560320.396    22560319.316
  23911588.059   -10194005.44643  -7925095.80742  23911589.737    23911588.111
 04  7 18  0 54 30.0000000  0  9G 1G13G27G16G10G 3G23G 8G19
  22817775.256   -13445351.70943 -10421747.25342  22817777.168    22817776.671
  20231646.852   -30210857.20944 -23258304.61442  20231649.388    20231645.608
  21237912.137   -22998550.35344 -17852453.90842  21237914.130    21237912.344
  24469295.093    -6181140.60943  -4723683.75642  24469296.844    24469295.273
  24360358.345    -3570220.81743  -2768317.59142  24360359.956    24360359.682
  23114110.558   -13523637.10643 -10517823.28942  23114112.544    23114111.857
  22416671.018   -17380589.06543 -13534267.78142  22416673.102    22416668.730
  22546442.069   -18692370.96543 -14504172.54542  22546442.721    22546441.684
  23897021.806   -10270551.81243  -7984742.24942  23897023.454    23897021.836
 04  7 18  0 55  0.0000000  0  9G 1G13G27G16G10G 3G23G 8G19
  22833489.236   -13362774.67843 -10357401.57242  22833491.136    22833490.574
  20232775.835   -30204924.34844 -23253681.60642  20232778.370    20232774.567
  21231781.745   -23030765.78144 -17877556.82842  21231783.717    21231781.906
  24488690.709    -6079215.99643  -4644262.02742  24488692.431    24488690.885
  24345237.279    -3649682.05843  -2830235.37942  24345238.896    24345238.579
  23110272.036   -13543808.45543 -10533541.20742  23110274.080    23110273.370
  22432777.705   -17295948.38343 -13468314.04942  22432779.768    22432775.374
  22532596.674   -18765129.09543 -14560867.15542  22532597.309    22532596.261
  23882494.526   -10346892.34143  -8044228.28842  23882496.247    23882494.688
 04  7 18  0 55 30.0000000  0  9G 1G13G27G16G10G 3G23G 8G19
  22849251.804   -13279942.08343 -10292856.74942  22849253.708    22849253.153
  20233989.344   -30198547.16344 -23248712.37342  20233991.888    20233988.150
  21225685.207   -23062803.23844 -17902521.07142  21225687.198    21225685.362
  24508112.373    -5977154.53943  -4564733.67342  24508114.119    24508112.626
  24330189.746    -3728756.93343  -2891852.10342  24330191.391    24330191.117
  23106533.842   -13563452.76543 -10548848.44542  23106535.865    23106535.149
  22448937.503   -17211028.27043 -13402142.57842  22448939.576    22448935.126
  22518783.399   -18837718.30543 -14617430.14642  22518784.050    22518782.934
  23868006.971   -10423024.86043  -8103552.25342  23868008.737    23868007.040
 04  7 18  0 56  0.0000000  0  9G 1G13G27G16G10G 3G23G 8G19
  22865062.966   -13196853.86643 -10228112.73742  22865064.834    22865064.355
  20235287.676   -30191724.40444 -23243395.93742  20235290.211    20235286.492
  21219622.722   -23094661.85544 -17927345.95342  21219624.682    21219622.878
  24527559.828    -5874957.85443  -4485099.95542  24527561.579    24527560.042
  24315216.369    -3807442.26143  -2953165.29942  24315218.141    24315217.922
  23102896.432   -13582567.77043 -10563743.22742  23102898.412    23102897.682
  22465150.443   -17125828.96743 -13335753.56342  22465152.503    22465148.029
  22505002.419   -18910137.58743 -14673860.70942  22505003.064    22505001.993
  23853559.681   -10498945.39643  -8162711.03042  23853561.465    23853559.719
 04  7 18  0 56 30.0000000  0  9G 1G13G27G16G10G 3G23G 8G19
  22880922.679   -13113510.45143 -10163169.87442  22880924.541    22880924.092
  20236671.043   -30184454.82544 -23237731.33342  20236673.585    20236669.865
  21213594.330   -23126341.36544 -17952031.27442  21213596.296    21213594.450
  24547032.647    -5772627.98343  -4405362.44242  24547034.411    24547032.780
  24300317.668    -3885735.34643  -3014172.84842  24300319.472    24300319.262
  23099359.967   -13601151.86443 -10578224.32142  23099362.025    23099361.272
  22481416.326   -17040351.10943 -13269147.48542  22481418.388    22481413.946
  22491253.995   -18982386.28843 -14730158.36142  22491254.608    22491253.473
  23839153.263   -10574650.77243  -8221702.15542  23839155.148    23839153.366
 04  7 18  0 57  0.0000000  0  9G 1G13G27G16G10G 3G23G 8G19
  22896830.233   -13029916.22443 -10098031.58642  22896832.083    22896831.624
  20238138.935   -30176741.03144 -23231720.58542  20238141.475    20238137.742
  21207599.283   -23157845.48844 -17976579.92942  21207601.249    21207599.416
  24566529.527    -5670170.91743  -4325525.82442  24566531.475    24566529.894
  24285493.369    -3963637.07843  -3074875.44442  24285495.229    24285495.025
  23095924.080   -13619207.06043 -10592293.28942  23095926.158    23095925.448
  22497734.391   -16954599.27243 -13202327.92142  22497736.431    22497732.055
  22477537.323   -19054467.47443 -14786325.48142  22477537.984    22477536.861
  23824787.751   -10650141.35443  -8280525.89442  23824789.669    23824787.910
 04  7 18  0 57 30.0000000  0  9G 1G13G27G16G10G 3G23G 8G19
  22912786.015   -12946068.63243 -10032695.85642  22912787.813    22912787.384
  20239692.165   -30168578.80644 -23225360.41342  20239694.697    20239690.979
  21201638.266   -23189170.75144 -18000989.21542  21201640.249    21201638.379
  24586050.987    -5567585.37043  -4245589.09542  24586052.832    24586051.283
  24270744.670    -4041141.42743  -3135268.39042  24270746.443    24270746.308
  23092589.927   -13636728.35143 -10605946.24142  23092591.948    23092591.180
  22514105.040   -16868570.93543 -13135292.89642  22514107.087    22514102.815
  22463853.275   -19126377.57343 -14842359.28242  22463853.951    22463852.772
  23810464.451   -10725410.61843  -8339177.18042  23810466.254    23810464.605
 04  7 18  0 58  0.0000000  0  9G 1G13G27G16G10G 3G23G 8G19
  22928789.959   -12861967.69043  -9967162.70642  22928791.753    22928791.311
  20241331.032   -30159966.42244 -23218649.46742  20241333.594    20241329.871
  21195711.448   -23220316.38644 -18025258.53442  21195713.431    21195711.525
  24605596.571    -5464872.74343  -4165553.32942  24605598.507    24605596.948
  24256072.293    -4118245.13043  -3195349.15042  24256073.997    24256073.898
  23089357.792   -13653713.69643 -10619181.53942  23089359.805    23089358.933
  22530528.324   -16782266.16843 -13068042.47542  22530530.340    22530526.156
  22450201.939   -19198115.29543 -14898258.75742  22450202.647    22450201.483
  23796184.040   -10800454.81943  -8397653.10042  23796185.787    23796184.054
 04  7 18  0 58 30.0000000  0  9G 1G13G27G16G10G 3G23G 8G19
  22944841.512   -12777616.49343  -9901434.55442  22944843.386    22944842.868
  20243055.329   -30150905.30944 -23211588.86442  20243057.880    20243054.102
  21189818.382   -23251284.58844 -18049389.59542  21189820.347    21189818.464
  24625165.406    -5362037.73743  -4085422.22142  24625167.419    24625165.921
  24241476.167    -4194947.90143  -3255117.48242  24241477.911    24241477.829
  23086227.369   -13670164.10143 -10632000.04242  23086229.406    23086228.499
  22547003.589   -16695688.28343 -13000579.23642  22547005.620    22547001.447
  22436583.157   -19269682.68943 -14954025.53742  22436583.848    22436582.633
  23781946.558   -10875273.13243  -8455953.01142  23781948.265    23781946.464
 04  7 18  0 59  0.0000000  0  9G 1G13G27G16G10G 3G23G 8G19
  22960940.759   -12693014.74943  -9835511.18342  22960942.611    22960942.090
  20244865.315   -30141393.75344 -23204177.26542  20244867.867    20244864.065
  21183959.219   -23282074.52644 -18073381.74942  21183961.195    21183959.320
  24644757.329    -5259081.36343  -4005196.52242  24644759.436    24644757.912
  24226956.989    -4271246.35043  -3314570.77542  24226958.732    24226958.634
  23083199.094   -13686077.33343 -10644399.93442  23083201.156    23083200.351
  22563530.815   -16608837.38543 -12932903.25442  22563532.838    22563528.680
  22422996.998   -19341078.09243 -15009658.27242  22422997.711    22422996.511
  23767752.767   -10949861.35143  -8514073.63142  23767754.511    23767752.608
 04  7 18  0 59 30.0000000  0  9G 1G13G27G16G10G 3G23G 8G19
  22977087.321   -12608163.96243  -9769393.75042  22977089.190    22977088.717
  20246760.983   -30131431.90244 -23196414.78742  20246763.512    20246759.758
  21178133.939   -23312686.73344 -18097235.40942  21178135.892    21178134.003
  24664371.867    -5156006.90543  -3924878.81442  24664373.804    24664372.383
  24212515.263    -4347138.52443  -3373707.49642  24212516.937    24212516.758
  23080273.305   -13701452.50943 -10656380.56942  23080275.349    23080274.580
  22580109.589   -16521715.34043 -12865015.98742  22580111.691    22580107.413
  22409443.593   -19412301.53543 -15065157.01642  22409444.321    22409443.062
  23753603.367   -11024217.05243  -8572013.06542  23753605.088    23753603.189
 04  7 18  1  0  0.0000000  0  9G 1G13G27G16G10G 3G23G 8G19
  22993280.928   -12523066.59143  -9703084.16542  22993282.756    22993282.259
  20248742.229   -30121020.37444 -23188301.91042  20248744.758    20248741.009
  21172342.112   -23343122.96544 -18120951.94542  21172344.091    21172342.183
  24684008.069    -5052818.19943  -3844472.09642  24684009.767    24684008.511
  24198150.843    -4422623.80743  -3432527.15242  24198152.586    24198152.335
  23077449.793   -13716290.07443 -10667942.29742  23077451.825    23077451.071
  22596739.490   -16434324.60943 -12796919.36942  22596741.597    22596737.348
  22395922.474   -19483355.10443 -15120523.39642  22395923.227    22395921.945
  23739498.369   -11098339.10643  -8629770.42942  23739500.123    23739498.154
 04  7 18  1  0 30.0000000  0  9G 1G13G27G16G10G 3G23G 8G19
  23009521.442   -12437722.26343  -9636582.15242  23009523.285    23009522.793
  20250809.459   -30110157.00544 -23179836.95242  20250811.986    20250808.236
  21166583.984   -23373381.88844 -18144530.31642  21166585.974    21166584.118
  24703665.815    -4949516.32643  -3763977.18542  24703667.638    24703666.143
  24183864.656    -4497698.41943  -3491026.81242  24183866.428    24183865.940
  23074729.037   -13730587.64743 -10679083.25242  23074731.055    23074730.287
  22613420.624   -16346665.05743 -12728613.27142  22613422.720    22613418.420
  22382434.137   -19554236.80543 -15175755.84842  22382434.832    22382433.579
  23725438.712   -11172223.26143  -8687342.43142  23725440.452    23725438.371
 04  7 18  1  1  0.0000000  0  9G 1G13G27G16G10G 3G23G 8G19
  23025809.050   -12352130.47343  -9569887.31142  23025810.916    23025810.500
  20252963.060   -30098839.85744 -23171018.39542  20252965.573    20252961.822
  21160859.862   -23403462.38744 -18167969.65942  21160861.821    21160859.978
  24723344.945    -4846101.99743  -3683394.63642  24723346.726    24723345.214
  24169657.272    -4572358.74643  -3549203.64042  24169659.054    24169658.628
  23072111.447   -13744342.86843 -10689801.58042  23072113.469    23072112.752
  22630152.936   -16258736.48643 -12660097.55142  22630154.968    22630150.701
  22368978.810   -19624944.94043 -15230853.05542  22368979.507    22368978.265
  23711425.166   -11245864.77643  -8744725.35842  23711426.883    23711424.775
 04  7 18  1  1 30.0000000  0  9G 1G13G27G16G10G 3G23G 8G19
  23042143.717   -12266291.28843  -9502999.70642  23042145.599    23042145.285
  20255203.307   -30087067.30944 -23161844.98742  20255205.812    20255202.083
  21155169.888   -23433363.42144 -18191269.15942  21155171.841    21155169.992
  24743045.234    -4742576.72843  -3602725.64942  24743047.082    24743045.633
  24155529.195    -4646601.42643  -3607055.02842  24155531.031    24155530.695
  23069597.578   -13757553.38743 -10700095.46142  23069599.637    23069598.893
  22646936.388   -16170538.98143 -12591372.28042  22646938.388    22646934.172
  22355556.755   -19695478.28143 -15285814.06242  22355557.416    22355556.221
  23697458.459   -11319259.89743  -8801916.29642  23697460.215    23697458.087
 04  7 18  1  2  0.0000000  0  9G 1G13G27G16G10G 3G23G 8G19
  23058524.865   -12180207.81943  -9435921.75642  23058526.716    23058526.552
  20257529.934   -30074840.81044 -23152317.85042  20257532.460    20257528.694
  21149513.672   -23463087.17944 -18214430.52042  21149515.606    21149513.717
  24762765.826    -4638945.07943  -3521973.77042  24762767.694    24762766.062
  24141480.831    -4720426.27343  -3664580.85042  24141482.563    24141482.115
  23067187.174   -13770220.34743 -10709965.81042  23067189.259    23067188.401
  22663770.340   -16082075.93143 -12522440.07642  22663772.355    22663768.119
  22342167.525   -19765838.90943 -15340640.47942  22342168.198    22342167.011
  23683538.722   -11392407.94243  -8858914.67742  23683540.586    23683538.470
 04  7 18  1  2 30.0000000  0  8G 1G13G27G10G 3G23G 8G19
  23074952.298   -12093881.27843  -9368654.39242  23074954.184    23074954.026
  20259942.948   -30062160.22844 -23142436.88242  20259945.475    20259941.736
  21143891.069   -23492634.11644 -18237454.09742  21143893.004    21143891.089
  24127512.275    -4793831.27643  -3721779.52242  24127513.824    24127513.578
  23064880.271   -13782342.87743 -10719411.92042  23064882.405    23064881.576
  22680654.540   -15993348.74843 -12453302.06642  22680656.619    22680652.426
  22328811.270   -19836026.35043 -15395331.95942  22328811.930    22328810.721
  23669666.571   -11465305.97243  -8915718.27142  23669668.450    23669666.309
 04  7 18  1  3  0.0000000  0  8G 1G13G27G10G 3G23G 8G19
  23091425.901   -12007312.38843  -9301198.17442  23091427.776    23091427.604
  20262442.565   -30049024.65744 -23132201.37542  20262445.104    20262441.367
  21138302.124   -23522004.14044 -18260339.82342  21138304.068    21138302.131
  24113624.080    -4866813.83243  -3778649.00542  24113625.690    24113625.477
  23062677.266   -13793919.78843 -10728432.87142  23062679.325    23062678.520
  22697588.941   -15904358.18243 -12383958.82342  22697590.979    22697586.848
  22315487.934   -19906040.68543 -15449888.53842  22315488.606    22315487.354
  23655842.572   -11537951.02443  -8972324.73042  23655844.482    23655842.373
 04  7 18  1  3 30.0000000  0  8G 1G13G27G10G 3G23G 8G19
  23107945.652   -11920500.83643  -9233552.88242  23107947.546    23107947.351
  20265029.176   -30035432.04744 -23121609.73242  20265031.708    20265027.965
  21132747.050   -23551196.13844 -18283086.82642  21132748.994    21132747.072
  24099816.995    -4939370.60743  -3835186.73142  24099818.578    24099818.354
  23060578.480   -13804948.79443 -10737026.88542  23060580.530    23060579.759
  22714573.394   -15815104.41943 -12314410.49042  22714575.462    22714571.362
  22302198.004   -19975879.75943 -15504308.55042  22302198.628    22302197.371
  23642067.505   -11610339.07943  -9028730.93442  23642069.412    23642067.374
 04  7 18  1  4  0.0000000  0  8G 1G13G27G10G 3G23G 8G19
  23124511.317   -11833448.25943  -9165719.77842  23124513.137    23124512.967
  20267702.697   -30021382.60644 -23110662.11742  20267705.225    20267701.517
  21127225.776   -23580210.68844 -18305695.56242  21127227.711    21127225.783
  24086091.174    -5011499.95043  -3891391.38442  24086092.808    24086092.654
  23058584.001   -13815429.52543 -10745193.67842  23058586.025    23058585.299
  22731607.567   -15725589.43043 -12244658.60242  22731609.602    22731605.556
  22288941.255   -20045544.38943 -15558592.64042  22288941.867    22288940.585
  23628341.920   -11682467.60443  -9084934.92642  23628343.725    23628341.735
 04  7 18  1  4 30.0000000  0  8G 1G13G27G10G 3G23G 8G19
  23141122.539   -11746156.21643  -9097700.07242  23141124.352    23141124.131
  20270463.110   -30006876.43844 -23099358.60942  20270465.644    20270461.936
  21121738.131   -23609048.47144 -18328166.54942  21121740.060    21121738.177
  24072447.167    -5083199.99443  -3947261.51842  24072448.728    24072448.479
  23056693.959   -13825361.66443 -10752932.99142  23056695.957    23056695.279
  22748691.175   -15635814.64743 -12174704.28042  22748693.168    22748689.167
  22275717.591   -20115034.72543 -15612740.91042  22275718.239    22275716.970
  23614666.115   -11754334.25143  -9140934.84742  23614667.848    23614665.894
 04  7 18  1  5  0.0000000  0  8G 1G13G27G10G 3G23G 8G19
  23157779.179   -11658624.83443  -9029493.86142  23157781.039    23157780.856
  20273310.778   -29991911.80544 -23087697.86142  20273313.296    20273309.578
  21116284.294   -23637708.63844 -18350499.13242  21116286.234    21116284.332
  24058885.369    -5154467.33743  -4002794.48242  24058886.994    24058886.783
  23054908.710   -13834743.07343 -10760243.16442  23054910.750    23054910.041
  22765824.146   -15545780.32943 -12104547.73142  22765826.164    22765822.175
  22262527.386   -20184349.53743 -15666752.42142  22262528.036    22262526.733
  23601040.873   -11825935.12843  -9196727.67642  23601042.617    23601040.633
 04  7 18  1  5 30.0000000  0  8G 1G13G27G10G 3G23G 8G19
  23174480.895   -11570857.23743  -8961103.59042  23174482.664    23174482.508
  20276245.378   -29976490.35244 -23075681.14542  20276247.884    20276244.181
  21110863.833   -23666193.21444 -18372694.89742  21110865.770    21110863.881
  24045405.842    -5225301.96143  -4057990.24942  24045407.592    24045407.459
  23053228.066   -13843575.12543 -10767125.26042  23053230.094    23053229.278
  22783005.988   -15455489.74543 -12034191.48742  22783007.978    22783003.951
  22249370.186   -20253490.76743 -15720628.65842  22249370.834    22249369.575
  23587466.424   -11897269.23943  -9252312.62542  23587468.205    23587466.121
 04  7 18  1  6  0.0000000  0  9G 1G13G27G10G28G 3G23G 8G19
  23191226.914   -11482856.47743  -8892531.63442  23191228.674    23191228.550
  20279266.636   -29960613.54644 -23063309.61242  20279269.137    20279265.458
  21105476.359   -23694504.41844 -18394755.56942  21105478.258    21105476.408
  24032008.902    -5295703.51443  -4112848.58442  24032010.579    24032010.302
  24779901.523    -1990439.82653  -1482083.82052  24779903.602    24779904.606
  23051651.602   -13851858.86043 -10773580.10542  23051653.665    23051652.960
  22800235.935   -15364946.27143 -11963638.19142  22800237.983    22800233.884
  22236245.778   -20322460.17143 -15774371.00942  22236246.423    22236245.095
  23573942.774   -11968336.04743  -9307689.30342  23573944.576    23573942.463
 04  7 18  1  6 30.0000000  0  9G 1G13G27G10G28G 3G23G 8G19
  23208019.124   -11394613.01043  -8823770.57342  23208020.858    23208020.778
  20282376.594   -29944270.50444 -23050574.78042  20282379.108    20282375.437
  21100123.876   -23722631.82944 -18416673.02742  21100125.765    21100123.899
  24018696.625    -5365659.45443  -4167359.66742  24018698.343    24018698.155
  24759869.108    -2095710.19243  -1564112.57142  24759871.129    24759872.301
  23050181.871   -13859582.84443 -10779598.79242  23050183.795    23050183.121
  22817515.708   -15274140.74243 -11892880.69742  22817517.774    22817513.671
  22223156.128   -20391246.79243 -15827970.93742  22223156.752    22223155.401
  23560472.569   -12039122.14443  -9362847.22942  23560474.312    23560472.275
 04  7 18  1  7  0.0000000  0  9G 1G13G27G10G28G 3G23G 8G19
  23224855.253   -11306138.39443  -8754829.37842  23224857.071    23224856.939
  20285573.445   -29927471.16044 -23037484.38742  20285575.922    20285572.236
  21094804.413   -23750585.91744 -18438455.42442  21094806.312    21094804.385
  24005467.800    -5435178.12443  -4221530.01642  24005469.387    24005469.246
  24739853.390    -2200892.84343  -1646072.95542  24739855.509    24739856.569
  23048816.656   -13866756.85543 -10785188.91542  23048818.616    23048817.984
  22834843.111   -15183084.80443 -11821928.07442  22834845.207    22834841.061
  22210099.261   -20459861.04143 -15881436.54242  22210099.892    22210098.522
  23547054.484   -12109634.86743  -9417792.13642  23547056.173    23547054.136
 04  7 18  1  7 30.0000000  0  9G 1G13G27G10G28G 3G23G 8G19
  23241737.063   -11217424.05543  -8685701.38042  23241738.932    23241738.701
  20288859.041   -29910205.29144 -23024030.46642  20288861.530    20288857.824
  21089519.750   -23778357.07444 -18460095.28342  21089521.669    21089519.672
  23992324.274    -5504247.75743  -4275350.46942  23992325.717    23992325.708
  24719856.609    -2305976.31843  -1727956.04142  24719858.731    24719859.798
  23047558.120   -13873370.67743 -10790342.53742  23047560.047    23047559.373
  22852219.730   -15091770.01243 -11750773.74042  22852221.791    22852217.682
  22197077.102   -20528292.83443 -15934759.98142  22197077.738    22197076.339
  23533690.752   -12179861.90043  -9472514.44042  23533692.415    23533690.271
 04  7 18  1  8  0.0000000  0  9G 1G13G27G10G28G 3G23G 8G19
  23258662.322   -11128481.98243  -8616395.93442  23258664.104    23258663.814
  20292231.361   -29892483.47944 -23010221.26442  20292233.863    20292230.169
  21084267.727   -23805956.43544 -18481601.27242  21084269.679    21084267.679
  23979264.490    -5572876.87443  -4328827.66742  23979265.971    23979265.924
  24699876.944    -2410969.73443  -1809768.98242  24699879.127    24699880.029
  23046404.307   -13879434.21643 -10795067.34742  23046406.230    23046405.522
  22869643.292   -15000208.58043 -11679427.22142  22869645.379    22869641.304
  22184087.547   -20596553.30643 -15987949.92442  22184088.213    22184086.764
  23520379.836   -12249811.16843  -9527020.29542  23520381.500    23520379.324
 04  7 18  1  8 30.0000000  0  9G 1G13G27G10G28G 3G23G 8G19
  23275632.212   -11039304.87843  -8546907.37442  23275633.951    23275633.716
  20295692.159   -29874296.68544 -22996049.73842  20295694.668    20295691.021
  21079050.031   -23833375.46944 -18502966.74242  21079051.987    21079050.034
  23966290.573    -5641055.02743  -4381953.43542  23966292.116    23966292.034
  24679916.338    -2515862.93543  -1891503.80442  24679918.543    24679919.350
  23045357.004   -13884937.96743 -10799355.97842  23045358.979    23045358.146
  22887115.239   -14908393.24943 -11607882.86242  22887117.303    22887113.177
  22171132.332   -20664633.07843 -16040999.05242  22171133.017    22171131.598
  23507123.862   -12319471.36143  -9581300.89142  23507125.563    23507123.370
 04  7 18  1  9  0.0000000  0  9G 1G13G27G10G28G 3G23G 8G19
  23292646.071   -10949896.39443  -8477238.49042  23292647.804    23292647.675
  20299241.080   -29855647.16944 -22981517.65542  20299243.585    20299239.937
  21073866.087   -23860617.16944 -18524194.03442  21073868.028    21073866.137
  23953402.385    -5708782.81443  -4434728.28742  23953403.955    23953403.845
  24659974.553    -2620656.86143  -1973161.26042  24659976.726    24659977.611
  23044415.736   -13889884.22443 -10803210.18742  23044417.749    23044416.846
  22904634.778   -14816328.09043 -11536143.83442  22904636.846    22904632.646
  22158210.979   -20732534.82843 -16093909.46542  22158211.691    22158210.297
  23493922.926   -12388842.33943  -9635356.14842  23493924.627    23493922.456
 04  7 18  1  9 30.0000000  0  9G 1G13G27G10G28G 3G23G 8G19
  23309703.354   -10860260.03543  -8407392.04642  23309705.101    23309704.978
  20302877.619   -29836536.96544 -22966626.59342  20302880.157    20302876.508
  21068715.536   -23887683.60744 -18545284.75842  21068717.456    21068715.559
  23940599.854    -5776060.25143  -4487152.21342  23940601.436    23940601.211
  24640051.590    -2725352.20143  -2054741.90742  24640053.741    24640054.560
  23043580.325   -13894274.48943 -10806631.16942  23043582.303    23043581.419
  22922201.200   -14724016.68343 -11464212.92542  22922203.268    22922198.958
  22145323.118   -20800260.97243 -16146683.04742  22145323.791    22145322.370
  23480777.051   -12457923.50143  -9689185.56642  23480778.786    23480776.633
 04  7 18  1 10  0.0000000  0  9G 1G13G27G10G28G 3G23G 8G19
  23326804.493   -10770393.22643  -8337366.02642  23326806.268    23326806.251
  20306602.556   -29816962.19244 -22951373.52742  20306605.071    20306601.490
  21063598.921   -23914571.44844 -18566236.31742  21063600.848    21063598.967
  23927884.229    -5842881.64143  -4539220.79842  23927885.788    23927885.441
  24620148.448    -2829943.46343  -2136241.43942  24620150.746    24620151.480
  23042851.436   -13898104.62643 -10809615.67442  23042853.429    23042852.566
  22939814.776   -14631456.78943 -11392088.39642  22939816.932    22939812.570
  22132469.449   -20867807.25743 -16199316.48042  22132470.133    22132468.699
  23467687.623   -12526708.42843  -9742784.15342  23467689.295    23467687.248
 04  7 18  1 10 30.0000000  0  9G 1G13G27G10G28G 3G23G 8G19
  23343948.871   -10680299.07143  -8267162.85442  23343950.617    23343950.666
  20310415.670   -29796924.18044 -22935759.50042  20310418.180    20310414.610
  21058515.980   -23941282.52944 -18587050.14042  21058517.883    21058516.014
  23915255.283    -5909246.70543  -4590933.77442  23915256.884    23915256.558
  24600265.138    -2934430.88643  -2217660.05542  24600267.431    24600268.128
  23042228.983   -13901375.75043 -10812164.58742  23042230.969    23042230.061
  22957475.044   -14538651.44043 -11319772.59542  22957477.248    22957472.887
  22119649.659   -20935175.71643 -16251811.35042  22119650.305    22119648.842
  23454654.819   -12595196.33443  -9796151.29242  23454656.451    23454654.287
 04  7 18  1 11  0.0000000  0  9G 1G13G27G10G28G 3G23G 8G19
  23361136.609   -10589977.23843  -8196782.30442  23361138.361    23361138.429
  20314317.324   -29776421.02544 -22919783.02642  20314319.825    20314316.235
  21053466.943   -23967815.37044 -18607725.07742  21053468.848    21053466.981
  23902713.955    -5975151.99943  -4642288.51442  23902715.582    23902715.079
  24580402.078    -3038811.06543  -2298995.10042  24580404.368    24580405.064
  23041713.297   -13904085.56043 -10814276.11542  23041715.313    23041714.433
  22975182.048   -14445600.47943 -11247265.41442  22975184.235    22975179.930
  22106863.991   -21002364.40543 -16304166.12842  22106864.683    22106863.231
  23441679.404   -12663382.67743  -9849283.45642  23441680.991    23441678.771
 04  7 18  1 11 30.0000000  0  9G 1G13G27G10G28G 3G23G 8G19
  23378366.855   -10499432.01743  -8126227.66942  23378368.576    23378368.657
  20318306.952   -29755455.49544 -22903446.25542  20318309.430    20318305.875
  21048451.185   -23994173.19144 -18628263.63242  21048453.122    21048451.255
  23890259.876    -6040598.49043  -4693285.73842  23890261.468    23890260.992
  24560559.138    -3143085.70543  -2380247.91942  24560561.341    24560562.095
  23041303.908   -13906237.02543 -10815952.58542  23041305.909    23041305.020
  22992934.976   -14352308.29843 -11174570.27342  22992937.189    22992932.892
  22094112.091   -21069376.12343 -16356383.01942  22094112.746    22094111.274
  23428761.177   -12731267.83943  -9902180.93542  23428762.812    23428760.571
 04  7 18  1 12  0.0000000  0  9G 1G13G27G10G28G 3G23G 8G19
  23395640.208   -10408659.87943  -8055496.21242  23395642.015    23395642.056
  20322385.425   -29734022.96844 -22886745.59142  20322387.910    20322384.364
  21043469.629   -24020351.53344 -18648662.33942  21043471.547    21043469.664
  23877894.299    -6105579.71543  -4743920.41742  23877895.854    23877895.396
  24540737.603    -3247248.09443  -2461413.26442  24540739.889    24540740.487
  23041001.790   -13907824.79643 -10817189.79242  23041003.829    23041002.832
  23010734.448   -14258771.94443 -11101684.86942  23010736.587    23010732.357
  22081394.774   -21136206.11143 -16408458.30742  22081395.421    22081393.884
  23415901.737   -12798844.41243  -9954837.94642  23415903.370    23415901.198
 04  7 18  1 12 30.0000000  0  9G 1G13G27G10G28G 3G23G 8G19
  23412955.714   -10317666.49443  -7984592.37042  23412957.586    23412957.608
  20326552.068   -29712127.13644 -22869683.91642  20326554.552    20326551.002
  21038521.369   -24046354.76244 -18668924.59542  21038523.295    21038521.394
  23865616.904    -6170097.93043  -4794194.31542  23865618.287    23865618.049
  24520936.915    -3351301.06943  -2542493.37642  24520939.183    24520939.659
  23040806.105   -13908852.72843 -10817990.76942  23040808.143    23040807.180
  23028579.251   -14164996.93743 -11028613.51042  23028581.444    23028577.233
  22068711.269   -21202858.28143 -16460395.02842  22068711.904    22068710.415
  23403100.716   -12866114.06843 -10007255.80942  23403102.336    23403100.150
 04  7 18  1 13  0.0000000  0  9G 1G13G27G10G28G 3G23G 8G19
  23430313.828   -10226449.93343  -7913514.63342  23430315.592    23430315.622
  20330807.469   -29689764.87844 -22852258.78942  20330809.954    20330806.364
  21033606.974   -24072179.96944 -18689048.12742  21033608.890    21033607.027
  23853428.552    -6234148.21843  -4844103.58542  23853429.928    23853429.621
  24501157.887    -3455240.14943  -2623484.73842  24501160.109    24501160.394
  23040717.774   -13909317.19843 -10818352.68342  23040719.723    23040718.797
  23046469.854   -14070981.63743 -10955354.89642  23046472.005    23046467.812
  22056062.124   -21269329.42843 -16512190.68742  22056062.782    22056061.360
  23390359.206   -12933070.90643 -10059429.90342  23390360.850    23390358.631
 04  7 18  1 13 30.0000000  0  9G 1G13G27G10G28G 3G23G 8G19
  23447714.199   -10135010.89143  -7842263.51142  23447715.974    23447715.922
  20335151.765   -29666935.42344 -22834469.61342  20335154.246    20335150.669
  21028726.605   -24097826.69644 -18709032.58342  21028728.498    21028726.604
  23841329.749    -6297727.90943  -4893646.18142  23841331.112    23841330.656
  24481401.015    -3559062.94143  -2704385.48242  24481403.125    24481403.375
  23040736.666   -13909217.25443 -10818274.79442  23040738.671    23040737.807
  23064406.046   -13976726.81743 -10881909.64542  23064408.093    23064403.987
  22043447.612   -21335619.18143 -16563845.01042  22043448.245    22043446.809
  23377677.860   -12999711.53143 -10111357.62142  23377679.523    23377677.205
 04  7 18  1 14  0.0000000  0  9G 1G13G27G10G28G 3G23G 8G19
  23465156.342   -10043352.46343  -7770841.44742  23465158.091    23465158.046
  20339584.727   -29643640.24144 -22816317.53342  20339587.194    20339583.611
  21023879.814   -24123296.74944 -18728879.37142  21023881.727    21023879.804
  23829320.430    -6360836.84343  -4942821.92742  23829321.828    23829321.433
  24461666.222    -3662769.55743  -2785195.70942  24461668.399    24461668.641
  23040862.873   -13908554.05043 -10817758.00442  23040864.860    23040864.019
  23082387.166   -13882235.82043 -10808280.35642  23082389.166    23082385.094
  22030867.383   -21401728.62243 -16615358.83242  22030868.003    22030866.548
  23365056.829   -13066035.27643 -10163038.40842  23365058.582    23365056.108
 04  7 18  1 14 30.0000000  0  9G 1G13G27G10G28G 3G23G 8G19
  23482640.021    -9951475.20243  -7699248.87042  23482641.787    23482641.799
  20344106.477   -29619878.53444 -22797801.92842  20344108.933    20344105.305
  21019066.756   -24148589.58944 -18748588.07342  21019068.688    21019066.720
  23817401.293    -6423472.39743  -4991628.83342  23817402.640    23817402.200
  24441954.035    -3766357.52943  -2865913.49342  24441956.203    24441956.459
  23041096.328   -13907326.70843 -10816801.63942  23041098.372    23041097.492
  23100413.095   -13787509.09643 -10734467.38542  23100415.104    23100411.075
  22018321.501   -21467657.52543 -16666731.97742  22018322.116    22018320.645
  23352496.762   -13132038.45543 -10214469.39142  23352498.509    23352496.068
 04  7 18  1 15  0.0000000  0  9G 1G13G27G10G28G 3G23G 8G19
  23500165.406    -9859379.05143  -7627485.72342  23500167.202    23500167.192
  20348717.127   -29595649.11444 -22778921.86942  20348719.611    20348716.025
  21014287.577   -24173704.33744 -18768158.00542  21014289.502    21014287.521
  23805572.676    -6485631.57243  -5040064.51242  23805574.140    23805573.671
  24422264.893    -3869824.51343  -2946536.98742  24422267.029    24422267.175
  23041437.432   -13905533.96143 -10815404.67942  23041439.415    23041438.594
  23118483.713   -13692547.57943 -10660471.46942  23118485.716    23118481.672
  22005810.297   -21533403.87443 -16717962.86742  22005810.943    22005809.524
  23339998.374   -13197717.56443 -10265647.87742  23340000.128    23339997.643
 04  7 18  1 15 30.0000000  0  9G 1G13G27G10G28G 3G23G 8G19
  23517731.890    -9767066.78043  -7555554.16842  23517733.747    23517733.718
  20353416.617   -29570953.04744 -22759678.18942  20353419.099    20353415.527
  21009542.014   -24198642.35244 -18787590.22442  21009543.944    21009541.965
  23793834.841    -6547314.07143  -5088128.75942  23793836.389    23793835.830
  24402598.746    -3973170.00643  -3027065.82742  24402600.994    24402601.081
  23041886.135   -13903176.64843 -10813567.81742  23041888.024    23041887.154
  23136598.451   -13597353.96743 -10586294.70042  23136600.483    23136596.527
  21993333.610   -21598969.32943 -16769052.80842  21993334.229    21993332.858
  23327561.993   -13263071.15943 -10316572.70642  23327563.744    23327561.219
 04  7 18  1 16  0.0000000  0  9G 1G13G27G10G28G 3G23G 8G19
  23535339.408    -9674539.07843  -7483454.74842  23535341.256    23535341.374
  20358205.104   -29545789.40344 -22740070.16042  20358207.592    20358204.000
  21004830.264   -24223402.94544 -18806884.18442  21004832.163    21004830.185
  23782188.323    -6608517.33443  -5135819.57142  23782189.858    23782189.178
  24382956.217    -4076391.63143  -3107498.12842  24382958.393    24382958.403
  23042442.391   -13900253.67143 -10811290.15242  23042444.293    23042443.414
  23154757.301   -13501928.73843 -10511937.45942  23154759.320    23154755.487
  21980891.460   -21664353.04543 -16820001.12942  21980892.119    21980890.717
  23315188.313   -13328095.83443 -10367241.22342  23315189.951    23315187.341
 04  7 18  1 16 30.0000000  0  9G 1G13G27G10G28G 3G23G 8G19
  23552987.945    -9581795.57743  -7411187.18642  23552989.764    23552990.002
  20363082.871   -29520156.66044 -22720096.60242  20363085.371    20363081.751
  21000152.494   -24247984.78644 -18826038.86042  21000154.409    21000152.418
  23770633.555    -6669237.74543  -5183134.15642  23770635.069    23770634.495
  24363337.779    -4179486.30243  -3187831.52142  24363340.052    24363340.047
  23043106.583   -13896763.33243 -10808570.40542  23043108.479    23043107.596
  23172960.333   -13406271.72643 -10437399.59142  23172962.341    23172958.516
  21968484.262   -21729553.14843 -16870806.38042  21968484.931    21968483.532
  23302877.815   -13392787.37643 -10417650.15642  23302879.499    23302876.927
 04  7 18  1 17  0.0000000  0  9G 1G13G27G10G28G 3G23G 8G19
  23570677.140    -9488838.52143  -7338753.19142  23570678.925    23570679.192
  20368049.731   -29494055.57244 -22699758.10042  20368052.243    20368048.611
  20995508.537   -24272388.86544 -18845055.01942  20995510.463    20995508.472
  23759170.832    -6729474.63243  -5230071.96842  23759172.352    23759171.778
  24343743.598    -4282453.38343  -3268065.51542  24343745.931    24343745.998
  23043878.517   -13892706.38943 -10805409.13642  23043880.475    23043879.640
  23191206.925   -13310385.48843 -10362683.10942  23191208.976    23191205.155
  21956111.890   -21794570.36143 -16921469.11542  21956112.523    21956111.100
  23290631.077   -13457144.08343 -10467798.16942  23290632.819    23290630.260
 04  7 18  1 17 30.0000000  0  9G 1G13G27G10G28G 3G23G 8G19
  23588406.571    -9395669.93243  -7266154.39742  23588408.407    23588408.713
  20373105.646   -29467486.71944 -22679055.10342  20373108.145    20373104.511
  20990898.297   -24296615.88644 -18863933.21442  20990900.224    20990898.219
  23747800.367    -6789226.82143  -5276632.08042  23747801.849    23747801.452
  24324173.978    -4385292.00943  -3348199.39042  24324176.223    24324176.322
  23044758.302   -13888083.32843 -10801806.75942  23044760.171    23044759.368
  23209496.789   -13214272.29443 -10287789.78842  23209498.817    23209494.971
  21943774.193   -21859405.28043 -16971989.80242  21943774.820    21943773.375
  23278448.422   -13521164.06743 -10517683.81542  23278450.190    23278447.638
 04  7 18  1 18  0.0000000  0  9G 1G13G27G10G28G 3G23G 8G19
  23606176.324    -9302289.83143  -7193390.75342  23606178.108    23606178.406
  20378250.815   -29440448.81144 -22657986.61342  20378253.306    20378249.656
  20986321.994   -24320664.56644 -18882672.43642  20986323.927    20986321.898
  23736522.716    -6848491.19943  -5322812.08442  23736524.222    23736523.907
  24304629.335    -4487999.09943  -3428230.78542  24304631.558    24304631.645
  23045746.005   -13882892.43543 -10797761.89642  23045747.983    23045747.201
  23227829.746   -13117932.17643 -10212719.63242  23227831.758    23227827.921
  21931471.548   -21924056.25143 -17022367.15542  21931472.127    21931470.702
  23266330.643   -13584843.36143 -10567304.00242  23266332.380    23266329.835
 04  7 18  1 18 30.0000000  0  9G 1G13G27G10G28G 3G23G 8G19
  23623985.986    -9208699.74943  -7120463.52042  23623987.802    23623988.099
  20383485.185   -29412941.88144 -22636552.64542  20383487.707    20383484.084
  20981779.480   -24344535.36144 -18901273.03942  20981781.449    20981779.421
  23725338.123    -6907266.04243  -5368610.63642  23725339.670    23725339.452
  24285110.094    -4590573.27243  -3508158.60942  24285112.259    24285112.317
  23046841.847   -13877133.88043 -10793274.71442  23046843.799    23046842.990
  23246205.521   -13021366.88143 -10137474.02242  23246207.549    23246203.745
  21919203.873   -21988523.30143 -17072601.19442  21919204.437    21919202.971
  23254278.132   -13648179.32843 -10616656.64942  23254279.890    23254277.427
 04  7 18  1 19  0.0000000  0  9G 1G13G27G10G28G 3G23G 8G19
  23641835.239    -9114901.61243  -7047374.14342  23641837.052    23641837.417
  20388808.657   -29384966.66744 -22614753.78242  20388811.198    20388807.598
  20977270.792   -24368228.73044 -18919735.39242  20977272.756    20977270.725
  23714246.988    -6965550.15343  -5414026.79042  23714248.592    23714248.294
  24265616.243    -4693013.55743  -3587982.11542  24265618.435    24265618.431
  23048045.611   -13870808.28443 -10788345.67542  23048047.503    23048046.693
  23264623.787   -12924578.58543 -10062054.64642  23264625.805    23264621.991
  21906971.094   -22052806.99343 -17122692.35842  21906971.651    21906970.143
  23242291.304   -13711170.11843 -10665740.30942  23242293.083    23242290.653
 04  7 18  1 19 30.0000000  0  9G 1G13G27G10G28G 3G23G 8G19
  23659723.950    -9020896.35743  -6974123.41342  23659725.650    23659726.132
  20394221.396   -29356522.60044 -22592589.58442  20394223.926    20394220.333
  20972795.857   -24391744.65344 -18938059.47442  20972797.805    20972795.789
  23703249.544    -7023341.65843  -5459059.11242  23703251.178    23703250.843
  24246148.234    -4795318.00243  -3667699.76542  24246150.453    24246150.410
  23049357.337   -13863915.12343 -10782974.37842  23049359.236    23049358.474
  23283084.214   -12827568.55443  -9986462.49542  23283086.269    23283082.417
  21894773.275   -22116906.80843 -17172640.23842  21894773.843    21894772.314
  23230370.772   -13773812.98143 -10714552.88242  23230372.498    23230370.002
 04  7 18  1 20  0.0000000  0  9G 1G13G27G10G28G 3G23G 8G19
  23677652.278    -8926682.60543  -6900710.17242  23677654.059    23677654.545
  20399723.866   -29327606.96544 -22570057.92342  20399726.402    20399722.796
  20968355.250   -24415080.14744 -18956242.96242  20968357.211    20968355.189
  23692346.821    -7080635.86943  -5503703.92442  23692348.375    23692348.038
  24226706.910    -4897482.45943  -3747308.33742  24226709.109    24226709.171
  23050777.585   -13856451.23243 -10777158.34942  23050779.545    23050778.861
  23301587.181   -12730335.25543  -9910696.37242  23301589.238    23301585.396
  21882611.035   -22180819.78143 -17222442.53042  21882611.630    21882609.991
  23218517.446   -13836102.32143 -10763089.98042  23218519.248    23218516.692
 04  7 18  1 20 30.0000000  0  9G 1G13G27G10G28G 3G23G 8G19
  23695619.429    -8832264.55843  -6827137.76342  23695621.259    23695621.793
  20405315.498   -29298222.61244 -22547161.02942  20405318.043    20405314.440
  20963948.397   -24438238.35344 -18974288.30642  20963950.361    20963948.343
  23681538.460    -7137434.11143  -5547962.26642  23681539.965    23681539.616
  24207291.997    -4999507.92043  -3826808.58242  24207294.126    24207294.371
  23052305.977   -13848419.42143 -10770899.79242  23052307.907    23052307.280
  23320131.679   -12632883.05343  -9834759.67742  23320133.751    23320130.010
  21870483.849   -22244548.42643 -17272101.18442  21870484.427    21870482.822
  23206731.353   -13898038.35743 -10811351.76542  23206733.215    23206730.579
 04  7 18  1 21  0.0000000  0  9G 1G13G27G10G28G 3G23G 8G19
  23713625.443    -8737642.90243  -6753406.69642  23713627.245    23713627.797
  20410996.540   -29268368.68744 -22523898.23942  20410999.072    20410995.445
  20959575.414   -24461218.45344 -18992194.86742  20959577.388    20959575.348
  23670825.008    -7193733.89643  -5591832.20142  23670826.501    23670826.028
  24187904.030    -5101392.14843  -3906198.78042  24187906.134    24187906.411
  23053942.562   -13839819.00943 -10764198.17042  23053944.529    23053943.827
  23338717.698   -12535213.03743  -9758653.25942  23338719.750    23338716.137
  21858391.876   -22308091.83943 -17321615.51242  21858392.498    21858390.861
  23195013.194   -13959617.81243 -10859335.70042  23195014.972    23195012.266
 04  7 18  1 21 30.0000000  0  9G 1G13G27G10G28G 3G23G 8G19
  23731670.224    -8642817.41143  -6679516.78942  23731671.953    23731672.601
  20416767.176   -29238043.80544 -22500268.46542  20416769.721    20416766.086
  20955236.575   -24484019.09444 -19009961.59042  20955238.562    20955236.521
  23660206.905    -7249532.01443  -5635311.22242  23660208.424    23660208.006
  24168543.446    -5203131.91743  -3985476.41842  24168545.576    24168545.874
  23055687.702   -13830648.59743 -10757052.39942  23055689.646    23055688.827
  23357345.253   -12437324.94843  -9682376.89642  23357347.237    23357343.663
  21846335.541   -22371448.33743 -17370984.18642  21846336.128    21846334.501
  23183363.590   -14020836.40943 -10907038.44642  23183365.353    23183362.701
 04  7 18  1 22  0.0000000  0  9G 1G13G27G10G28G 3G23G 8G19
  23749752.911    -8547792.65443  -6605471.61842  23749754.569    23749755.362
  20422626.823   -29207251.12344 -22476274.17642  20422629.387    20422625.736
  20950931.351   -24506643.12244 -19027590.69442  20950933.322    20950931.312
  23649684.174    -7304829.70843  -5678400.30842  23649685.660    23649685.109
  24149210.119    -5304728.98343  -4064642.84842  24149212.133    24149212.525
  23057540.612   -13820911.15943 -10749464.78842  23057542.632    23057541.810
  23376013.395   -12339223.42443  -9605934.21242  23376015.352    23376011.739
  21834314.222   -22434620.75643 -17420209.42642  21834314.801    21834313.194
  23171782.466   -14081694.92043 -10954460.61342  23171784.207    23171781.676
 04  7 18  1 22 30.0000000  0  9G 1G13G27G10G28G 3G23G 8G19
  23767873.994    -8452565.82143  -6531268.99242  23767875.681    23767876.444
  20428576.336   -29175986.16844 -22451911.88442  20428578.892    20428575.280
  20946660.450   -24529086.66444 -19045079.15942  20946662.430    20946660.416
  23639257.671    -7359621.29143  -5721095.02242  23639259.256    23639258.535
  24129905.098    -5406177.40343  -4143693.45042  24129907.021    24129907.344
  23059502.381   -13810602.36743 -10741431.95842  23059504.368    23059503.598
  23394722.664   -12240905.97943  -9529323.29642  23394724.611    23394721.001
  21822328.688   -22497605.08643 -17469288.10042  21822329.267    21822327.657
  23160271.327   -14142186.46043 -11001596.83942  23160272.997    23160270.482
 04  7 18  1 23  0.0000000  0  9G 1G13G27G10G28G 3G23G 8G19
  23786032.862    -8357141.18843  -6456912.22942  23786034.459    23786035.249
  20434615.113   -29144252.28244 -22427184.19142  20434617.666    20434614.052
  20942423.324   -24551352.75044 -19062429.34342  20942425.288    20942423.292
  23628927.158    -7413908.24943  -5763396.53742  23628928.754    23628928.110
  24110627.977    -5507479.00843  -4222629.65742  24110629.942    24110630.107
  23061572.130   -13799725.45943 -10732956.43542  23061574.161    23061573.400
  23413472.166   -12142377.19643  -9452547.69042  23413474.105    23413470.424
  21810378.447   -22560403.81143 -17518222.14742  21810379.040    21810377.453
  23148829.806   -14202311.73743 -11048447.64342  23148831.535    23148828.984
 04  7 18  1 23 30.0000000  0  9G 1G13G27G10G28G 3G23G 8G19
  23804229.067    -8261519.35143  -6382401.80142  23804230.762    23804231.550
  20440743.168   -29112049.09444 -22402090.80642  20440745.725    20440742.123
  20938220.138   -24573440.64344 -19079640.67842  20938222.091    20938220.077
  23618693.123    -7467688.08443  -5805302.86342  23618694.694    23618694.133
  24091379.264    -5608631.12143  -4301449.36642  24091381.307    24091381.388
  23063750.219   -13788279.84443 -10724037.77242  23063752.190    23063751.385
  23432261.733   -12043637.75643  -9375607.94342  23432263.689    23432259.941
  21798463.665   -22623016.33343 -17567011.10542  21798464.264    21798462.705
  23137458.722   -14262067.22043 -11095010.31642  23137460.461    23137457.824
 04  7 18  1 24  0.0000000  0  9G 1G13G27G10G28G 3G23G 8G19
  23822462.974    -8165699.80843  -6307737.29942  23822464.599    23822465.477
  20446960.943   -29079374.33644 -22376629.97042  20446963.489    20446959.931
  20934051.259   -24595348.27244 -19096711.54342  20934053.210    20934051.191
  23608556.417    -7520956.93743  -5846811.02342  23608557.989    23608557.382
  24072159.748    -5709630.08443  -4380149.74442  24072161.783    24072161.824
  23066036.863   -13776263.46043 -10714674.35642  23066038.833    23066037.968
  23451091.421   -11944687.06443  -9298503.58542  23451093.398    23451089.721
  21786584.933   -22685439.72243 -17615652.69242  21786585.503    21786583.921
  23126158.791   -14321448.34843 -11141281.26042  23126160.628    23126157.866
 04  7 18  1 24 30.0000000  0  9G 1G13G27G10G28G 3G23G 8G19
  23840734.544    -8069682.54243  -6232918.74942  23840736.282    23840736.974
  20453268.707   -29046226.81744 -22350800.75142  20453271.239    20453267.720
  20929916.949   -24617074.26044 -19113640.87742  20929918.901    20929916.886
  23598517.386    -7573712.19443  -5887918.98542  23598518.995    23598518.396
  24052969.878    -5810473.19943  -4458728.67542  24052971.957    24052971.913
  23068432.396   -13763674.97443 -10704865.14842  23068434.337    23068433.526
  23469961.192   -11845525.72843  -9221235.09342  23469963.163    23469959.624
  21774742.300   -22747672.81643 -17664145.98742  21774742.914    21774741.381
  23114930.850   -14380451.37543 -11187257.59742  23114932.658    23114929.884
 04  7 18  1 25  0.0000000  0  9G 1G13G27G10G28G 3G23G 8G19
  23859042.741    -7973472.88743  -6157950.28942  23859044.492    23859045.133
  20459665.670   -29012610.56144 -22324606.27642  20459668.203    20459664.699
  20925816.419   -24638622.66844 -19130431.84142  20925818.364    20925816.371
  23588575.631    -7625956.21743  -5928628.60442  23588577.205    23588576.668
  24033809.223    -5911162.84843  -4537188.02942  24033811.368    24033811.193
  23070935.952   -13750518.78343 -10694613.57542  23070937.907    23070937.042
  23488870.045   -11746159.15843  -9143806.68542  23488872.040    23488868.552
  21762935.246   -22809719.31943 -17712493.89342  21762935.867    21762934.308
  23103774.566   -14439077.65843 -11232940.36842  23103776.346    23103773.618
 04  7 18  1 25 30.0000000  0  9G 1G13G27G10G28G 3G23G 8G19
  23877387.424    -7877071.59743  -6082832.51142  23877389.211    23877389.717
  20466151.924   -28978525.07344 -22298046.16742  20466154.438    20466150.980
  20921749.821   -24659992.81644 -19147083.89742  20921751.740    20921749.754
  23578731.625    -7677686.71543  -5968938.06042  23578733.196    23578732.687
  24014678.226    -6011696.71643  -4615525.98142  24014680.372    24014680.123
  23073547.665   -13736794.13043 -10683919.04442  23073549.663    23073548.698
  23507817.853   -11646587.98443  -9066218.85542  23507819.805    23507816.421
  21751163.787   -22871578.36943 -17760695.73042  21751164.446    21751162.862
  23092690.577   -14497323.93643 -11278327.01842  23092692.312    23092689.702
 04  7 18  1 26  0.0000000  0  9G 1G13G27G10G28G 3G23G 8G19
  23895768.352    -7780479.42743  -6007565.98742  23895770.138    23895770.780
  20472727.583   -28943969.83844 -22271120.01842  20472730.081    20472726.609
  20917717.281   -24681183.87044 -19163596.39442  20917719.216    20917717.198
  23568985.782    -7728901.50343  -6008845.66442  23568987.368    23568986.770
  23995577.268    -6112072.80543  -4693741.01142  23995579.447    23995579.057
  23076267.712   -13722500.41943 -10672781.08542  23076269.696    23076268.618
  23526804.488   -11546813.10543  -8988472.29342  23526806.364    23526803.013
  21739428.200   -22933249.48243 -17808751.12242  21739428.815    21739427.252
  23081679.585   -14555187.16743 -11323415.20542  23081681.255    23081678.710
 04  7 18  1 26 30.0000000  0  9G 1G13G27G10G28G 3G23G 8G19
  23914185.905    -7683694.53543  -5932149.29142  23914187.729    23914188.314
  20479393.268   -28908941.52144 -22243825.23442  20479395.786    20479392.255
  20913719.429   -24702192.71444 -19179966.90942  20913721.375    20913719.323
  23559338.964    -7779595.83043  -6048347.71042  23559340.504    23559339.915
  23976507.220    -6212286.03543  -4771829.12842  23976509.490    23976508.938
  23079096.524   -13707634.68043 -10661197.39842  23079098.539    23079097.512
  23545830.172   -11446832.86543  -8910565.69242  23545832.102    23545828.618
  21727729.101   -22994728.31443 -17856656.67942  21727729.744    21727728.160
  23070742.578   -14612661.69343 -11368200.50542  23070744.267    23070741.599
 04  7 18  1 27  0.0000000  0  9G 1G13G27G10G28G 3G23G 8G19
  23932638.901    -7586724.52443  -5856588.35642  23932640.596    23932641.229
  20486147.673   -28873446.69444 -22216166.93642  20486150.205    20486146.706
  20909755.108   -24723025.31544 -19196200.10042  20909757.066    20909755.008
  23549790.267    -7829774.21243  -6087447.71442  23549791.845    23549791.285
  23957467.293    -6312340.96943  -4849793.90842  23957469.579    23957468.964
  23082033.034   -13692203.35943 -10649172.97642  23082035.024    23082034.024
  23564893.422   -11346655.07043  -8832505.15842  23564895.411    23564891.959
  21716065.462   -23056021.14543 -17904417.31142  21716066.088    21716064.471
  23059878.820   -14669751.11943 -11412685.71642  23059880.503    23059877.786
 04  7 18  1 27 30.0000000  0  9G 1G13G27G10G28G 3G23G 8G19
  23951128.496    -7489561.95943  -5780877.38042  23951130.143    23951130.793
  20492992.554   -28837476.62544 -22188138.32042  20492995.084    20492991.609
  20905826.008   -24743672.94944 -19212289.15542  20905827.945    20905825.909
  23540341.751    -7879426.29443  -6126137.61442  23540343.351    23540342.735
  23938459.473    -6412227.31143  -4927627.32042  23938461.783    23938461.147
  23085078.731   -13676197.92443 -10636701.20642  23085080.761    23085079.760
  23583995.743   -11246272.43943  -8754285.04342  23583997.721    23583994.295
  21704438.867   -23117119.10843 -17952026.08942  21704439.477    21704437.897
  23049090.537   -14726443.96743 -11456861.90842  23049092.200    23049089.434
 04  7 18  1 28  0.0000000  0  9G 1G13G27G10G28G 3G23G 8G19
  23969652.951    -7392215.77243  -5705023.31042  23969654.606    23969655.137
  20499926.399   -28801039.03144 -22159745.40042  20499928.937    20499925.482
  20901930.679   -24764142.94844 -19228239.79742  20901932.613    20901930.588
  23530992.210    -7928557.99443  -6164422.04142  23530993.935    23530993.274
  23919482.589    -6511951.08043  -5005334.05642  23919484.979    23919484.134
  23088232.257   -13659626.13243 -10623788.12442  23088234.267    23088233.208
  23603135.307   -11145694.07243  -8675912.37742  23603137.204    23603133.821
  21692848.032   -23178029.29543 -17999488.55342  21692848.619    21692847.025
  23038376.726   -14782745.26843 -11500733.01342  23038378.392    23038375.597
 04  7 18  1 28 30.0000000  0  9G 1G13G27G10G28G 3G23G 8G19
  23988212.396    -7294685.84543  -5629026.08642  23988213.947    23988214.592
  20506949.418   -28764132.70044 -22130987.23042  20506951.946    20506948.543
  20898069.437   -24784433.74544 -19244050.80442  20898071.389    20898069.366
  23521742.324    -7977166.23943  -6202298.55842  23521743.980    23521743.347
  23900537.246    -6611509.17243  -5082911.69542  23900539.601    23900538.789
  23091493.881   -13642486.50943 -10610432.57042  23091495.817    23091494.762
  23622311.951   -11044919.86543  -8597387.10642  23622313.924    23622310.661
  21681293.251   -23238750.01743 -18046803.37642  21681293.834    21681292.246
  23027738.165   -14838651.10643 -11544295.94942  23027739.822    23027737.010
 04  7 18  1 29  0.0000000  0  9G 1G13G27G10G28G 3G23G 8G19
  24006807.333    -7196969.10443  -5552883.29942  24006808.881    24006809.626
  20514062.501   -28726753.32344 -22101860.44942  20514064.999    20514061.581
  20894243.175   -24804540.86844 -19259718.69042  20894245.103    20894243.077
  23512593.161    -8025245.47543  -6239762.87442  23512594.780    23512594.155
  23881624.561    -6710895.83743  -5160355.75642  23881626.954    23881626.016
  23094864.268   -13624775.00343 -10596631.38242  23094866.217    23094865.123
  23641526.616   -10943946.97743  -8518707.03342  23641528.493    23641525.222
  21669775.483   -23299276.52743 -18093966.87342  21669776.026    21669774.400
  23017176.049   -14894154.76143 -11587545.49442  23017177.720    23017174.992
 04  7 18  1 29 30.0000000  0  9G 1G13G27G10G28G 3G23G 8G19
  24025436.291    -7099073.43943  -5476601.06542  24025437.970    24025438.683
  20521264.331   -28688907.54944 -22072370.24442  20521266.831    20521263.393
  20890450.616   -24824470.78444 -19275248.49042  20890452.534    20890450.518
  23503543.780    -8072800.52743  -6276818.73442  23503545.373    23503544.785
  23862743.596    -6810115.70843  -5237669.84542  23862745.932    23862744.886
  23098342.039   -13606498.68543 -10582390.09842  23098344.044    23098342.986
  23660777.499   -10842783.56843  -8439878.50342  23660779.302    23660776.073
  21658293.378   -23359615.11943 -18140983.93042  21658293.939    21658292.327
  23006689.865   -14949260.28143 -11630484.82142  23006691.411    23006688.699
 04  7 18  1 30  0.0000000  0  9G 1G13G27G10G28G 3G23G 8G19
  24044100.134    -7000995.26343  -5400176.62342  24044101.831    24044102.401
  20528555.838   -28650590.51344 -22042512.82442  20528558.355    20528554.883
  20886692.797   -24844218.21044 -19290636.08542  20886694.705    20886692.707
  23494595.407    -8119824.95043  -6313461.12442  23494596.935    23494596.266
  23843895.627    -6909162.00843  -5314848.68642  23843897.962    23843896.873
  23101928.306   -13587652.66043 -10567704.89442  23101930.254    23101929.249
  23680065.250   -10741426.09143  -8360898.73942  23680067.040    23680063.879
  21646848.114   -23419760.41743 -18187850.37142  21646848.676    21646847.024
  22996280.807   -15003959.85243 -11673107.81842  22996282.388    22996279.667
 04  7 18  1 30 30.0000000  0  9G 1G13G27G10G28G 3G23G 8G19
  24062797.984    -6902737.41043  -5323612.16442  24062799.765    24062800.377
  20535936.703   -28611803.84744 -22012289.45842  20535939.224    20535935.777
  20882969.439   -24863784.57144 -19305882.60042  20882971.380    20882969.354
  23485747.868    -8166318.84343  -6349690.09242  23485749.467    23485748.794
  23825080.733    -7008034.60943  -5391892.17742  23825083.098    23825081.970
  23105622.648   -13568238.57243 -10552577.02442  23105624.635    23105623.625
  23699389.351   -10639877.76843  -8281770.28342  23699391.138    23699387.970
  21635439.458   -23479713.26243 -18234566.85042  21635440.038    21635438.328
  22985949.349   -15058252.23343 -11715413.53742  22985950.937    22985948.136
 04  7 18  1 31  0.0000000  0  9G 1G13G27G10G28G 3G23G 8G19
  24081529.833    -6804301.32043  -5246908.82342  24081531.638    24081532.284
  20543406.892   -28572547.92544 -21981700.43442  20543409.399    20543405.950
  20879280.521   -24883169.78844 -19320987.96042  20879282.484    20879280.483
  23477001.552    -8212280.87843  -6385504.65042  23477003.134    23477002.560
  23806299.092    -7106732.55143  -5468799.57742  23806301.389    23806300.379
  23109425.020   -13548256.99743 -10537006.97542  23109426.984    23109426.003
  23718749.527   -10538139.79243  -8202494.04242  23718751.315    23718748.182
  21624067.485   -23539473.31643 -18281133.09942  21624068.071    21624066.321
  22975695.666   -15112135.63343 -11757400.55642  22975697.292    22975694.455
 04  7 18  1 31 30.0000000  0  9G 1G13G27G10G28G 3G23G 8G19
  24100295.677    -6705686.64643  -5170066.32442  24100297.443    24100298.157
  20550966.668   -28532821.12844 -21950744.50642  20550969.189    20550965.704
  20875626.455   -24902372.01644 -19335950.73242  20875628.420    20875626.421
  23468357.053    -8257707.65343  -6420902.10442  23468358.686    23468358.047
  23787551.449    -7205251.57743  -5545567.53442  23787553.795    23787552.737
  23113335.660   -13527706.17843 -10520993.35442  23113337.661    23113336.721
  23738145.737   -10436212.28843  -8123070.11442  23738147.572    23738144.432
  21612732.469   -23599038.80243 -18327547.73342  21612733.088    21612731.354
  22965520.657   -15165605.62643 -11799065.44242  22965522.282    22965519.387
 04  7 18  1 32  0.0000000  0  9G 1G13G27G10G28G 3G23G 8G19
  24119094.696    -6606897.53243  -5093087.92042  24119096.385    24119097.366
  20558615.470   -28492626.61344 -21919424.11842  20558617.967    20558614.471
  20872006.777   -24921393.77244 -19350772.87342  20872008.692    20872006.695
  23459814.168    -8302600.81443  -6455883.76942  23459815.745    23459815.072
  23768837.520    -7303593.55043  -5622197.54242  23768839.929    23768838.747
  23117354.007   -13506589.72143 -10504538.96942  23117356.007    23117355.104
  23757577.159   -10334099.59843  -8043501.87942  23757579.032    23757575.944
  21601434.084   -23658412.21943 -18373812.70642  21601434.694    21601432.974
  22955424.200   -15218662.61843 -11840408.50742  22955425.790    22955422.870
 04  7 18  1 32 30.0000000  0  9G 1G13G27G10G28G 3G23G 8G19
  24137926.915    -6507934.06143  -5015973.65342  24137928.494    24137929.471
  20566353.442   -28451963.33944 -21887738.46242  20566355.938    20566352.476
  20868421.691   -24940233.54244 -19365453.20742  20868423.607    20868421.598
  23451373.293    -8346957.61443  -6490447.47342  23451374.861    23451374.191
  23750157.828    -7401755.55443  -5698687.30942  23750160.214    23750159.094
  23121480.137   -13484906.65043 -10487643.07342  23121482.103    23121481.256
  23777043.885   -10231801.72743  -7963789.35042  23777045.726    23777042.639
  21590172.609   -23717591.41143 -18419926.33342  21590173.247    21590171.544
  22945407.074   -15271302.69843 -11881426.70942  22945408.669    22945405.696
 04  7 18  1 33  0.0000000  0  9G 1G13G27G10G28G 3G23G 8G19
  24156792.150    -6408797.08943  -4938724.17842  24156793.703    24156794.690
  20574180.723   -28410830.80744 -21855687.14642  20574183.240    20574179.769
  20864871.314   -24958890.74844 -19379991.28742  20864873.248    20864871.267
  23443034.877    -8390775.94343  -6524591.57942  23443036.411    23443035.853
  23731512.830    -7499735.29443  -5775035.06742  23731515.173    23731514.032
  23125714.122   -13462656.79143 -10470305.52542  23125716.120    23125715.257
  23796545.626   -10129319.82543  -7883933.42542  23796547.488    23796544.374
  21578948.195   -23776575.92343 -18465888.26142  21578948.838    21578947.127
  22935469.779   -15323523.14643 -11922117.92742  22935471.443    22935468.427
 04  7 18  1 33 30.0000000  0  9G 1G13G27G10G28G 3G23G 8G19
  24175689.575    -6309490.84243  -4861342.79642  24175691.172    24175692.130
  20582096.700   -28369232.09644 -21823272.57842  20582099.221    20582095.743
  20861355.205   -24977368.05544 -19394389.18442  20861357.140    20861355.135
  23434798.666    -8434057.50643  -6558317.44242  23434800.192    23434799.573
  23712902.200    -7597534.30543  -5851241.98442  23712904.550    23712903.394
  23130055.343   -13439843.58843 -10452528.99942  23130057.293    23130056.450
  23816081.546   -10026658.29143  -7803937.53142  23816083.439    23816080.288
  21567760.389   -23835368.22043 -18511700.41242  21567761.002    21567759.343
  22925612.257   -15375324.32143 -11962482.44142  22925613.969    22925610.957
 04  7 18  1 34  0.0000000  0  9G 1G13G27G10G28G 3G23G 8G19
  24194619.833    -6210012.00643  -4783826.91042  24194621.463    24194622.414
  20590102.174   -28327162.98944 -21790491.46742  20590104.700    20590101.261
  20857874.323   -24995660.23044 -19408642.82042  20857876.234    20857874.255
  23426665.711    -8476796.06143  -6591620.18042  23426667.262    23426666.645
  23694327.233    -7695146.03043  -5927302.96642  23694329.558    23694328.533
  23134504.650   -13416462.33543 -10434309.84142  23134506.549    23134505.773
  23835652.356    -9923813.74743  -7723799.01942  23835654.215    23835651.057
  21556610.111   -23893963.13543 -18557358.75742  21556610.738    21556609.055
  22915835.970   -15426698.94043 -12002514.57542  22915837.654    22915834.682
 04  7 18  1 34 30.0000000  0  9G 1G13G27G10G28G 3G23G 8G19
  24213581.766    -6110366.20643  -4706180.93942  24213583.500    24213584.545
  20598196.340   -28284627.92744 -21757347.27742  20598198.849    20598195.423
  20854427.809   -25013771.65344 -19422755.61342  20854429.709    20854427.767
  23418635.634    -8518994.50143  -6624502.06042  23418637.162    23418636.474
  23675787.427    -7792572.98943  -6003219.97442  23675789.747    23675788.745
  23139061.083   -13392518.26743 -10415652.13842  23139062.935    23139062.176
  23855256.808    -9820792.23443  -7643522.60942  23855258.659    23855255.501
  21545496.706   -23952364.40843 -18602866.21542  21545497.328    21545495.658
  22906140.504   -15477648.91743 -12042215.81542  22906142.152    22906139.167
 04  7 18  1 35  0.0000000  0  9G 1G13G27G10G28G 3G23G 8G19
  24232576.119    -6010550.73843  -4628402.77642  24232577.839    24232578.803
  20606379.894   -28241623.11344 -21723837.04642  20606382.429    20606378.948
  20851016.583   -25031697.79744 -19436724.02842  20851018.461    20851016.510
  23410709.389    -8560647.43843  -6656958.85942  23410710.884    23410710.139
  23657283.787    -7889809.66143  -6078988.71542  23657286.113    23657285.073
  23143725.299   -13368007.59043 -10396552.92142  23143727.192    23143726.415
  23874895.453    -9717590.89143  -7563106.08042  23874897.321    23874894.114
  21534420.923   -24010567.93143 -18648219.58242  21534421.569    21534419.865
  22896527.000   -15528167.83943 -12081581.18242  22896528.641    22896525.665
 04  7 18  1 35 30.0000000  0  9G 1G13G27G10G28G 3G23G 8G19
  24251601.615    -5910571.71843  -4550497.15542  24251603.244    24251604.316
  20614651.856   -28198153.68444 -21689964.77842  20614654.394    20614650.934
  20847639.757   -25049443.09244 -19450551.52242  20847641.665    20847639.663
  23402886.285    -8601758.30543  -6688993.29342  23402887.759    23402886.978
  23638815.701    -7986859.30043  -6154611.70642  23638818.065    23638817.042
  23148496.385   -13342935.37043 -10377016.12842  23148498.238    23148497.516
  23894567.001    -9614215.88643  -7482554.22142  23894568.957    23894565.884
  21523382.049   -24068577.46443 -18693421.79042  21523382.702    21523380.964
  22886995.100   -15578257.80243 -12120612.28542  22886996.809    22886993.828
 04  7 18  1 36  0.0000000  0  9G 1G13G27G10G28G 3G23G 8G19
  24270658.628    -5810426.85643  -4472462.32742  24270660.341    24270661.448
  20623012.905   -28154216.07344 -21655727.69142  20623015.433    20623011.985
  20844298.085   -25067003.72744 -19464235.12542  20844299.973    20844297.991
  23395167.268    -8642321.99643  -6720601.33142  23395168.834    23395167.980
  23620384.342    -8083716.50543  -6230084.76142  23620386.686    23620385.679
  23153374.916   -13317298.52643 -10357039.37142  23153376.790    23153376.035
  23914272.115    -9510665.23043  -7401865.50742  23914274.076    23914270.984
  21512380.857   -24126389.26743 -18738469.92342  21512381.483    21512379.743
  22877546.025   -15627912.85943 -12159304.50042  22877547.674    22877544.736
 04  7 18  1 36 30.0000000  0  9G 1G13G27G10G28G 3G23G 8G19
  24289746.351    -5710120.16343  -4394301.37942  24289748.115    24289749.399
  20631462.465   -28109813.22544 -21621128.08042  20631464.994    20631461.594
  20840991.091   -25084382.15544 -19477776.75142  20840992.989    20840991.022
  23387552.096    -8682339.91943  -6751784.11342  23387553.688    23387552.814
  23601989.388    -8180382.50243  -6305408.81642  23601991.678    23601990.702
  23158360.326   -13291099.93143 -10336624.88642  23158362.225    23158361.454
  23934009.855    -9406943.28243  -7321043.30942  23934011.766    23934008.624
  21501416.773   -24184005.65743 -18783365.78842  21501417.429    21501415.684
  22868179.689   -15677133.39343 -12197658.14242  22868181.262    22868178.349
 04  7 18  1 37  0.0000000  0  9G 1G13G27G10G28G 3G23G 8G19
  24308865.221    -5609650.34743  -4316013.35042  24308866.918    24308868.240
  20640001.032   -28064942.86244 -21586164.17442  20640003.539    20640000.158
  20837719.384   -25101575.13344 -19491173.87242  20837721.273    20837719.299
  23380041.465    -8721808.16143  -6782538.56142  23380043.105    23380042.260
  23583631.558    -8276852.93043  -6380580.48942  23583633.865    23583632.836
  23163453.080   -13264337.65143 -10315771.17642  23163454.930    23163454.072
  23953780.500    -9303048.48743  -7240086.42642  23953782.397    23953779.256
  21490490.611   -24241423.07843 -18828106.61342  21490491.239    21490489.481
  22858896.963   -15725914.59043 -12235669.42142  22858898.481    22858895.564
 04  7 18  1 37 30.0000000  0  9G 1G13G27G10G28G 3G23G 8G19
  24328014.699    -5509019.81743  -4237600.07342  24328016.376    24328017.678
  20648628.344   -28019606.05944 -21550836.81342  20648630.848    20648627.465
  20834482.787   -25118583.51644 -19504427.15242  20834484.695    20834482.687
  23372635.541    -8760726.58343  -6812864.60142  23372637.122    23372636.297
  23565311.226    -8373126.85543  -6455599.05042  23565313.514    23565312.415
  23168652.721   -13237013.60543 -10294479.71942  23168654.550    23168653.597
  23973583.490    -9198983.54743  -7158996.98942  23973585.437    23973582.208
  21479602.082   -24298642.37443 -18872693.05142  21479602.729    21479600.991
  22849698.129   -15774254.50843 -12273336.85542  22849699.727    22849696.724
 04  7 18  1 38  0.0000000  0  9G 1G13G27G10G28G 3G23G 8G19
  24347193.938    -5408232.56543  -4159064.67242  24347195.594    24347196.903
  20657343.832   -27973805.92344 -21515148.41042  20657346.341    20657342.933
  20831280.872   -25135409.63144 -19517538.40542  20831282.790    20831280.743
  23365333.973    -8799096.52543  -6842763.23142  23365335.491    23365334.775
  23547028.040    -8469205.19343  -6530465.19642  23547030.342    23547029.235
  23173958.680   -13209130.64743 -10272752.74642  23173960.529    23173959.601
  23993418.038    -9094752.72243  -7077778.26842  23993419.986    23993416.876
  21468750.819   -24355666.04343 -18917127.05542  21468751.444    21468749.699
  22840583.347   -15822153.04243 -12310660.35042  22840584.982    22840581.855
 04  7 18  1 38 30.0000000  0  9G 1G13G27G10G28G 3G23G 8G19
  24366403.862    -5307284.67043  -4080404.10042  24366405.413    24366406.820
  20666148.283   -27927538.28544 -21479095.72542  20666150.796    20666147.361
  20828114.738   -25152047.74444 -19530503.16542  20828116.640    20828114.595
  23358138.012    -8836911.36643  -6872229.32942  23358139.536    23358138.729
  23528783.385    -8565081.31043  -6605173.79042  23528785.689    23528784.585
  23179371.879   -13180684.26043 -10250586.74642  23179373.767    23179372.841
  24013284.860    -8990351.98643  -6996427.17142  24013286.856    24013283.877
  21457937.979   -24412487.57543 -18961403.55542  21457938.612    21457936.852
  22831553.837   -15869603.06843 -12347634.36042  22831555.541    22831552.377
 04  7 18  1 39  0.0000000  0  9G 1G13G27G10G28G 3G23G 8G19
  24385642.723    -5206184.50243  -4001624.87642  24385644.208    24385645.708
  20675040.525   -27880809.24344 -21442683.49842  20675043.055    20675039.631
  20824983.050   -25168504.74844 -19543326.80442  20824984.959    20824982.921
  23351046.545    -8874177.03443  -6901267.50042  23351048.019    23351047.378
  23510576.043    -8660760.74043  -6679729.11042  23510578.364    23510577.375
  23184890.739   -13151682.29843 -10227987.82442  23184892.690    23184891.789
  24033182.480    -8885790.12843  -6914950.52542  24033184.415    24033181.488
  21447162.414   -24469113.72443 -19005527.80542  21447163.008    21447161.210
  22822608.877   -15916609.37943 -12384262.61642  22822610.524    22822607.414
 04  7 18  1 39 30.0000000  0  9G 1G13G27G10G28G 3G23G 8G19
  24404911.183    -5104928.48943  -3922724.21842  24404912.819    24404914.221
  20684021.309   -27833614.88444 -21405908.69242  20684023.828    20684020.425
  20821886.896   -25184775.27644 -19556005.14042  20821888.794    20821886.744
  23344060.820    -8910887.17143  -6929872.79142  23344062.307    23344061.610
  23492407.492    -8756236.66443  -6754125.85142  23492409.783    23492408.829
  23190516.287   -13122119.77043 -10204952.09542  23190518.238    23190517.445
  24053111.430    -8781063.49543  -6833345.48142  24053113.252    24053110.465
  21436425.069   -24525539.06943 -19049495.58842  21436425.657    21436423.778
  22813749.619   -15963164.73643 -12420539.48342  22813751.269    22813748.287
 04  7 18  1 40  0.0000000  0  9G 1G13G27G10G28G 3G23G 8G19
  24424208.989    -5003518.13943  -3843703.28942  24424210.723    24424212.111
  20693090.541   -27785955.66344 -21368771.65242  20693093.038    20693089.664
  20818826.247   -25200859.12444 -19568538.01242  20818828.167    20818826.084
  23337181.022    -8947040.87443  -6958044.50642  23337182.465    23337181.718
  23474277.926    -8851507.88743  -6828363.09842  23474280.131    23474279.147
  23196248.347   -13091997.76943 -10181480.41642  23196250.247    23196249.495
  24073071.287    -8676173.70843  -6751613.31842  24073073.145    24073070.384
  21425725.794   -24581763.75843 -19093307.01142  21425726.429    21425724.589
  22804976.676   -16009266.81843 -12456463.14842  22804978.295    22804975.368
 04  7 18  1 40 30.0000000  0  9G 1G13G27G10G28G 3G23G 8G19
  24443535.506    -4901957.25043  -3764565.03742  24443537.246    24443538.589
  20702247.793   -27737834.11644 -21331274.35842  20702250.273    20702246.907
  20815800.734   -25216758.21644 -19580926.91342  20815802.659    20815800.589
  23330406.885    -8982639.25643  -6985783.49242  23330408.303    23330407.540
  23456187.230    -8946575.21043  -6902441.46842  23456189.442    23456188.365
  23202086.240   -13061319.37543 -10157575.19242  23202088.185    23202087.405
  24093061.531    -8571124.84343  -6669757.18642  24093063.435    24093060.646
  21415064.511   -24637788.96343 -19136962.99642  21415065.129    21415063.304
  22796289.932   -16054915.72743 -12492033.68942  22796291.544    22796288.646
 04  7 18  1 41  0.0000000  0  9G 1G13G27G10G28G 3G23G 8G19
  24462890.542    -4800246.54843  -3685310.06942  24462892.271    24462893.608
  20711492.880   -27689250.92944 -21293417.34842  20711495.365    20711492.025
  20812810.532   -25232471.76044 -19593171.23442  20812812.446    20812810.404
  23323738.656    -9017680.81643  -7013088.59742  23323740.055    23323739.325
  23438135.686    -9041436.27643  -6976359.10442  23438137.881    23438136.902
  23208029.973   -13030084.84743 -10133236.60842  23208031.977    23208031.196
  24113081.937    -8465917.64343  -6587777.65642  24113083.855    24113080.998
  21404441.325   -24693614.06543 -19180463.05742  21404441.953    21404440.123
  22787689.927   -16100108.65843 -12527248.92942  22787691.541    22787688.692
 04  7 18  1 41 30.0000000  0  9G 1G13G27G10G28G 3G23G 8G19
  24482273.807    -4698386.63443  -3605938.81742  24482275.550    24482276.878
  20720826.085   -27640204.80644 -21255199.60742  20720828.560    20720825.223
  20809855.921   -25247998.35044 -19605269.87542  20809857.839    20809855.806
  23317176.754    -9052163.47643  -7039958.18242  23317178.159    23317177.502
  23420123.946    -9136088.68643  -7050114.15842  23420126.107    23420125.093
  23214079.613   -12998293.73943 -10108464.32942  23214081.606    23214080.829
  24133132.232    -8360552.75543  -6505675.26042  24133134.169    24133131.398
  21393856.519   -24749237.53543 -19223806.00042  21393857.121    21393855.314
  22779177.423   -16144842.39143 -12562106.34942  22779178.941    22779176.118
 04  7 18  1 42  0.0000000  0  9G 1G13G27G10G28G 3G23G 8G19
  24501685.535    -4596378.07843  -3526451.75842  24501687.219    24501688.796
  20730247.486   -27590695.16344 -21216620.68342  20730249.974    20730246.578
  20806937.078   -25263337.01944 -19617222.08142  20806938.989    20806936.971
  23310721.533    -9086085.60943  -7066391.01142  23310722.992    23310722.362
  23402152.229    -9230530.17243  -7123704.86342  23402154.384    23402153.311
  23220235.207   -12965946.09843 -10083258.37742  23220237.141    23220236.381
  24153212.441    -8255031.07843  -6423450.70742  24153214.291    24153211.582
  21383310.335   -24804658.23043 -19266990.94342  21383310.915    21383309.072
  22770752.808   -16189113.97143 -12596603.65242  22770754.348    22770751.461
 04  7 18  1 42 30.0000000  0  9G 1G13G27G10G28G 3G23G 8G19
  24521124.933    -4494224.18043  -3446851.43642  24521126.465    24521128.152
  20739756.528   -27540724.85444 -21177682.80142  20739759.015    20739755.656
  20804053.700   -25278489.18944 -19629028.95742  20804055.598    20804053.609
  23304372.853    -9119447.83643  -7092387.53242  23304374.368    23304373.788
  23384220.633    -9324761.01843  -7197131.40642  23384222.850    23384221.636
  23226496.182   -12933044.58243 -10057620.84842  23226498.148    23226497.350
  24173321.854    -8149356.07243  -6341106.67142  24173323.690    24173320.926
  21372802.468   -24859877.35743 -19310018.81642  21372803.057    21372801.206
  22762416.178   -16232922.99643 -12630740.51942  22762417.745    22762414.836
 04  7 18  1 43  0.0000000  0  8G13G27G10G28G 3G23G 8G19
  20749354.105   -27490289.33944 -21138382.41842  20749356.598    20749353.240
  20801206.848   -25293449.57744 -19640686.40242  20801208.728    20801206.710
  23298132.058    -9152243.92743  -7117942.91642  23298133.522    23298132.938
  23366330.517    -9418774.44143  -7270388.54842  23366332.668    23366331.320
  23232863.371   -12899585.03343 -10031548.47042  23232865.344    23232864.512
  24193461.119    -8043524.08943  -6258640.31742  24193462.972    24193460.086
  21362334.044   -24914889.11243 -19352885.10342  21362334.628    21362332.808
  22754168.916   -16276262.27343 -12664511.34942  22754170.503    22754167.542
 04  7 18  1 43 30.0000000  0  8G13G27G10G28G 3G23G 8G19
  20759037.794   -27439401.29344 -21098729.41342  20759040.287    20759036.931
  20798394.347   -25308229.22144 -19652203.00442  20798396.250    20798394.222
  23291996.900    -9184484.38043  -7143065.34642  23291998.397    23291997.823
  23348479.666    -9512580.98943  -7343484.49242  23348481.851    23348480.412
  23239334.380   -12865580.03943 -10005051.08642  23239336.301    23239335.487
  24213627.713    -7937548.16243  -6176061.79442  24213629.665    24213626.745
  21351902.920   -24969704.94843 -19395598.72342  21351903.516    21351901.662
  22746009.191   -16319141.40543 -12697923.62142  22746010.828    22746007.899
 04  7 18  1 44  0.0000000  0  8G13G27G10G28G 3G23G 8G19
  20768809.255   -27388051.95144 -21058716.95942  20768811.751    20768808.405
  20795617.884   -25322819.78144 -19663572.27042  20795619.790    20795617.725
  23285969.187    -9216160.26343  -7167747.83042  23285970.616    23285970.145
  23330670.169    -9606170.22343  -7416411.07542  23330672.390    23330670.920
  23245910.492   -12831022.30443  -9978122.99842  23245912.391    23245911.566
  24233822.983    -7831421.92143  -6093366.13542  24233824.915    24233822.066
  21341510.721   -25024316.32643 -19438153.02842  21341511.315    21341509.441
  22737939.192   -16361549.68143 -12730969.01242  22737940.812    22737937.902
 04  7 18  1 44 30.0000000  0  8G13G27G10G28G 3G23G 8G19
  20778668.191   -27336242.97444 -21018346.34442  20778670.728    20778667.347
  20792877.328   -25337221.59544 -19674794.46242  20792879.257    20792877.167
  23280049.010    -9247271.48043  -7191990.32442  23280050.370    23280049.896
  23312902.056    -9699541.83243  -7489168.08942  23312904.289    23312902.900
  23252591.553   -12795913.46643  -9950765.47342  23252593.470    23252592.543
  24254046.474    -7725147.49943  -6010555.01042  24254048.411    24254045.505
  21331157.403   -25078723.52343 -19480548.23142  21331158.009    21331156.042
  22729958.946   -16403485.83343 -12763646.50442  22729960.600    22729957.720
 04  7 18  1 45  0.0000000  0  8G13G27G10G28G 3G23G 8G19
  20788613.900   -27283977.95344 -20977620.37542  20788616.437    20788613.028
  20790172.205   -25351436.97744 -19685871.37742  20790174.152    20790172.063
  23274235.835    -9277819.64543  -7215794.07342  23274237.290    23274236.783
  23295175.214    -9792696.80143  -7561756.29342  23295177.465    23295175.961
  23259376.805   -12760256.98943  -9922981.22042  23259378.725    23259377.729
  24274297.257    -7618729.29043  -5927631.85942  24274299.185    24274296.470
  21320842.597   -25132928.06443 -19522785.52242  21320843.222    21320841.210
  22722068.512   -16444950.24243 -12795956.41142  22722070.172    22722067.234
 04  7 18  1 45 30.0000000  0  8G13G27G10G28G 3G23G 8G19
  20798646.793   -27231254.63444 -20936537.28642  20798649.346    20798645.952
  20787503.155   -25365462.89444 -19696800.66042  20787505.096    20787503.033
  23268530.500    -9307801.26643  -7239156.34842  23268531.978    23268531.456
  23277490.303    -9885631.22643  -7634172.64742  23277492.568    23277491.015
  23266266.415   -12724051.35543  -9894769.04142  23266268.331    23266267.510
  24294575.566    -7512166.28343  -5844595.88042  24294577.511    24294574.877
  21310566.743   -25186927.81843 -19564863.23742  21310567.362    21310565.407
  22714268.693   -16485938.40343 -12827895.20942  22714270.389    22714267.393
 04  7 18  1 46  0.0000000  0  8G13G27G10G28G 3G23G 8G19
  20808767.151   -27178071.70944 -20895096.06542  20808769.678    20808766.360
  20784870.538   -25379297.18144 -19707580.61842  20784872.495    20784870.472
  23262933.455    -9337213.65543  -7262075.06242  23262934.958    23262934.442
  23259848.007    -9978341.83943  -7706414.59542  23259850.228    23259848.658
  23273260.843   -12687295.43743  -9866128.07342  23273262.717    23273261.952
  24314881.508    -7405458.09743  -5761446.76042  24314883.484    24314880.787
  21300330.494   -25240719.60143 -19606778.89942  21300331.095    21300329.179
  22706560.263   -16526446.48143 -12859459.90442  22706561.953    22706558.936
 04  7 18  1 46 30.0000000  0  8G13G27G10G28G 3G23G 8G19
  20818973.989   -27124434.50444 -20853300.85542  20818976.502    20818973.239
  20782273.684   -25392943.77244 -19718214.32142  20782275.629    20782273.619
  23257444.034    -9366060.31743  -7284552.98642  23257445.495    23257445.073
  23242247.710   -10070831.31343  -7778484.21042  23242249.968    23242248.449
  23280358.977   -12649994.45743  -9837062.38942  23280360.917    23280360.108
  24335214.070    -7298610.70743  -5678189.17142  24335215.947    24335213.334
  21290133.022   -25294307.75143 -19648535.89142  21290133.618    21290131.681
  22698942.741   -16566476.57843 -12890652.15742  22698944.458    22698941.381
 04  7 18  1 47  0.0000000  0  8G13G27G10G28G 3G23G 8G19
  20829267.739   -27070340.61544 -20811149.79642  20829270.245    20829266.988
  20779713.042   -25406400.02644 -19728699.70742  20779714.992    20779712.961
  23252063.009    -9394338.01943  -7306587.53642  23252064.390    23252063.936
  23224690.218   -10163095.78243  -7850378.51942  23224692.473    23224691.025
  23287561.136   -12612147.25543  -9807571.07542  23287563.061    23287562.265
  24355573.214    -7191623.44343  -5594822.59542  24355575.078    24355572.501
  21279974.851   -25347689.14943 -19690131.77342  21279975.423    21279973.551
  22691417.039   -16606024.40043 -12921468.60942  22691418.696    22691415.633
 04  7 18  1 47 30.0000000  0  8G13G27G10G28G 3G23G 8G19
  20839647.219   -27015796.14444 -20768647.63042  20839649.729    20839646.448
  20777187.766   -25419670.31644 -19739040.18542  20777189.717    20777187.716
  23246789.419    -9422050.74943  -7328181.85742  23246790.866    23246790.360
  23207174.943   -10255138.57843  -7922100.08742  23207177.236    23207175.791
  23294866.049   -12573759.45243  -9777658.49842  23294868.033    23294867.238
  24375957.561    -7084502.63443  -5511351.95742  24375959.563    24375957.003
  21269855.248   -25400868.18743 -19731569.97242  21269855.806    21269853.935
  22683982.641   -16645092.68543 -12951911.40642  22683984.252    22683981.151
 04  7 18  1 48  0.0000000  0  8G13G27G10G28G 3G23G 8G19
  20850114.367   -26960791.08344 -20725786.56142  20850116.884    20850113.563
  20774699.990   -25432743.76244 -19749227.28142  20774701.914    20774699.890
  23241625.427    -9449187.59343  -7349327.42942  23241626.932    23241626.316
  23189704.098   -10346948.05243  -7993639.85142  23189706.384    23189704.993
  23302275.568   -12534821.83043  -9747317.50442  23302277.581    23302276.798
  24396369.169    -6977239.61343  -5427770.52242  24396371.156    24396368.613
  21259776.118   -25453834.23443 -19772842.20142  21259776.678    21259774.832
  22676641.803   -16683669.23243 -12981971.01742  22676643.364    22676640.252
 04  7 18  1 48 30.0000000  0  8G13G27G10G28G 3G23G 8G19
  20860666.961   -26905336.79444 -20682575.44542  20860669.486    20860666.180
  20772247.737   -25445630.42844 -19759268.83442  20772249.652    20772247.635
  23236569.179    -9475757.90943  -7370031.56642  23236570.760    23236570.109
  23172276.010   -10438532.92043  -8065004.59742  23172278.274    23172276.856
  23309787.636   -12495345.83043  -9716556.99142  23309789.650    23309788.787
  24416805.583    -6869846.23343  -5344087.49642  24416807.561    24416805.010
  21249735.704   -25506596.90843 -19813955.95642  21249736.250    21249734.437
  22669392.897   -16721762.34843 -13011653.93942  22669394.465    22669391.378
 04  7 18  1 49  0.0000000  0  8G13G27G10G28G 3G23G 8G19
  20871305.825   -26849429.28044 -20639011.16042  20871308.341    20871305.063
  20769831.871   -25458325.83144 -19769161.35142  20769833.788    20769831.776
  23231621.834    -9501756.84743  -7390290.46142  23231623.416    23231622.625
  23154891.735   -10529887.65043  -8136190.01942  23154893.970    23154892.508
  23317402.629   -12455328.62543  -9685374.78042  23317404.625    23317403.762
  24437267.221    -6762320.08743  -5260301.00542  24437269.200    24437266.634
  21239734.943   -25559151.39043 -19854907.49142  21239735.493    21239733.641
  22662237.159   -16759365.77043 -13040955.28642  22662238.776    22662235.691
 04  7 18  1 49 30.0000000  0  8G13G27G10G28G 3G23G 8G19
  20882030.426   -26793071.03344 -20595095.66342  20882032.926    20882029.677
  20767452.232   -25470831.07544 -19778905.69142  20767454.136    20767452.109
  23226782.874    -9527185.55243  -7410105.02342  23226784.459    23226783.695
  23137551.229   -10621012.30943  -8207196.16542  23137553.414    23137551.969
  23325120.192   -12414772.80443  -9653772.84642  23325122.153    23325121.314
  24457753.538    -6654664.22143  -5176413.43942  24457755.499    24457752.979
  21229773.446   -25611499.13344 -19895697.92842  21229774.028    21229772.192
  22655174.750   -16796479.12043 -13069874.74242  22655176.332    22655173.203
 04  7 18  1 50  0.0000000  0  8G13G27G10G28G 3G23G 8G19
  20892841.557   -26736258.26644 -20550825.99442  20892844.046    20892840.793
  20765109.745   -25483140.97044 -19788497.81342  20765111.643    20765109.622
  23222053.540    -9552038.25743  -7429470.75442  23222055.084    23222054.325
  23120255.723   -10711900.90743  -8278018.37942  23120257.924    23120256.377
  23332940.883   -12373674.64043  -9621748.31042  23332942.861    23332942.019
  24478265.128    -6546875.64743  -5092422.46642  24478267.088    24478264.638
  21219852.388   -25663634.60743 -19936322.96042  21219852.979    21219851.142
  22648206.891   -16833095.73143 -13098407.14642  22648208.439    22648205.210
 04  7 18  1 50 30.0000000  0  8G13G27G10G28G 3G23G 8G19
  20903738.179   -26678996.07944 -20506206.12942  20903740.680    20903737.450
  20762803.606   -25495259.78244 -19797941.03842  20762805.509    20762803.504
  23217433.084    -9576319.05743  -7448390.84342  23217434.593    23217433.903
  23103004.548   -10802556.56743  -8348659.07442  23103006.727    23103005.166
  23340863.811   -12332039.80343  -9589305.60242  23340865.779    23340864.825
  24498800.832    -6438960.38943  -5008332.77942  24498802.802    24498800.368
  21209970.995   -25715561.77144 -19976785.67642  21209971.558    21209969.735
  22641332.975   -16869218.35143 -13126554.61742  22641334.521    22641331.244
 04  7 18  1 51  0.0000000  0  8G13G27G10G28G 3G23G 8G19
  20914720.451   -26621284.02244 -20461235.71742  20914722.948    20914719.737
  20760534.208   -25507185.57544 -19807233.86242  20760536.094    20760534.092
  23212921.820    -9600025.75143  -7466863.58342  23212923.258    23212922.739
  23085798.228   -10892976.19143  -8419115.85442  23085800.403    23085798.844
  23348888.878   -12289868.18043  -9556444.59642  23348890.799    23348889.806
  24519360.675    -6330918.63943  -4924144.51242  24519362.581    24519360.198
  21200129.527   -25767279.03144 -20017084.82842  21200130.088    21200128.279
  22634553.656   -16904843.58243 -13154314.51442  22634555.263    22634551.958
 04  7 18  1 51 30.0000000  0  8G13G27G10G28G 3G23G 8G19
  20925787.471   -26563126.35844 -20415918.07542  20925789.971    20925786.804
  20758300.945   -25518921.37944 -19816378.64342  20758302.860    20758300.814
  23208519.237    -9623161.43043  -7484891.35642  23208520.631    23208520.178
  23068636.427   -10983161.97543  -8489390.42142  23068638.569    23068636.970
  23357015.108   -12247164.24943  -9523168.81942  23357017.101    23357016.061
  24539943.513    -6222755.53943  -4839861.69442  24539945.424    24539943.103
  21190327.451   -25818789.06944 -20057222.50342  21190328.017    21190326.213
  22627868.727   -16939973.02243 -13181688.07742  22627870.276    22627867.074
 04  7 18  1 52  0.0000000  0  8G13G27G10G28G 3G23G 8G19
  20936940.417   -26504517.64344 -20370248.96442  20936942.872    20936939.690
  20756104.951   -25530461.28744 -19825370.77942  20756106.881    20756104.834
  23204226.538    -9645719.73043  -7502469.24242  23204227.941    23204227.484
  23051520.434   -11073107.05743  -8559477.43942  23051522.547    23051520.893
  23365243.516   -12203923.91243  -9489475.05842  23365245.511    23365244.480
  24560550.061    -6114467.26243  -4755481.34742  24560552.081    24560549.860
  21180566.097   -25870085.39144 -20097193.64742  21180566.669    21180564.834
  22621279.511   -16974599.28443 -13208669.56042  22621281.087    22621277.941
 04  7 18  1 52 30.0000000  0  8G13G27G10G28G 3G23G 8G19
  20948178.531   -26445461.09144 -20324230.89442  20948181.011    20948177.808
  20753945.966   -25541806.72444 -19834211.38242  20753947.891    20753945.839
  23200043.443    -9667702.12443  -7519598.38342  23200044.839    23200044.416
  23034450.166   -11162811.63343  -8629377.04642  23034452.306    23034450.605
  23373573.347   -12160150.18143  -9455365.66042  23373575.394    23373574.395
  24581179.791    -6006057.24343  -4671006.13842  24581181.812    24581179.668
  21170845.060   -25921169.76444 -20136999.64342  21170845.648    21170843.781
  22614786.086   -17008722.40443 -13235258.97842  22614787.647    22614784.525
 04  7 18  1 53  0.0000000  0  8G13G27G10G28G 3G23G 8G19
  20959501.309   -26385959.51544 -20277866.04842  20959503.797    20959500.625
  20751823.720   -25552959.09844 -19842901.53542  20751825.634    20751823.619
  23195969.818    -9689109.76443  -7536279.64142  23195971.225    23195970.672
  23017425.498   -11252276.49943  -8699089.86342  23017427.635    23017425.988
  23382004.019   -12115846.31843  -9420843.17342  23382006.061    23382005.135
  24601832.159    -5897529.09143  -4586438.86542  24601834.069    24601831.957
  21161164.067   -25972043.92344 -20176641.83142  21161164.649    21161162.700
  22608388.383   -17042342.43943 -13261456.38542  22608389.937    22608386.786
 04  7 18  1 53 30.0000000  0  8G13G27G10G28G 3G23G 8G19
  20970908.817   -26326012.66344 -20231154.23742  20970911.311    20970908.128
  20749738.543   -25563916.99744 -19851440.15242  20749740.419    20749738.414
  23192005.683    -9709941.40743  -7552512.09242  23192007.120    23192006.482
  23000446.953   -11341499.14143  -8768613.94442  23000449.087    23000447.450
  23390535.630   -12071012.33243  -9385907.61942  23390537.630    23390536.773
  24622506.832    -5788883.40343  -4501780.00542  24622508.773    24622506.616
  21151523.401   -26022705.99244 -20216118.75742  21151523.989    21151521.979
  22602086.877   -17075456.61643 -13287259.61242  22602088.497    22602085.291
 04  7 18  1 54  0.0000000  0  8G13G27G10G28G 3G23G 8G19
  20982401.326   -26265619.38344 -20184094.56442  20982403.777    20982400.604
  20747690.748   -25574678.08144 -19859825.40442  20747692.632    20747690.654
  23188151.568    -9730194.64143  -7568293.81642  23188153.011    23188152.369
  22983515.081   -11430476.53043  -8837946.90842  22983517.201    22983515.591
  23399168.155   -12025647.80143  -9350558.64842  23399170.155    23399169.387
  24643203.847    -5680119.91643  -4417029.33942  24643205.773    24643203.696
  21141923.558   -26073153.62244 -20255428.58442  21141924.126    21141922.080
  22595882.431   -17108061.34543 -13312665.87242  22595883.987    22595880.784
 04  7 18  1 54 30.0000000  0  8G13G27G10G28G 3G23G 8G19
  20993977.728   -26204785.06844 -20136691.23042  20993980.204    20993976.979
  20745679.641   -25585246.43144 -19868060.47242  20745681.536    20745679.576
  23184406.746    -9749873.14943  -7583627.69042  23184408.248    23184407.699
  22966629.290   -11519211.44743  -8907090.94742  22966631.430    22966629.805
  23407900.648   -11979758.38643  -9314800.67442  23407902.690    23407901.829
  24663922.159    -5571244.66043  -4332191.59842  24663924.108    24663922.108
  21132363.711   -26123390.52544 -20294574.20842  21132364.318    21132362.324
  22589774.372   -17140159.10443 -13337677.08742  22589775.974    22589772.779
 04  7 18  1 55  0.0000000  0  8G13G27G10G28G 3G23G 8G19
  21005638.749   -26143506.22244 -20088941.50342  21005641.219    21005638.013
  20743706.258   -25595616.94444 -19876141.38742  20743708.142    20743706.121
  23180772.269    -9768972.45243  -7598510.24742  23180773.734    23180773.272
  22949790.777   -11607698.21143  -8976041.62342  22949792.896    22949791.181
  23416733.663   -11933341.31143  -9278631.52742  23416735.626    23416734.648
  24684662.207    -5462254.93943  -4247264.66842  24684664.125    24684662.233
  21122844.967   -26173411.78744 -20333551.80242  21122845.575    21122843.606
  22583763.957   -17171743.92443 -13362288.60842  22583765.542    22583762.401
 04  7 18  1 55 30.0000000  0  8G13G27G10G28G 3G23G 8G19
  21017383.608   -26081786.60744 -20040848.31842  21017386.105    21017382.876
  20741769.931   -25605792.50344 -19884070.38842  20741771.831    20741769.759
  23177247.564    -9787495.04843  -7612943.42242  23177249.058    23177248.551
  22932999.232   -11695938.57243  -9044800.30242  22933001.277    22932999.505
  23425666.120   -11886400.62243  -9242054.37942  23425668.082    23425667.168
  24705423.392    -5353155.46843  -4162252.20242  24705425.177    24705423.217
  21113366.809   -26223219.84744 -20372363.26142  21113367.392    21113365.464
  22577850.940   -17202816.94643 -13386501.33042  22577852.527    22577849.399
 04  7 18  1 56  0.0000000  0  8G13G27G10G28G 3G23G 8G19
  21029212.185   -26019627.11344 -19992412.37542  21029214.679    21029211.479
  20739870.814   -25615772.44644 -19891846.95842  20739872.712    20739870.629
  23173832.642    -9805440.43543  -7626926.82942  23173834.183    23173833.602
  22916254.773   -11783930.96843  -9113365.75342  22916256.807    22916255.003
  23434697.863   -11838937.76743  -9205070.34342  23434699.801    23434698.982
  24726205.096    -5243947.91743  -4077155.51742  24726206.989    24726204.870
  21103929.319   -26272814.21144 -20411008.20842  21103929.879    21103927.952
  22572035.604   -17233376.80543 -13410314.17642  22572037.188    22572034.051
 04  7 18  1 56 30.0000000  0  7G13G27G10G28G 3G 8G19
  21041126.592   -25957016.49744 -19943624.91142  21041129.092    21041125.891
  20738011.303   -25625544.12844 -19899461.25142  20738013.210    20738011.130
  23170529.893    -9822796.07443  -7640450.69042  23170531.453    23170530.897
  22899560.096   -11871661.83243  -9181727.41242  22899562.164    22899560.286
  23443831.363   -11790941.72543  -9167670.84242  23443833.193    23443832.275
  21094534.936   -26322181.90044 -20449476.52142  21094535.511    21094533.597
  22566320.624   -17263409.14743 -13433715.97742  22566322.245    22566319.070
 04  7 18  1 57  0.0000000  0  7G13G27G10G28G 3G 8G19
  21053122.367   -25893978.17944 -19894504.17142  21053124.865    21053121.644
  20736187.228   -25635129.44744 -19906930.32942  20736189.136    20736187.117
  23167335.263    -9839583.93943  -7653532.12742  23167336.763    23167336.244
  22882911.125   -11959152.49043  -9249901.90242  22882913.148    22882911.360
  23453061.678   -11742436.51043  -9129874.58042  23453063.540    23453062.545
  21085179.412   -26371345.33644 -20487785.67742  21085180.001    21085178.087
  22560702.022   -17292934.98043 -13456723.10142  22560703.616    22560700.450
 04  7 18  1 57 30.0000000  0  7G13G27G10G28G 3G 8G19
  21065201.362   -25830502.93344 -19845042.97042  21065203.817    21065200.578
  20734400.674   -25644517.91444 -19914246.02142  20734402.550    20734400.558
  23164250.652    -9855793.85043  -7666163.21542  23164252.041    23164251.600
  22866310.048   -12046391.29343  -9317880.13242  22866312.124    22866310.316
  23462390.297   -11693413.61443  -9091674.93442  23462392.260    23462391.284
  21075864.972   -26420292.99444 -20525926.69142  21075865.560    21075863.646
  22555182.076   -17321942.53543 -13479326.36542  22555183.674    22555180.421
 04  7 18  1 58  0.0000000  0  7G13G27G10G28G 3G 8G19
  21077364.179   -25766586.93944 -19795238.32042  21077366.653    21077363.414
  20732652.643   -25653703.91444 -19921403.94142  20732654.519    20732652.497
  23161276.957    -9871420.45843  -7678339.77242  23161278.338    23161277.952
  22849758.154   -12133371.91643  -9385657.19342  22849760.198    22849758.449
  23471818.175   -11643869.41643  -9053069.08142  23471820.116    23471819.249
  21066592.508   -26469020.02344 -20563895.78542  21066593.103    21066591.188
  22549761.981   -17350425.24343 -13501520.65542  22549763.549    22549760.301
 04  7 18  1 58 30.0000000  0  7G13G27G10G28G 3G 8G19
  21089609.532   -25702237.30244 -19745095.76842  21089612.028    21089608.801
  20730941.996   -25662693.48044 -19928408.79942  20730943.904    20730941.834
  23158413.168    -9886469.72843  -7690066.46442  23158414.543    23158414.191
  22833254.359   -12220099.74743  -9453237.26142  22833256.397    22833254.638
  23481343.853   -11593811.72843  -9014063.10842  23481345.766    23481344.931
  21057360.928   -26517532.02544 -20601697.32942  21057361.550    21057359.633
  22544440.886   -17378387.88743 -13523309.71642  22544442.439    22544439.146
 04  7 18  1 59  0.0000000  0  7G13G27G10G28G 3G 8G19
  21101937.727   -25637452.09744 -19694613.81442  21101940.250    21101937.061
  20729269.355   -25671483.18644 -19935257.92142  20729271.259    20729269.221
  23155659.860    -9900938.74943  -7701341.01242  23155661.216    23155660.839
  22816799.498   -12306570.15943  -9520616.73842  22816801.518    22816799.850
  23490967.541   -11543238.86843  -8974655.69242  23490969.525    23490968.646
  21048171.060   -26565825.05244 -20639328.24242  21048171.662    21048169.750
  22539219.618   -17405825.92243 -13544689.99042  22539221.159    22539217.863
 04  7 18  1 59 30.0000000  0  7G13G27G10G28G 3G 8G19
  21114348.234   -25572234.65744 -19643795.05942  21114350.738    21114347.579
  20727634.481   -25680074.54244 -19941952.48842  20727636.376    20727634.333
  23153016.562    -9914829.16543  -7712164.69342  23153017.950    23153017.556
  22800393.456   -12392784.32843  -9587796.55642  22800395.444    22800393.799
  23500688.598   -11492154.56643  -8934849.75642  23500690.537    23500689.710
  21039022.484   -26613901.15644 -20676790.12242  21039023.066    21039021.159
  22534098.060   -17432739.86843 -13565661.88142  22534099.619    22534096.338
 04  7 18  2  0  0.0000000  0  7G13G27G10G28G 3G 8G19
  21126841.441   -25506582.32544 -19592637.42142  21126843.939    21126840.859
  20726038.071   -25688463.65844 -19948489.45842  20726039.971    20726037.930
  23150484.097    -9928137.40243  -7722534.74442  23150485.504    23150485.038
  22784037.130   -12478737.30943  -9654772.84442  22784039.113    22784037.479
  23510507.293   -11440557.00243  -8894643.86442  23510509.265    23510508.464
  21029915.876   -26661756.47144 -20714079.96542  21029916.492    21029914.569
  22529077.106   -17459124.78343 -13586221.54242  22529078.709    22529075.452
 04  7 18  2  0 30.0000000  0  7G13G27G10G28G 3G 8G19
  21139416.548   -25440499.89744 -19541144.64542  21139419.022    21139415.973
  20724479.554   -25696653.75544 -19954871.35342  20724481.452    20724479.429
  23148061.717    -9940867.07943  -7732453.95942  23148063.145    23148062.613
  22767729.985   -12564431.53743  -9721547.50242  22767732.011    22767730.333
  23520422.584   -11388451.48943  -8854042.17642  23520424.621    23520423.784
  21020850.791   -26709393.64044 -20751199.82542  21020851.416    21020849.502
  22524156.441   -17484982.89543 -13606370.69942  22524158.007    22524154.795
 04  7 18  2  1  0.0000000  0  7G13G27G10G28G 3G 8G19
  21152074.046   -25373984.56844 -19489314.54742  21152076.511    21152073.422
  20722959.803   -25704640.10244 -19961094.48142  20722961.712    20722959.691
  23145750.255    -9953013.84843  -7741918.96842  23145751.660    23145751.082
  22751473.128   -12649861.70943  -9788116.40042  22751475.168    22751473.415
  23530435.088   -11335835.48343  -8813042.70242  23530437.011    23530436.295
  21011828.099   -26756808.22844 -20788146.24242  21011828.701    21011826.791
  22519337.120   -17510308.72443 -13626105.10142  22519338.699    22519335.408
 04  7 18  2  1 30.0000000  0  7G13G27G10G28G 3G 8G19
  21164812.953   -25307041.23244 -19437150.92942  21164815.436    21164812.333
  20721478.090   -25712426.56744 -19967161.85742  20721479.978    20721477.989
  23143548.926    -9964581.83543  -7750932.96442  23143550.339    23143549.757
  22735265.931   -12735030.68143  -9854481.76842  22735268.025    22735266.183
  23540543.636   -11282714.74443  -8771649.92942  23540545.562    23540544.880
  21002847.148   -26804003.54644 -20824921.79442  21002847.764    21002845.795
  22514618.542   -17535104.83243 -13645426.73142  22514620.170    22514616.836
 04  7 18  2  2  0.0000000  0  8G13G27G31G10G28G 3G 8G19
  21177629.253   -25239691.19244 -19384670.40542  21177631.734    21177628.636
  20720030.765   -25720032.37344 -19973088.46242  20720032.629    20720030.632
  24644424.298    -5997639.81753  -3768210.31152  24644426.568    24644428.233
  23141453.933    -9975590.93343  -7759511.46742  23141455.374    23141454.817
  22719104.877   -12819957.23043  -9920658.24242  22719107.024    22719105.112
  23550744.241   -11229110.51743  -8729880.42042  23550746.227    23550745.460
  20993904.197   -26850999.19844 -20861541.76442  20993904.804    20993902.787
  22509997.245   -17559389.74943 -13664350.02942  22509998.868    22509995.580
 04  7 18  2  2 30.0000000  0  8G13G27G31G10G28G 3G 8G19
  21190531.341   -25171890.43044 -19331838.66542  21190533.835    21190530.737
  20718626.440   -25727412.11344 -19978838.91142  20718628.293    20718626.322
  24622655.099    -6112037.45543  -3857351.20442  24622657.255    24622659.030
  23139473.917    -9985996.05343  -7767619.33742  23139475.375    23139474.886
  22702998.735   -12904595.11943  -9986609.78142  22703000.932    22702998.977
  23561044.984   -11174979.62543  -8687700.51142  23561046.964    23561046.310
  20985007.829   -26897749.67944 -20897970.69742  20985008.456    20985006.454
  22505481.980   -17583117.21343 -13682838.94442  22505483.583    22505480.395
 04  7 18  2  3  0.0000000  0  8G13G27G31G10G28G 3G 8G19
  21203513.824   -25103667.06744 -19278677.63042  21203516.335    21203513.225
  20717260.081   -25734592.43344 -19984433.96342  20717261.917    20717259.963
  24600873.899    -6226498.03643  -3946541.15142  24600876.077    24600877.863
  23137603.650    -9995824.24343  -7775277.65542  23137605.126    23137604.652
  22686942.630   -12988970.25443 -10052356.57942  22686944.868    22686942.830
  23571440.527   -11120350.91143  -8645132.70142  23571442.449    23571441.826
  20976153.156   -26944281.06644 -20934228.91142  20976153.767    20976151.819
  22501068.021   -17606312.62443 -13700913.28142  22501069.586    22501066.424
 04  7 18  2  3 30.0000000  0  8G13G27G31G10G28G 3G 8G19
  21216577.399   -25035017.55844 -19225184.53342  21216579.912    21216576.789
  20715932.669   -25741568.09944 -19989869.54842  20715934.510    20715932.541
  24579082.160    -6341014.23343  -4035774.42642  24579084.361    24579085.972
  23135844.145   -10005070.94343  -7782482.86542  23135845.602    23135845.048
  22670937.735   -13073076.49243 -10117893.85742  22670939.933    22670937.892
  23581931.290   -11065221.26743  -8602174.55942  23581933.279    23581932.709
  20967341.194   -26990588.27144 -20970312.44142  20967341.769    20967339.841
  22496756.496   -17628969.90943 -13718568.28742  22496758.046    22496754.870
 04  7 18  2  4  0.0000000  0  8G13G27G31G10G28G 3G 8G19
  21229720.673   -24965949.36244 -19171365.19142  21229723.190    21229720.050
  20714643.150   -25748344.58044 -19995149.92342  20714645.014    20714643.030
  24557279.235    -6455589.32943  -4125053.60042  24557281.309    24557283.023
  23134194.052   -10013742.15643  -7789239.64942  23134195.471    23134194.962
  22654982.978   -13156918.77743 -10183225.44842  22654985.196    22654983.214
  23592516.078   -11009598.34443  -8558832.04842  23592517.976    23592517.449
  20958570.883   -27036676.59944 -21006225.41642  20958571.456    20958569.490
  22492546.417   -17651094.08943 -13735807.89642  22492547.963    22492544.734
 04  7 18  2  4 30.0000000  0  8G13G27G31G10G28G 3G 8G19
  21242945.563   -24896452.10744 -19117211.52642  21242948.094    21242945.001
  20713393.826   -25754909.85844 -20000265.72542  20713395.704    20713393.691
  24535467.732    -6570208.92943  -4214367.45142  24535469.660    24535471.536
  23132655.584   -10021826.42843  -7795539.07442  23132657.021    23132656.458
  22639080.945   -13240484.46243 -10248341.51542  22639083.115    22639081.158
  23603196.570   -10953472.54343  -8515097.67642  23603198.428    23603197.952
  20949844.489   -27082534.23144 -21041958.62442  20949845.056    20949843.062
  22488440.161   -17672672.27043 -13752622.04142  22488441.746    22488438.512
 04  7 18  2  5  0.0000000  0  8G13G27G31G10G28G 3G 8G19
  21256249.942   -24826537.01644 -19062732.26342  21256252.501    21256249.452
  20712182.812   -25761273.69944 -20005224.56742  20712184.716    20712182.682
  24513646.313    -6684880.63443  -4303721.89442  24513648.286    24513650.082
  23131226.899   -10029334.09443  -7801389.19642  23131228.346    23131227.757
  22623229.815   -13323782.38543 -10313248.92742  22623231.976    22623230.057
  23613970.363   -10896855.82943  -8470980.77942  23613972.239    23613971.860
  20941160.195   -27128170.62044 -21077519.43642  20941160.771    20941158.748
  22484436.289   -17693713.17843 -13769017.53342  22484437.764    22484434.538
 04  7 18  2  5 30.0000000  0  8G13G27G31G10G28G 3G 8G19
  21269634.611   -24756200.43644 -19007924.56642  21269637.105    21269634.112
  20711011.186   -25767430.62044 -20010022.16942  20711013.069    20711011.027
  24491816.418    -6799596.83443  -4393111.00442  24491818.416    24491820.165
  23129908.894   -10036260.26043  -7806786.20642  23129910.345    23129909.755
  22607430.773   -13406806.94343 -10377943.34742  22607432.868    22607430.961
  23624838.214   -10839745.01143  -8426478.84842  23624840.108    23624839.690
  20932519.009   -27173580.31844 -21112903.60742  20932519.605    20932517.542
  22480535.694   -17714210.85943 -13784989.73142  22480537.198    22480533.956
 04  7 18  2  6  0.0000000  0  8G13G27G31G10G28G 3G 8G19
  21283098.681   -24685446.39944 -18952791.58042  21283101.183    21283098.181
  20709878.493   -25773382.95844 -20014660.35142  20709880.372    20709878.292
  24469978.130    -6914357.55943  -4482534.83142  24469980.103    24469981.807
  23128701.055   -10042607.81443  -7811732.34342  23128702.488    23128701.853
  22591683.451   -13489559.41843 -10442425.74542  22591685.556    22591683.662
  23635799.311   -10782144.33443  -8381595.23242  23635801.232    23635800.621
  20923920.534   -27218765.48544 -21148112.81342  20923921.143    20923919.076
  22476738.208   -17734166.97243 -13800539.92642  22476739.713    22476736.414
 04  7 18  2  6 30.0000000  0  8G13G27G31G10G28G 3G 8G19
  21296642.304   -24614274.29144 -18897332.82442  21296644.770    21296641.833
  20708785.207   -25779128.15944 -20019137.13142  20708787.077    20708785.018
  24448132.149    -7029158.05443  -4571989.62742  24448134.252    24448135.818
  23127603.578   -10048374.93243  -7816226.20742  23127605.023    23127604.332
  22575988.532   -13572036.89343 -10506693.86342  22575990.560    22575988.681
  23646853.539   -10724053.70543  -8336329.82742  23646855.513    23646854.837
  20915365.286   -27263723.40844 -21183144.94342  20915365.915    20915363.856
  22473044.412   -17753578.22643 -13815665.55542  22473045.917    22473042.565
 04  7 18  2  7  0.0000000  0  8G13G27G31G10G28G 3G 8G19
  21310264.845   -24542687.42044 -18841550.88042  21310267.314    21310264.370
  20707731.016   -25784667.96844 -20023453.86642  20707732.893    20707730.843
  24426278.773    -7143997.68343  -4661474.94242  24426280.894    24426282.364
  23126616.135   -10053564.21843  -7820269.80142  23126617.491    23126616.802
  22560345.771   -13654240.19643 -10570748.33842  22560347.797    22560345.940
  23658000.213   -10665477.26543  -8290685.87042  23658002.212    23658001.590
  20906852.903   -27308456.35844 -21218001.77142  20906853.505    20906851.443
  22469454.000   -17772445.75943 -13830367.50642  22469455.550    22469452.171
 04  7 18  2  7 30.0000000  0  8G13G27G31G10G28G 3G 8G19
  21323966.619   -24470684.22144 -18785444.52942  21323969.106    21323966.141
  20706716.523   -25789998.95944 -20027607.88442  20706718.406    20706716.394
  24404418.883    -7258871.15843  -4750986.60442  24404421.052    24404422.602
  23125739.105   -10058173.19643  -7823861.20942  23125740.482    23125739.676
  22544755.852   -13736165.64943 -10634586.30842  22544757.873    22544756.033
  23669239.715   -10606414.02443  -8244662.59242  23669241.604    23669240.964
  20898384.034   -27352960.50244 -21252680.31242  20898384.642    20898382.603
  22465967.831   -17790765.52943 -13844642.63142  22465969.401    22465965.999
 04  7 18  2  8  0.0000000  0  8G13G27G31G10G28G 3G 8G19
  21337747.131   -24398267.53743 -18729015.98142  21337749.587    21337746.646
  20705741.577   -25795122.19444 -20031600.01842  20705743.477    20705741.444
  24382552.909    -7373776.99043  -4840523.49442  24382555.112    24382556.694
  23124972.084   -10062203.53043  -7827001.73542  23124973.472    23124972.643
  22529218.728   -13817813.42343 -10698207.90842  22529220.760    22529218.940
  23680571.130   -10546867.27943  -8198262.55242  23680573.032    23680572.405
  20889958.530   -27397236.60444 -21287181.15142  20889959.133    20889957.168
  22462585.828   -17808537.77543 -13858491.11642  22462587.414    22462583.997
 04  7 18  2  8 30.0000000  0  8G13G27G31G10G28G 3G 8G19
  21351606.003   -24325438.76244 -18672266.32042  21351608.482    21351605.529
  20704806.376   -25800036.89944 -20035429.66242  20704808.235    20704806.191
  24360681.259    -7488712.17743  -4930083.23242  24360683.517    24360685.118
  23124315.227   -10065655.23843  -7829691.36942  23124316.574    23124315.777
  22513734.709   -13899182.21043 -10761612.11242  22513736.767    22513734.948
  23691994.209   -10486838.65243  -8151487.02642  23691996.148    23691995.552
  20881576.652   -27441283.66944 -21321503.52442  20881577.233    20881575.283
  22459308.344   -17825761.06543 -13871911.84142  22459309.920    22459306.524
 04  7 18  2  9  0.0000000  0  8G13G27G31G10G28G 3G 8G19
  21365542.995   -24252199.56744 -18615196.85142  21365545.457    21365542.514
  20703910.842   -25804743.09944 -20039096.82742  20703912.694    20703910.622
  24338804.581    -7603674.79843  -5019664.37642  24338806.677    24338808.293
  23123768.215   -10068529.45943  -7831931.01842  23123769.538    23123768.813
  22498303.782   -13980272.14443 -10824799.02242  22498305.854    22498303.991
  23703508.438   -10426330.95343  -8104338.18042  23703510.387    23703509.873
  20873238.214   -27485102.29044 -21355647.88242  20873238.795    20873236.834
  22456135.324   -17842435.38443 -13884904.79942  22456136.912    22456133.480
 04  7 18  2  9 30.0000000  0  8G13G27G31G10G28G 3G 8G19
  21379558.218   -24178548.99343 -18557806.82842  21379560.705    21379557.769
  20703055.441   -25809238.25644 -20042599.54242  20703057.337    20703055.247
  24316923.627    -7718659.74743  -5109262.90442  24316925.573    24316927.317
  23123331.589   -10070824.17843  -7833719.11742  23123332.933    23123332.109
  22482926.634   -14061079.50943 -10887765.75742  22482928.713    22482926.815
  23715113.931   -10365343.66543  -8056815.65742  23715115.832    23715115.433
  20864943.836   -27528689.44544 -21389611.88342  20864944.409    20864942.428
  22453067.348   -17858557.47743 -13897467.45442  22453068.919    22453065.545
 04  7 18  2 10  0.0000000  0  8G13G27G31G10G28G 3G 8G19
  21393650.743   -24104492.44843 -18500100.46242  21393653.201    21393650.299
  20702239.560   -25813525.76144 -20045940.45242  20702241.449    20702239.398
  24295038.254    -7833668.04643  -5198879.62842  24295040.167    24295041.768
  23123004.409   -10072543.47943  -7835058.83942  23123005.750    23123005.001
  22467602.755   -14141606.71343 -10950514.17342  22467604.860    22467602.942
  23726809.670   -10303882.37143  -8008923.77142  23726811.547    23726811.122
  20856692.858   -27572048.53344 -21423398.16842  20856693.437    20856691.438
  22450104.101   -17874129.44843 -13909601.44242  22450105.659    22450102.308
 04  7 18  2 10 30.0000000  0  8G13G27G31G10G28G 3G 8G19
  21407821.281   -24030026.01143 -18442074.69942  21407823.716    21407820.843
  20701464.337   -25817599.51944 -20049114.80742  20701466.252    20701464.223
  24273149.872    -7948691.71243  -5288508.33842  24273151.761    24273153.353
  23122787.674   -10073682.41343  -7835946.31542  23122789.059    23122788.280
  22452333.373   -14221847.80943 -11013039.65542  22452335.496    22452333.460
  23738596.191   -10241943.79243  -7960659.96542  23738598.144    23738597.568
  20848486.538   -27615173.06844 -21457001.69042  20848487.117    20848485.089
  22447246.609   -17889145.55743 -13921302.28642  22447248.165    22447244.831
 04  7 18  2 11  0.0000000  0  8G13G27G31G10G28G 3G 8G19
  21422068.264   -23955157.76743 -18383735.83742  21422070.724    21422067.853
  20700728.558   -25821466.01244 -20052127.65742  20700730.466    20700728.464
  24251257.796    -8063734.75443  -5378152.14042  24251259.767    24251261.336
  23122680.040   -10074248.26443  -7836387.25042  23122681.386    23122680.553
  22437117.327   -14301808.49843 -11075346.63542  22437119.428    22437117.397
  23750471.970   -10179536.59743  -7912031.01442  23750473.873    23750473.139
  20840323.610   -27658069.56344 -21490427.51342  20840324.182    20840322.157
  22444493.779   -17903611.65343 -13932574.55442  22444495.324    22444491.995
 04  7 18  2 11 30.0000000  0  8G13G27G31G10G28G 3G 8G19
  21436392.122   -23879885.47843 -18325082.13642  21436394.586    21436391.708
  20700033.125   -25825120.71744 -20054975.47242  20700035.025    20700032.997
  24229363.322    -8178790.60943  -5467805.92742  24229365.199    24229366.880
  23122681.942   -10074237.90943  -7836379.17942  23122683.361    23122682.586
  22421955.582   -14381483.98843 -11137431.38742  22421957.656    22421955.602
  23762437.098   -10116659.00143  -7863035.51342  23762439.046    23762438.413
  20832204.887   -27700733.64344 -21523672.23442  20832205.461    20832203.451
  22441846.556   -17917522.99643 -13943414.54142  22441848.097    22441844.757
 04  7 18  2 12  0.0000000  0  8G13G27G31G10G28G 3G 8G19
  21450793.218   -23804207.29243 -18266112.15742  21450795.688    21450792.805
  20699378.679   -25828559.89944 -20057655.35042  20699380.586    20699378.527
  24207467.560    -8293853.05143  -5557464.85542  24207469.381    24207471.156
  23122794.093   -10073648.66443  -7835920.02442  23122795.529    23122794.781
  22406848.911   -14460869.96843 -11199290.54642  22406850.992    22406848.894
  23774492.004   -10053309.92643  -7813672.62342  23774493.867    23774493.478
  20824131.116   -27743161.55044 -21556732.93042  20824131.685    20824129.670
  22439305.737   -17930875.37243 -13953818.97942  22439307.307    22439303.857
 04  7 18  2 12 30.0000000  0  8G13G27G31G10G28G 3G 8G19
  21465270.240   -23728130.29843 -18206831.41542  21465272.696    21465269.809
  20698764.138   -25831789.20044 -20060171.68542  20698766.065    20698763.994
  24185569.894    -8408925.50743  -5647131.57942  24185571.857    24185573.444
  23123015.217   -10072486.92943  -7835014.78242  23123016.679    23123015.880
  22391796.320   -14539971.38343 -11260927.96242  22391798.430    22391796.394
  23786635.148    -9989497.42743  -7763948.62842  23786637.039    23786636.616
  20816101.291   -27785358.55844 -21589613.70142  20816101.844    20816099.824
  22436870.198   -17943673.76543 -13963791.74042  22436871.844    22436868.356
 04  7 18  2 13  0.0000000  0  8G13G27G31G10G28G 3G 8G19
  21479823.789   -23651651.14443 -18147237.31642  21479826.241    21479823.328
  20698190.651   -25834802.78944 -20062519.93642  20698192.573    20698190.536
  24163671.863    -8523999.91543  -5736799.82042  24163673.868    24163675.426
  23123346.129   -10070747.93943  -7833659.73542  23123347.628    23123346.722
  22376799.127   -14618782.09543 -11322338.86042  22376801.229    22376799.173
  23798867.227    -9925218.05143  -7713860.83142  23798869.139    23798868.600
  20808116.499   -27827318.92344 -21622310.07742  20808117.067    20808114.992
  22434541.243   -17955912.25243 -13973328.21742  22434542.893    22434539.427
 04  7 18  2 13 30.0000000  0  8G13G27G31G10G28G 3G 8G19
  21494452.253   -23574778.02843 -18087336.21142  21494454.738    21494451.826
  20697657.019   -25837607.01244 -20064705.04142  20697658.921    20697656.926
  24141772.700    -8639080.21043  -5826472.63542  24141774.737    24141776.180
  23123785.551   -10068439.15243  -7831860.68642  23123787.018    23123786.037
  22361856.119   -14697308.03243 -11383527.85742  22361858.203    22361856.133
  23811186.288    -9860480.82843  -7663416.27242  23811188.207    23811187.637
  20800175.478   -27869049.12844 -21654827.10842  20800176.051    20800173.979
  22432317.682   -17967596.89343 -13982433.11942  22432319.303    22432315.893
 04  7 18  2 14  0.0000000  0  8G13G27G31G10G28G 3G 8G19
  21509156.945   -23497504.24543 -18027122.90642  21509159.427    21509156.591
  20697164.897   -25840193.11344 -20066720.18042  20697166.812    20697164.801
  24119874.469    -8754155.52743  -5916141.58342  24119876.545    24119877.854
  23124334.742   -10065552.78443  -7829611.57242  23124336.199    23124335.324
  22346969.040   -14775540.15543 -11444487.90842  22346971.089    22346969.040
  23823593.669    -9795279.58043  -7612610.14542  23823595.563    23823595.062
  20792280.021   -27910539.96344 -21687157.62042  20792280.596    20792278.538
  22430201.320   -17978718.59943 -13991099.37542  22430202.895    22430199.483
 04  7 18  2 14 30.0000000  0  8G13G27G31G10G28G 3G 8G19
  21523936.931   -23419834.99143 -17966601.43542  21523939.396    21523936.585
  20696713.708   -25842564.09044 -20068567.69042  20696715.618    20696713.609
  24097977.117    -8869226.42743  -6005807.08642  24097979.218    24097980.493
  23124992.990   -10062093.32043  -7826915.89442  23124994.465    23124993.652
  22332137.411   -14853480.77043 -11505220.81142  22332139.449    22332137.377
  23836088.310    -9729620.05243  -7561446.91642  23836090.155    23836089.711
  20784429.535   -27951794.46944 -21719303.97642  20784430.120    20784428.083
  22428191.464   -17989280.07843 -13999329.08242  22428193.077    22428189.684
 04  7 18  2 15  0.0000000  0  8G13G27G31G10G28G 3G 8G19
  21538791.932   -23341771.66043 -17905772.89942  21538794.385    21538791.573
  20696303.526   -25844719.54344 -20070247.26242  20696305.436    20696303.433
  24076081.016    -8984290.27443  -6095467.07542  24076083.092    24076084.504
  23125760.289   -10058061.41743  -7823774.15942  23125761.704    23125760.966
  22317361.407   -14931129.02143 -11565725.89742  22317363.453    22317361.352
  23848669.702    -9663504.44343  -7509928.29842  23848671.560    23848671.118
  20776624.142   -27992812.33644 -21751265.94342  20776624.693    20776622.641
  22426288.417   -17999280.85343 -14007121.88142  22426290.008    22426286.583
 04  7 18  2 15 30.0000000  0  8G13G27G31G10G28G 3G 8G19
  21553721.303   -23263317.47843 -17844639.80342  21553723.758    21553720.911
  20695934.117   -25846660.66844 -20071759.82742  20695936.027    20695934.030
  24054186.626    -9099345.98843  -6185120.73242  24054188.629    24054189.877
  23126635.983   -10053459.60843  -7820188.35042  23126637.384    23126636.693
  22302640.787   -15008485.97743 -11626004.01542  22302642.872    22302640.770
  23861337.223    -9596936.43443  -7458057.15842  23861339.072    23861338.661
  20768863.499   -28033594.74644 -21783044.44142  20768864.055    20768862.017
  22424491.892   -18008721.66543 -14014478.34242  22424493.453    22424490.034
 04  7 18  2 16  0.0000000  0  8G13G27G31G10G28G 3G 8G19
  21568725.196   -23184471.64643 -17783201.52842  21568727.648    21568724.784
  20695606.093   -25848384.42844 -20073103.01842  20695608.013    20695606.012
  24032294.643    -9214388.45943  -6274764.05942  24032296.694    24032297.935
  23127620.508   -10048286.05943  -7816157.01342  23127621.868    23127621.244
  22287976.280   -15085548.18943 -11686052.45142  22287978.363    22287976.281
  23874090.884    -9529915.78443  -7405833.30542  23874092.768    23874092.319
  20761148.297   -28074138.34144 -21814636.84242  20761148.867    20761146.810
  22422802.482   -18017599.61943 -14021396.22042  22422804.046    22422800.615
 04  7 18  2 16 30.0000000  0  8G13G27G31G10G28G 3G 8G19
  21583803.280   -23105235.77243 -17721459.32342  21583805.752    21583802.854
  20695319.555   -25849890.31544 -20074276.43542  20695321.460    20695319.468
  24010405.782    -9329414.59743  -6364394.67442  24010407.817    24010408.974
  23128713.758   -10042541.24943  -7811680.55042  23128715.125    23128714.541
  22273368.060   -15162314.71243 -11745870.48842  22273370.127    22273368.037
  23886930.260    -9462444.51443  -7353258.33042  23886932.208    23886931.654
  20753478.695   -28114442.31744 -21846042.53542  20753479.240    20753477.189
  22421220.364   -18025913.85743 -14027874.84342  22421221.901    22421218.428
 04  7 18  2 17  0.0000000  0  8G13G27G31G10G28G 3G 8G19
  21598955.259   -23025611.92143 -17659414.79442  21598957.741    21598954.783
  20695074.461   -25851178.41744 -20075280.15242  20695076.358    20695074.339
  23988520.359    -9444422.27943  -6454010.89842  23988522.450    23988523.611
  23129915.356   -10036226.93743  -7806760.31642  23129916.687    23129916.141
  22258816.168   -15238785.43243 -11805458.03542  22258818.199    22258816.135
  23899854.835    -9394525.56043  -7300334.50442  23899856.849    23899856.268
  20745854.686   -28154506.65144 -21877261.49842  20745855.261    20745853.163
  22419745.523   -18033664.25043 -14033914.09442  22419747.077    22419743.550
 04  7 18  2 17 30.0000000  0  8G13G27G31G10G28G 3G 8G19
  21614180.679   -22945601.81543 -17597069.29542  21614183.184    21614180.247
  20694870.863   -25852248.36544 -20076113.87842  20694872.757    20694870.720
  23966639.034    -9559408.83143  -6543610.67242  23966641.124    23966642.195
  23131225.155   -10029343.68343  -7801396.74542  23131226.582    23131226.000
  22244320.786   -15314959.28043 -11864814.24542  22244322.795    22244320.662
  23912864.261    -9326161.08343  -7247063.51442  23912866.173    23912865.598
  20738276.234   -28194331.71244 -21908294.01142  20738276.804    20738274.704
  22418378.018   -18040850.47143 -14039513.73442  22418379.609    22418376.034
 04  7 18  2 18  0.0000000  0  8G13G27G31G10G28G 3G 8G19
  21629479.308   -22865207.07043 -17534424.07342  21629481.842    21629478.928
  20694708.949   -25853099.32244 -20076776.96542  20694710.843    20694708.767
  23944762.283    -9674371.20743  -6633191.60742  23944764.401    23944765.413
  23132643.155   -10021892.32843  -7795590.50142  23132644.511    23132643.925
  22229882.014   -15390835.35743 -11923938.41842  22229884.041    22229881.901
  23925958.007    -9257353.32043  -7193447.12042  23925959.810    23925959.366
  20730743.608   -28233916.12644 -21939139.00342  20730744.141    20730742.017
  22417117.898   -18047471.89643 -14044673.27642  22417119.543    22417115.988
 04  7 18  2 18 30.0000000  0  8G13G27G31G10G28G 3G 8G19
  21644851.265   -22784427.02943 -17471478.62142  21644853.798    21644850.955
  20694589.148   -25853728.76244 -20077267.44042  20694591.055    20694588.974
  23922891.112    -9789304.48043  -6722749.85742  23922893.178    23922894.249
  23134169.406   -10013871.64543  -7789340.62642  23134170.815    23134170.119
  22215500.448   -15466410.61543 -11982828.18442  22215502.516    22215500.350
  23939136.062    -9188102.07943  -7139485.14842  23939137.856    23939137.488
  20723257.231   -28273257.08444 -21969794.28642  20723257.793    20723255.673
  22415965.875   -18053525.58843 -14049390.42242  22415967.514    22415964.056
 04  7 18  2 19  0.0000000  0  8G13G27G31G10G28G 3G 8G19
  21660295.426   -22703267.64843 -17408237.58042  21660297.957    21660295.143
  20694510.813   -25854140.36844 -20077588.17842  20694512.706    20694510.671
  23901025.233    -9904209.98343  -6812286.48142  23901027.303    23901028.249
  23135803.075   -10005286.97143  -7782651.28342  23135804.473    23135803.818
  22201175.577   -15541688.39643 -12041486.15142  22201177.611    22201175.381
  23952397.416    -9118413.77843  -7085182.60642  23952399.159    23952398.778
  20715816.482   -28312358.46244 -22000262.89242  20715817.054    20715814.936
  22414921.209   -18059015.39143 -14053668.17842  22414922.846    22414919.370
 04  7 18  2 19 30.0000000  0  8G13G27G31G10G28G 3G 8G19
  21675812.055   -22621727.41043 -17344699.76842  21675814.570    21675811.784
  20694474.676   -25854330.16444 -20077736.07142  20694476.580    20694474.556
  23879165.876   -10019081.61143  -6901796.70842  23879167.928    23879168.787
  23137544.481    -9996135.69443  -7775520.42342  23137545.853    23137545.285
  22186908.045   -15616664.64243 -12099909.15642  22186910.093    22186907.795
  23965742.042    -9048287.38543  -7030538.70442  23965743.900    23965743.443
  20708422.113   -28351216.13544 -22030541.59042  20708422.682    20708420.558
  22413984.557   -18063937.37143 -14057503.47242  22413986.254    22413982.734
 04  7 18  2 20  0.0000000  0  8G13G27G31G10G28G 3G 8G19
  21691400.556   -22539809.47143 -17280867.64142  21691403.030    21691400.254
  20694480.490   -25854299.74444 -20077712.36942  20694482.372    20694480.332
  23857313.038   -10133918.36643  -6991279.75742  23857315.195    23857315.926
  23139393.138    -9986420.53443  -7767950.17542  23139394.582    23139393.938
  22172697.661   -15691340.44143 -12158098.04742  22172699.735    22172697.422
  23979169.303    -8977726.90443  -6975556.53542  23979171.152    23979170.693
  20701073.845   -28389831.50244 -22060631.47542  20701074.419    20701072.291
  22413155.762   -18068293.05943 -14060897.50142  22413157.400    22413153.870
 04  7 18  2 20 30.0000000  0  8G13G27G31G10G28G 3G 8G19
  21707061.191   -22457512.54743 -17216740.19542  21707063.659    21707060.841
  20694528.924   -25854045.20444 -20077514.02742  20694530.802    20694528.764
  23835468.065   -10248714.21343  -7080730.92442  23835470.142    23835470.843
  23141349.701    -9976139.20243  -7759938.75242  23141351.070    23141350.388
  22158545.194   -15765711.90543 -12216049.79242  22158547.249    22158544.966
  23992679.183    -8906731.67043  -6920235.59642  23992681.063    23992680.577
  20693772.455   -28428200.83644 -22090529.65042  20693773.012    20693770.809
  22412435.301   -18072078.77143 -14063847.39442  22412436.978    22412433.500
 04  7 18  2 21  0.0000000  0  8G13G27G31G10G28G 3G 8G19
  21722793.058   -22374841.13243 -17152320.95442  21722795.515    21722792.685
  20694619.532   -25853569.07944 -20077143.02342  20694621.413    20694619.364
  23813630.891   -10363469.16543  -7170150.24742  23813633.000    23813633.588
  23143413.135    -9965295.69843  -7751489.27642  23143414.500    23143413.761
  22144450.276   -15839780.93743 -12273765.88442  22144452.335    22144450.038
  24006270.848    -8835306.83443  -6864579.92342  24006272.733    24006272.276
  20686517.409   -28466326.45244 -22120237.91642  20686517.970    20686515.750
  22411822.913   -18075296.98143 -14066355.07842  22411824.522    22411821.110
 04  7 18  2 21 30.0000000  0  8G13G27G31G10G28G 3G 8G19
  21738595.929   -22291796.57143 -17087610.94042  21738598.400    21738595.549
  20694752.555   -25852869.83544 -20076598.15942  20694754.468    20694752.432
  23791802.085   -10478179.81443  -7259535.03642  23791804.228    23791804.759
  23145583.582    -9953890.25243  -7742601.93242  23145584.935    23145584.154
  22130413.116   -15913546.41343 -12331245.43542  22130415.171    22130412.873
  24019944.047    -8763454.07843  -6808590.80942  24019945.894    24019945.439
  20679309.023   -28504206.75344 -22149755.02342  20679309.582    20679307.377
  22411318.767   -18077946.46043 -14068419.59642  22411320.325    22411316.929
 04  7 18  2 22  0.0000000  0  9G13G27G31G29G10G28G 3G 8G19
  21754468.541   -22208385.73843 -17022615.52742  21754470.988    21754468.137
  20694927.103   -25851952.62144 -20075883.44942  20694929.026    20694926.987
  23769981.250   -10592848.47043  -7348887.11042  23769983.495    23769983.935
  24761572.050    -6651121.32253  -4833835.87552  24761574.515    24761573.435
  23147859.697    -9941929.20343  -7733281.64042  23147861.027    23147860.230
  22116432.892   -15987012.83143 -12388491.96142  22116434.945    22116432.605
  24033697.172    -8691180.94643  -6752274.10642  24033699.091    24033698.449
  20672146.399   -28541846.52244 -22179084.70042  20672146.969    20672144.751
  22410921.744   -18080032.57643 -14070045.13142  22410923.343    22410919.889
 04  7 18  2 22 30.0000000  0  9G13G27G31G29G10G28G 3G 8G19
  21770412.948   -22124597.36743 -16957325.92542  21770415.428    21770412.580
  20695145.744   -25850803.68144 -20074988.17642  20695147.677    20695145.636
  23748171.368   -10707459.25843  -7438194.07342  23748173.613    23748174.080
  24742304.694    -6752371.69243  -4912732.21842  24742307.105    24742306.079
  23150243.778    -9929400.72843  -7723519.21542  23150245.063    23150244.318
  22102512.292   -16060165.94943 -12445494.36342  22102514.339    22102511.995
  24047532.404    -8618476.52243  -6695621.33042  24047534.280    24047533.665
  20665032.077   -28579232.49444 -22208216.61742  20665032.647    20665030.426
  22410634.652   -18081541.48243 -14071220.89042  22410636.237    22410632.732
 04  7 18  2 23  0.0000000  0  9G13G27G31G29G10G28G 3G 8G19
  21786427.014   -22040443.03043 -16891751.16042  21786429.487    21786426.669
  20695406.692   -25849432.33944 -20073919.60142  20695408.626    20695406.627
  23726371.188   -10822019.28543  -7527461.50942  23726373.391    23726373.960
  24723051.639    -6853547.00443  -4991570.08042  24723054.032    24723053.053
  23152733.742    -9916316.09043  -7713323.38942  23152735.035    23152734.300
  22088649.511   -16133015.07643 -12502259.87942  22088651.581    22088649.264
  24061447.348    -8545353.19743  -6638642.15542  24061449.200    24061448.627
  20657964.326   -28616373.70944 -22237157.81942  20657964.902    20657962.692
  22410455.484   -18082482.94543 -14071954.49742  22410457.085    22410453.591
 04  7 18  2 23 30.0000000  0  9G13G27G31G29G10G28G 3G 8G19
  21802511.399   -21955919.08543 -16825888.38342  21802513.848    21802511.093
  20695711.075   -25847832.80344 -20072673.21142  20695712.990    20695711.010
  23704582.311   -10936520.31043  -7616682.97142  23704584.450    23704585.068
  24703814.333    -6954639.84943  -5070343.69042  24703816.774    24703815.824
  23155330.313    -9902670.86643  -7702690.75042  23155331.633    23155330.929
  22074845.777   -16205554.05643 -12558783.72642  22074847.840    22074845.564
  24075442.605    -8471807.91243  -6581334.18642  24075444.458    24075443.872
  20650944.373   -28653263.91344 -22265903.42142  20650944.936    20650942.729
  22410385.391   -18082851.01443 -14072241.29442  22410386.985    22410383.570
 04  7 18  2 24  0.0000000  0  9G13G27G31G29G10G28G 3G 8G19
  21818665.191   -21871030.26343 -16759741.28842  21818667.681    21818664.923
  20696058.439   -25846007.47544 -20071250.88242  20696060.359    20696058.375
  23682804.579   -11050962.29343  -7705858.41742  23682806.685    23682807.285
  24684592.437    -7055651.12843  -5149053.71442  24684595.032    24684594.028
  23158032.812    -9888468.98843  -7691624.36842  23158034.108    23158033.430
  22061100.649   -16277785.03743 -12615067.56942  22061102.729    22061100.443
  24089517.083    -8397846.14243  -6523701.65742  24089518.947    24089518.315
  20643971.647   -28689905.68844 -22294455.44642  20643972.215    20643969.991
  22410423.939   -18082648.50543 -14072083.49042  22410425.496    22410422.082
 04  7 18  2 24 30.0000000  0  9G13G27G31G29G10G28G 3G 8G19
  21834887.914   -21785779.46943 -16693312.13742  21834890.386    21834887.591
  20696448.668   -25843956.80744 -20069652.96342  20696450.587    20696448.618
  23661038.502   -11165343.38643  -7794986.42242  23661040.594    23661041.144
  24665386.384    -7156579.79743  -5227699.39942  24665389.024    24665387.810
  23160840.915    -9873712.71143  -7680125.97842  23160842.228    23160841.533
  22047414.091   -16349708.22443 -12671111.57342  22047416.164    22047413.869
  24103670.238    -8323471.08443  -6465747.10442  24103672.064    24103671.434
  20637046.187   -28726299.16444 -22322813.99042  20637046.750    20637044.516
  22410570.966   -18081876.03943 -14071481.56842  22410572.519    22410569.045
 04  7 18  2 25  0.0000000  0  9G13G27G31G29G10G28G 3G 8G19
  21851179.367   -21700167.40243 -16626601.47542  21851181.827    21851179.057
  20696882.115   -25841679.04344 -20067878.08342  20696884.016    20696882.040
  23639284.841   -11279659.66943  -7884063.93442  23639286.838    23639287.357
  24646196.567    -7257422.67843  -5306278.22042  24646199.151    24646197.952
  23163754.462    -9858402.04343  -7668195.60142  23163755.785    23163755.098
  22033786.358   -16421322.20043 -12726914.61742  22033788.435    22033786.119
  24117901.746    -8248684.06143  -6407471.53042  24117903.671    24117902.919
  20630168.288   -28762442.77044 -22350977.82842  20630168.864    20630166.630
  22410826.518   -18080532.93343 -14070434.98242  22410828.078    22410824.641
 04  7 18  2 25 30.0000000  0  9G13G27G31G29G10G28G 3G 8G19
  21867539.976   -21614191.98543 -16559607.68742  21867542.424    21867539.701
  20697359.571   -25839169.92144 -20065922.92942  20697361.485    20697359.507
  23617544.678   -11393904.41543  -7973085.70042  23617546.662    23617547.331
  24627024.255    -7358173.86743  -5384785.59542  24627026.754    24627025.688
  23166773.950    -9842534.35443  -7655831.18042  23166775.323    23166774.650
  22020218.367   -16492622.37043 -12782473.14342  22020220.429    22020218.100
  24132211.886    -8173483.69743  -6348873.88742  24132213.845    24132213.099
  20623338.677   -28798332.36144 -22378943.73742  20623339.259    20623337.084
  22411191.572   -18078614.70043 -14068940.25542  22411193.113    22411189.705
 04  7 18  2 26  0.0000000  0  9G13G27G31G29G10G28G 3G 8G19
  21883968.191   -21527861.23743 -16492337.01042  21883970.621    21883967.999
  20697880.003   -25836435.12944 -20063791.92342  20697881.886    20697879.936
  23595817.535   -11508080.85143  -8062054.24742  23595819.587    23595820.189
  24607868.594    -7458837.38843  -5463224.64542  24607871.121    24607870.000
  23169898.094    -9826117.05743  -7643038.49842  23169899.440    23169898.712
  22006709.021   -16563614.24043 -12837791.43342  22006711.094    22006708.748
  24146599.087    -8097878.40543  -6289960.70742  24146601.040    24146600.402
  20616556.394   -28833973.25044 -22406715.85342  20616556.984    20616554.834
  22411664.825   -18076127.48643 -14067002.16342  22411666.367    22411663.014
 04  7 18  2 26 30.0000000  0  9G13G27G31G29G10G28G 3G 8G19
  21900465.016   -21441170.02043 -16424785.45042  21900467.488    21900464.847
  20698444.812   -25833467.13344 -20061479.19842  20698446.701    20698444.734
  23574105.316   -11622179.23343  -8150961.97742  23574107.395    23574107.803
  24588731.223    -7559404.46843  -5541588.55142  24588733.924    24588732.738
  23173127.932    -9809144.53643  -7629813.16342  23173129.283    23173128.390
  21993259.783   -16634290.09543 -12892863.48242  21993261.899    21993259.521
  24161064.186    -8021863.72043  -6230728.51942  24161066.005    24161065.536
  20609822.886   -28869357.88344 -22434288.28542  20609823.462    20609821.347
  22412247.712   -18073064.30843 -14064615.27242  22412249.234    22412245.886
 04  7 18  2 27  0.0000000  0  9G13G27G31G29G10G28G 3G 8G19
  21917029.000   -21354125.83843 -16356958.85742  21917031.467    21917028.859
  20699053.039   -25830270.96844 -20058988.68342  20699054.927    20699052.932
  23552407.405   -11736202.29043  -8239811.02542  23552409.531    23552409.819
  24569611.620    -7659878.55043  -5619879.99542  24569614.223    24569613.054
  23176461.999    -9791623.84043  -7616160.68042  23176463.423    23176462.476
  21979869.728   -16704655.23443 -12947693.41942  21979871.832    21979869.438
  24175605.656    -7945447.57843  -6171183.51642  24175607.492    24175607.094
  20603137.295   -28904491.07944 -22461664.79142  20603137.830    20603135.722
  22412939.174   -18069430.53043 -14061783.76142  22412940.706    22412937.327
 04  7 18  2 27 30.0000000  0  9G13G27G31G29G10G28G 3G 8G19
  21933659.632   -21266731.50843 -16288859.41942  21933662.092    21933659.499
  20699704.573   -25826847.17944 -20056320.79942  20699706.473    20699704.478
  23530724.160   -11850148.04143  -8328599.82642  23530726.374    23530726.618
  24550509.954    -7760258.28243  -5698097.91542  24550512.492    24550511.335
  23179900.075    -9773557.05543  -7602082.67642  23179901.492    23179900.518
  21966538.717   -16774709.80043 -13002281.34842  21966540.833    21966538.429
  24190222.896    -7868633.54143  -6111328.46742  24190224.807    24190224.366
  20596499.344   -28939373.59044 -22488845.95542  20596499.906    20596497.814
  22413739.037   -18065227.23843 -14058508.46042  22413740.583    22413737.151
 04  7 18  2 28  0.0000000  0  9G13G27G31G29G10G28G 3G 8G19
  21950357.784   -21178982.36143 -16220483.50242  21950360.222    21950357.655
  20700400.809   -25823188.48544 -20053469.87442  20700402.717    20700400.721
  23509057.412   -11964006.96643  -8417320.97342  23509059.719    23509059.883
  24531427.875    -7860535.17143  -5776235.69042  24531430.325    24531429.119
  23183442.958    -9754939.17443  -7587575.24142  23183444.357    23183443.437
  21953268.182   -16844446.70143 -13056621.74642  21953270.268    21953267.913
  24204916.689    -7791417.63743  -6051160.25742  24204918.561    24204918.102
  20589910.645   -28973997.40344 -22515825.53742  20589911.215    20589909.119
  22414648.513   -18060447.93043 -14054784.31842  22414650.049    22414646.586
 04  7 18  2 28 30.0000000  0  9G13G27G31G29G10G28G 3G 8G19
  21967121.811   -21090887.04543 -16151837.84442  21967124.250    21967121.718
  20701140.570   -25819300.96944 -20050440.64442  20701142.472    20701140.501
  23487406.513   -12077782.76143  -8505977.34742  23487408.759    23487408.983
  24512364.569    -7960713.76243  -5854296.87442  24512367.015    24512365.731
  23187089.024    -9735778.14243  -7572644.57042  23187090.524    23187089.723
  21940057.075   -16913871.51843 -13110718.97442  21940059.124    21940056.785
  24219685.253    -7713808.61343  -5990685.73142  24219687.076    24219686.666
  20583369.869   -29008369.37944 -22542608.87942  20583370.447    20583368.337
  22415666.372   -18055098.81443 -14050616.16942  22415667.939    22415664.479
 04  7 18  2 29  0.0000000  0  9G13G27G31G29G10G28G 3G 8G19
  21983953.145   -21002437.64043 -16082916.27542  21983955.603    21983953.108
  20701925.758   -25815174.59844 -20047225.29542  20701927.665    20701925.733
  23465773.878   -12191462.95143  -8594559.20942  23465775.984    23465776.254
  24493322.072    -8060782.36843  -5932272.36242  24493324.523    24493323.271
  23190840.269    -9716065.69943  -7557284.21942  23190841.741    23190840.882
  21926907.258   -16982974.09243 -13164565.09842  21926909.312    21926906.986
  24234529.901    -7635799.58343  -5929899.50342  24234531.829    24234531.381
  20576879.019   -29042478.91744 -22569187.73242  20576879.607    20576877.492
  22416794.599   -18049170.08743 -14045996.39042  22416796.096    22416792.614
 04  7 18  2 29 30.0000000  0  9G13G27G31G29G10G28G 3G 8G19
  22000849.242   -20913648.09743 -16013729.65742  22000851.703    22000849.201
  20702754.271   -25810820.78144 -20043832.71442  20702756.149    20702754.230
  23444157.657   -12305056.54343  -8683073.59542  23444159.783    23444159.976
  24474298.625    -8160750.87443  -6010169.87342  24474301.094    24474299.815
  23194693.756    -9695815.25543  -7541504.66942  23194695.295    23194694.440
  21913816.606   -17051765.96643 -13218169.11442  21913818.674    21913816.330
  24249447.857    -7557404.91543  -5868812.78942  24249449.828    24249449.429
  20570435.927   -29076337.62644 -22595571.13742  20570436.488    20570434.394
  22418030.719   -18042674.04843 -14040934.53642  22418032.262    22418028.724
 04  7 18  2 30  0.0000000  0  9G13G27G31G29G10G28G 3G 8G19
  22017810.947   -20824514.29043 -15944274.79842  22017813.357    22017810.798
  20703627.337   -25806232.83244 -20040257.69142  20703629.191    20703627.291
  23422559.636   -12418554.61243  -8771513.56142  23422561.723    23422561.887
  24455295.892    -8260610.91543  -6087982.85942  24455298.375    24455297.088
  23198650.633    -9675022.13943  -7525302.25142  23198652.100    23198651.257
  21900786.344   -17120240.44143 -13271525.80242  21900788.445    21900786.011
  24264439.916    -7478620.87243  -5807422.65242  24264441.926    24264441.632
  20564041.935   -29109938.21044 -22621753.38942  20564042.503    20564040.388
  22419376.019   -18035604.57943 -14035425.85742  22419377.571    22419374.017
 04  7 18  2 30 30.0000000  0  9G13G27G31G29G10G28G 3G 8G19
  22034838.596   -20735033.59643 -15874549.62642  22034841.027    22034838.370
  20704545.900   -25801405.66944 -20036496.26642  20704547.764    20704545.885
  23400981.171   -12531949.68743  -8859873.26642  23400983.253    23400983.432
  24436314.961    -8360355.95543  -6165706.23442  24436317.372    24436316.160
  23202711.239    -9653683.27043  -7508674.57742  23202712.728    23202711.942
  21887817.459   -17188392.19643 -13324631.01342  21887819.577    21887817.101
  24279506.513    -7399445.38343  -5745727.52442  24279508.394    24279508.201
  20557697.994   -29143275.90944 -22647730.80242  20557698.557    20557696.414
  22420831.267   -18027957.22743 -14029466.86942  22420832.831    22420829.240
 04  7 18  2 31  0.0000000  0  9G13G27G31G29G10G28G 3G 8G19
  22051930.134   -20645217.07443 -15804562.77942  22051932.564    22051929.928
  20705508.346   -25796348.01244 -20032555.23442  20705510.194    20705508.318
  23379421.124   -12645247.96643  -8948157.56042  23379423.254    23379423.373
  24417354.631    -8459993.11043  -6243345.55642  24417357.072    24417355.973
  23206873.693    -9631809.35043  -7491629.97642  23206875.181    23206874.361
  21874908.353   -17256229.66343 -13377491.31842  21874910.450    21874908.015
  24294645.456    -7319890.27143  -5683736.55742  24294647.342    24294647.110
  20551402.487   -29176358.96344 -22673509.79042  20551403.081    20551400.912
  22422394.780   -18019740.79343 -14023064.45142  22422396.376    22422392.765
 04  7 18  2 31 30.0000000  0  9G13G27G31G29G10G28G 3G 8G19
  22069086.925   -20555057.81443 -15734308.86042  22069089.374    22069086.760
  20706516.437   -25791050.44944 -20028427.26442  20706518.298    20706516.410
  23357881.736   -12758437.78943  -9036357.33642  23357883.764    23357883.937
  24398416.881    -8559511.37243  -6320892.22042  24398419.292    24398418.175
  23211139.297    -9609393.25143  -7474162.90442  23211140.806    23211139.998
  21862060.769   -17323743.86843 -13430099.75142  21862062.852    21862060.419
  24309857.713    -7239949.36743  -5621444.96742  24309859.596    24309859.444
  20545157.237   -29209178.00844 -22699083.06742  20545157.831    20545155.645
  22424068.146   -18010947.25743 -14016212.34042  22424069.735    22424066.138
 04  7 18  2 32  0.0000000  0  9G13G27G31G29G10G28G 3G 8G19
  22086307.224   -20464564.57543 -15663794.69942  22086309.691    22086307.111
  20707569.062   -25785518.83544 -20024116.92042  20707570.947    20707569.032
  23336362.307   -12871522.62443  -9124475.31142  23336364.361    23336364.505
  24379500.935    -8658914.96343  -6398349.52842  24379503.381    24379502.330
  23215506.501    -9586442.81743  -7456279.46142  23215508.069    23215507.316
  21849273.534   -17390940.77243 -13482460.93742  21849275.624    21849273.213
  24325141.756    -7159631.57043  -5558859.71042  24325143.653    24325143.504
  20538961.057   -29241739.15144 -22724455.37842  20538961.644    20538959.442
  22425850.014   -18001583.28843 -14008915.72942  22425851.612    22425848.062
 04  7 18  2 32 30.0000000  0  9G13G27G31G29G10G28G 3G 8G19
  22103591.654   -20373734.37443 -15593017.96942  22103594.111    22103591.607
  20708667.217   -25779748.01344 -20019620.17942  20708669.114    20708667.187
  23314864.296   -12984494.91443  -9212505.57742  23314866.360    23314866.493
  24360608.171    -8758197.20543  -6475712.27942  24360610.541    24360609.506
  23219976.176    -9562954.94443  -7437977.23442  23219977.679    23219976.973
  21836547.812   -17457815.01043 -13534570.70142  21836549.853    21836547.433
  24340497.888    -7078934.68343  -5495979.05742  24340499.759    24340499.703
  20532814.992   -29274037.06444 -22749622.57642  20532815.583    20532813.349
  22427741.257   -17991644.29543 -14001171.05742  22427742.873    22427739.382
 04  7 18  2 33  0.0000000  0  9G13G27G31G29G10G28G 3G 8G19
  22120938.938   -20282574.09043 -15521984.03942  22120941.360    22120938.885
  20709810.128   -25773742.12044 -20014940.26442  20709812.009    20709810.081
  23293387.432   -13097356.33543  -9300449.45542  23293389.406    23293389.532
  24341737.937    -8857360.61843  -6552982.43642  24341740.320    24341739.346
  23224546.902    -9538935.91343  -7419261.12642  23224548.433    23224547.684
  21823882.642   -17524370.90843 -13586432.39742  21823884.651    21823882.241
  24355924.695    -6997865.86043  -5432808.57942  24355926.720    24355926.470
  20526718.350   -29306075.41344 -22774587.51542  20526718.921    20526716.679
  22429741.176   -17981135.10843 -13992982.07942  22429742.699    22429739.214
 04  7 18  2 33 30.0000000  0  9G13G27G31G29G10G28G 3G 8G19
  22138349.487   -20191081.49843 -15450691.16342  22138351.896    22138349.417
  20710998.617   -25767496.67444 -20010073.68542  20711000.515    20710998.574
  23271932.902   -13210100.09443  -9388301.64342  23271934.865    23271934.966
  24322891.508    -8956399.07143  -6630155.21842  24322893.940    24322892.742
  23229219.072    -9514383.37043  -7400129.28842  23229220.595    23229220.001
  21811278.932   -17590603.90043 -13638042.48842  21811280.936    21811278.489
  24371422.597    -6916423.89443  -5369347.33442  24371424.545    24371424.306
  20520671.748   -29337850.33744 -22799347.18342  20520672.343    20520670.085
  22431850.327   -17970051.86943 -13984345.78942  22431851.792    22431848.344
 04  7 18  2 34  0.0000000  0  9G13G27G31G29G10G28G 3G 8G19
  22155822.485   -20099260.58743 -15379142.44942  22155824.898    22155822.390
  20712232.484   -25761012.75944 -20005021.28142  20712234.384    20712232.416
  23250500.979   -13322724.90143  -9476061.13342  23250502.945    23250503.137
  24304069.034    -9055311.99743  -6707230.18342  24304071.455    24304070.162
  23233992.152    -9489300.59643  -7380584.27242  23233993.694    23233993.091
  21798736.382   -17656515.23943 -13689401.92542  21798738.397    21798735.924
  24386990.801    -6834613.14443  -5305598.73242  24386992.678    24386992.524
  20514675.124   -29369362.54544 -22823902.13842  20514675.720    20514673.484
  22434068.216   -17958396.67243 -13975263.81542  22434069.714    22434066.297
 04  7 18  2 34 30.0000000  0  9G13G27G31G29G10G28G 3G 8G19
  22173358.163   -20007110.23843 -15307337.03042  22173360.575    22173358.044
  20713512.307   -25754287.06044 -19999780.47642  20713514.220    20713512.273
  23229092.897   -13435224.93543  -9563723.39942  23229094.838    23229095.113
  24285271.254    -9154094.62343  -6784203.61642  24285273.741    24285272.433
  23238866.477    -9463686.46343  -7360625.22142  23238867.962    23238867.214
  21786255.586   -17722101.85543 -13740508.33742  21786257.649    21786255.168
  24402629.277    -6752432.91843  -5241562.22942  24402631.133    24402630.931
  20508729.303   -29400607.90444 -22848249.16442  20508729.890    20508727.677
  22436395.401   -17946167.18843 -13965734.34542  22436396.906    22436393.527
 04  7 18  2 35  0.0000000  0  9G13G27G31G29G10G28G 3G 8G19
  22190955.670   -19914634.99943 -15235278.45742  22190958.094    22190955.551
  20714837.854   -25747321.19144 -19994352.53242  20714839.782    20714837.848
  23207708.637   -13547599.66343  -9651288.02842  23207710.647    23207710.865
  24266498.281    -9252747.08043  -6861075.60642  24266500.757    24266499.480
  23243841.091    -9437544.98343  -7340255.26542  23243842.552    23243841.787
  21773836.408   -17787365.24643 -13791362.89142  21773838.435    21773835.903
  24418336.909    -6669888.45443  -5177241.90842  24418338.876    24418338.639
  20502833.886   -29431588.53544 -22872389.90642  20502834.462    20502832.253
  22438831.374   -17933365.78043 -13955759.21542  22438832.921    22438829.584
 04  7 18  2 35 30.0000000  0  9G13G27G31G29G10G28G 3G 8G19
  22208614.237   -19821838.61343 -15162969.63142  22208616.707    22208614.172
  20716208.859   -25740116.43344 -19988738.43942  20716210.777    20716208.878
  23186348.569   -13659847.68743  -9738753.92442  23186350.556    23186350.669
  24247750.171    -9351268.57343  -6937845.54042  24247752.635    24247751.399
  23248915.395    -9410879.40943  -7319476.90442  23248916.874    23248916.082
  21761478.494   -17852306.47443 -13841966.41642  21761480.528    21761477.981
  24434113.104    -6586983.96243  -5112641.05342  24434115.088    24434114.830
  20496988.647   -29462305.46944 -22896325.16842  20496989.237    20496987.033
  22441375.845   -17919994.32743 -13945339.89442  22441377.402    22441374.095
 04  7 18  2 36  0.0000000  0  9G13G27G31G29G10G28G 3G 8G19
  22226334.238   -19728719.42743 -15090409.27642  22226336.712    22226334.203
  20717626.208   -25732668.45144 -19982934.81942  20717628.099    20717626.193
  23165013.739   -13771962.33543  -9826115.87442  23165015.804    23165015.883
  24229028.208    -9449653.35243  -7014508.94342  24229030.621    24229029.350
  23254089.729    -9383687.93943  -7298288.76942  23254091.179    23254090.501
  21749182.675   -17916921.20043 -13892315.51042  21749184.707    21749182.196
  24449958.243    -6503718.08243  -5047758.58642  24449960.049    24449959.871
  20491194.448   -29492754.16544 -22920051.41642  20491195.014    20491192.850
  22444029.481   -17906049.57043 -13934473.84842  22444031.034    22444027.672
 04  7 18  2 36 30.0000000  0  9G13G27G31G29G10G28G 3G 8G19
  22244115.378   -19635278.77743 -15017598.43642  22244117.877    22244115.429
  20719089.981   -25724976.45344 -19976941.06142  20719091.859    20719089.932
  23143704.888   -13883940.54843  -9913371.50742  23143706.989    23143707.010
  24210332.619    -9547899.16343  -7091064.07942  24210335.039    24210333.764
  23259363.953    -9355971.91143  -7276691.87742  23259365.402    23259364.641
  21736949.070   -17981209.10143 -13942409.94642  21736951.088    21736948.572
  24465871.539    -6420093.27943  -4982596.44142  24465873.390    24465873.170
  20485451.464   -29522933.71344 -22943567.93942  20485452.040    20485449.874
  22446792.226   -17891531.44143 -13923161.02342  22446793.777    22446790.394
 04  7 18  2 37  0.0000000  0  9G13G27G31G29G10G28G 3G 8G19
  22261957.121   -19541520.12643 -14944539.79542  22261959.552    22261957.174
  20720600.147   -25717040.36944 -19970757.10142  20720602.046    20720600.123
  23122422.579   -13995779.79043 -10000518.88342  23122424.646    23122424.603
  24191663.816    -9646004.13443  -7167509.45642  24191666.244    24191664.871
  23264737.432    -9327734.06643  -7254688.37342  23264738.833    23264738.097
  21724777.767   -18045169.82143 -13992249.43242  21724779.759    21724777.213
  24481852.579    -6336112.70943  -4917157.06742  24481854.427    24481853.981
  20479759.621   -29552844.36244 -22966874.93642  20479760.219    20479758.032
  22449663.876   -17876440.61343 -13911401.92842  22449665.472    22449662.082
 04  7 18  2 37 30.0000000  0  9G13G27G31G29G10G28G 3G 8G19
  22279858.080   -19447450.21443 -14871238.61542  22279860.518    22279858.167
  20722155.883   -25708864.99244 -19964386.67742  20722157.776    20722155.826
  23101166.285   -14107482.34843 -10087559.72542  23101168.334    23101168.207
  24173021.144    -9743971.44843  -7243847.56042  24173023.664    24173022.379
  23270208.984    -9298981.02743  -7232283.42342  23270210.362    23270209.635
  21712667.707   -18108808.51543 -14041837.99442  21712669.718    21712667.136
  24497899.821    -6251784.18243  -4851446.56142  24497901.769    24497901.257
  20474118.170   -29582490.37844 -22989975.72242  20474118.753    20474116.538
  22452643.343   -17860783.40743 -13899201.50242  22452644.933    22452641.515
 04  7 18  2 38  0.0000000  0  9G13G27G31G29G10G28G 3G 8G19
  22297819.375   -19353063.22643 -14797690.36342  22297821.816    22297819.467
  20723758.758   -25700441.75744 -19957823.11942  20723760.690    20723758.700
  23079937.980   -14219037.39043 -10174485.62942  23079940.026    23079939.826
  24154406.671    -9841790.99543  -7320070.53342  24154409.135    24154407.816
  23275779.707    -9269706.88443  -7209472.42242  23275781.121    23275780.384
  21700620.442   -18172116.89143 -14091169.15742  21700622.507    21700619.932
  24514014.240    -6167102.50043  -4785460.87342  24514016.152    24514015.640
  20468528.721   -29611863.32144 -23012863.72142  20468529.301    20468527.025
  22455732.044   -17844552.26143 -13886553.84842  22455733.577    22455730.176
 04  7 18  2 38 30.0000000  0  9G13G27G31G29G10G28G 3G 8G19
  22315840.116   -19258363.81043 -14723898.65742  22315842.532    22315840.175
  20725408.445   -25691772.62544 -19951067.95642  20725410.363    20725408.386
  23058737.848   -14330444.34843 -10261296.13642  23058739.910    23058739.698
  24135820.212    -9939462.86243  -7396178.41742  24135822.602    24135821.262
  23281448.718    -9239915.72943  -7186258.54442  23281450.099    23281449.514
  21688635.678   -18235097.09943 -14140244.61742  21688637.739    21688635.168
  24530194.921    -6082072.49743  -4719203.76842  24530196.879    24530196.424
  20462990.944   -29640964.57544 -23035540.01742  20462991.527    20462989.224
  22458929.417   -17827749.93943 -13873461.12842  22458930.961    22458927.555
 04  7 18  2 39  0.0000000  0  9G13G27G31G29G10G28G 3G 8G19
  22333919.353   -19163356.65643 -14649867.14842  22333921.828    22333919.445
  20727104.513   -25682859.56244 -19944122.71842  20727106.450    20727104.499
  23037566.027   -14441702.90143 -10347991.02742  23037568.012    23037567.785
  24117261.822   -10036987.65243  -7472171.69642  24117264.206    24117262.994
  23287215.238    -9209612.17343  -7162645.39942  23287216.640    23287216.117
  21676712.951   -18297751.29843 -14189066.02542  21676715.004    21676712.439
  24546440.822    -5996699.50243  -4652679.39342  24546442.823    24546442.361
  20457504.411   -29669796.38144 -23058006.35542  20457504.997    20457502.717
  22462234.873   -17810379.69543 -13859925.87042  22462236.408    22462233.001
 04  7 18  2 39 30.0000000  0  9G13G27G31G29G10G28G 3G 8G19
  22352057.023   -19068042.78743 -14575596.65142  22352059.486    22352057.138
  20728847.352   -25673701.06144 -19936986.22742  20728849.254    20728847.293
  23016423.148   -14552809.08543 -10434567.16742  23016425.162    23016424.828
  24098732.022   -10134362.01843  -7548047.75642  24098734.473    24098733.274
  23293079.184    -9178796.96643  -7138633.56342  23293080.580    23293079.997
  21664852.565   -18360077.91443 -14237632.18542  21664854.619    21664852.028
  24562751.758    -5910985.27143  -4585889.11442  24562753.605    24562753.343
  20452069.462   -29698357.25544 -23080261.57942  20452070.021    20452067.754
  22465648.385   -17792441.12943 -13845947.76242  22465649.952    22465646.575
 04  7 18  2 40  0.0000000  0  9G13G27G31G29G10G28G 3G 8G19
  22370253.089   -18972422.10043 -14501087.07042  22370255.527    22370253.216
  20730637.444   -25664294.25744 -19929656.25742  20730639.334    20730637.372
  22995310.334   -14663757.50543 -10521020.39542  22995312.286    22995311.862
  24080231.777   -10231581.42943  -7623803.08542  24080234.223    24080233.070
  23299040.658    -9147469.76943  -7114222.79342  23299041.947    23299041.285
  21653055.033   -18422074.22243 -14285940.96142  21653057.059    21653054.484
  24579127.503    -5824930.28143  -4518833.31242  24579129.324    24579129.177
  20446686.608   -29726644.23444 -23102303.37742  20446687.171    20446684.905
  22469170.575   -17773932.24943 -13831525.25142  22469172.080    22469168.692
 04  7 18  2 40 30.0000000  0  9G13G27G31G29G10G28G 3G 8G19
  22388507.002   -18876497.44643 -14426340.62942  22388509.431    22388507.092
  20732474.786   -25654639.02344 -19922132.70542  20732476.677    20732474.693
  22974227.984   -14774545.74143 -10607348.80342  22974229.949    22974229.444
  24061761.376   -10328643.95243  -7699436.16342  24061763.787    24061762.651
  23305099.102    -9115632.79543  -7089414.76542  23305100.452    23305099.660
  21641320.281   -18483740.54143 -14333992.60542  21641322.325    21641319.747
  24595567.642    -5738537.35743  -4451514.18142  24595569.389    24595569.185
  20441356.058   -29754656.55844 -23124131.15742  20441356.574    20441354.336
  22472801.065   -17754854.11443 -13816659.16542  22472802.575    22472799.145
 04  7 18  2 41  0.0000000  0  9G13G27G31G29G10G28G 3G 8G19
  22406819.143   -18780266.69943 -14351355.68042  22406821.609    22406819.238
  20734360.226   -25644731.02144 -19914412.18842  20734362.101    20734360.105
  22953177.340   -14885167.03943 -10693547.11242  22953179.315    22953178.851
  24043321.888   -10425543.88143  -7774942.53242  24043324.313    24043323.263
  23311254.766    -9083284.47043  -7064208.31042  23311256.135    23311255.339
  21629649.136   -18545072.66143 -14381783.82442  21629651.191    21629648.590
  24612072.283    -5651805.26743  -4383930.77142  24612073.949    24612073.894
  20436078.498   -29782390.29444 -23145741.85542  20436079.016    20436076.769
  22476540.350   -17735203.97543 -13801347.36642  22476541.857    22476538.444
 04  7 18  2 41 30.0000000  0  8G13G27G31G29G10G28G 8G19
  22425187.969   -18683737.84243 -14276138.43042  22425190.421    22425188.097
  20736292.783   -25634575.16144 -19906498.53842  20736294.666    20736292.695
  22932157.912   -14995623.95843 -10779617.35142  22932159.978    22932159.525
  24024912.784   -10522284.41443  -7850324.69542  24024915.162    24024914.122
  23317506.266    -9050432.25343  -7038609.18742  23317507.716    23317506.899
  21618040.686   -18606075.52743 -14429318.48342  21618042.724    21618040.079
  20430853.145   -29809849.58044 -23167138.70042  20430853.675    20430851.425
  22480387.497   -17714987.37643 -13785594.16742  22480388.976    22480385.508
 04  7 18  2 42  0.0000000  0  8G13G27G31G29G10G28G 8G19
  22443612.903   -18586914.10443 -14200691.41642  22443615.359    22443613.114
  20738272.423   -25624172.13444 -19898392.28542  20738274.301    20738272.305
  22911170.212   -15105914.63643 -10865558.05742  22911172.293    22911171.789
  24006534.164   -10618864.46543  -7925581.81642  24006536.493    24006535.400
  23323853.166    -9017078.99843  -7012619.65142  23323854.597    23323853.882
  21606494.646   -18666750.07543 -14476597.30942  21606496.700    21606494.067
  20425679.811   -29837035.59044 -23188322.60242  20425680.339    20425678.110
  22484342.082   -17694205.96643 -13769400.85642  22484343.545    22484340.077
 04  7 18  2 42 30.0000000  0  8G13G27G31G29G10G28G 8G19
  22462094.223   -18489794.23443 -14125013.64542  22462096.655    22462094.494
  20740299.823   -25613518.04844 -19890090.40542  20740301.721    20740299.678
  22890215.403   -15216032.81643 -10951364.35242  22890217.431    22890216.892
  23988187.115   -10715278.40143  -8000709.50842  23988189.553    23988188.363
  23330295.628    -8983223.43543  -6986238.70142  23330297.056    23330296.411
  21595011.830   -18727092.72343 -14523617.51642  21595013.866    21595011.181
  20420559.290   -29863944.09844 -23209290.27042  20420559.814    20420557.590
  22488404.593   -17672857.52443 -13752765.70642  22488406.033    22488402.525
 04  7 18  2 43  0.0000000  0  8G13G27G31G29G10G28G 8G19
  22480631.357   -18392380.86243 -14049107.16742  22480633.826    22480631.688
  20742375.045   -25602612.52944 -19881592.59742  20742376.967    20742374.942
  22869293.923   -15325975.50343 -11037033.89442  22869295.935    22869295.420
  23969872.212   -10811523.99143  -8075706.01242  23969874.569    23969873.363
  23336833.364    -8948867.81843  -6959468.12342  23336834.766    23336834.034
  21583592.143   -18787103.22843 -14570378.91142  21583594.183    21583591.518
  20415491.724   -29890574.34244 -23230041.09942  20415492.246    20415490.041
  22492574.803   -17650942.85143 -13735689.33542  22492576.292    22492572.737
 04  7 18  2 43 30.0000000  0  8G13G27G31G29G10G28G 8G19
  22499224.287   -18294674.60143 -13972972.47642  22499226.720    22499224.588
  20744498.509   -25591453.58044 -19872897.30942  20744500.424    20744498.413
  22848406.699   -15435738.49943 -11122563.41142  22848408.637    22848408.162
  23951589.944   -10907597.90043  -8150568.73242  23951592.213    23951591.001
  23343466.044    -8914012.84543  -6932308.43742  23343467.422    23343466.725
  21572235.958   -18846780.01943 -14616880.28042  21572238.000    21572235.377
  20410477.463   -29916924.42944 -23250573.62542  20410477.990    20410475.762
  22496852.788   -17628461.33043 -13718171.26742  22496854.319    22496850.819
 04  7 18  2 44  0.0000000  0  8G13G27G31G29G10G28G 8G19
  22517871.664   -18196682.09943 -13896614.72842  22517874.061    22517871.911
  20746669.483   -25580045.13144 -19864007.61142  20746671.368    20746669.392
  22827553.361   -15545323.15843 -11207953.96942  22827555.285    22827554.799
  23933339.906   -11003502.22643  -8225299.32142  23933342.243    23933341.058
  23350192.534    -8878665.07843  -6904764.75042  23350193.918    23350193.147
  21560942.595   -18906126.97343 -14663124.62442  21560944.606    21560942.015
  20405515.732   -29942998.37444 -23270890.97142  20405516.269    20405514.050
  22501237.808   -17605418.01443 -13700215.43842  22501239.316    22501235.782
 04  7 18  2 44 30.0000000  0  8G13G27G31G29G10G28G 8G19
  22536573.942   -18098401.30143 -13820032.33442  22536576.308    22536574.165
  20748888.858   -25568382.36844 -19854919.74342  20748890.737    20748888.749
  22806735.354   -15654722.43443 -11293200.07442  22806737.252    22806736.753
  23915123.331   -11099230.54643  -8299892.75542  23915125.764    23915124.466
  23357013.178    -8842822.44243  -6876835.44742  23357014.520    23357013.771
  21549712.796   -18965140.03743 -14709108.80242  21549714.774    21549712.164
  20400607.524   -29968791.14844 -23290989.22642  20400608.049    20400605.855
  22505730.331   -17581809.73143 -13681819.37042  22505731.878    22505728.311
 04  7 18  2 45  0.0000000  0  8G13G27G31G29G10G28G 8G19
  22555331.169   -17999831.64043 -13743224.87542  22555333.479    22555331.393
  20751157.223   -25556462.04244 -19845631.17842  20751159.101    20751157.118
  22785953.691   -15763930.63243 -11378297.29642  22785955.598    22785955.018
  23896941.217   -11194777.78943  -8374345.08542  23896943.751    23896942.391
  23363928.163    -8806484.31343  -6848520.04942  23363929.489    23363928.672
  21538547.166   -19023815.86343 -14754830.19642  21538549.147    21538546.481
  20395753.497   -29994299.12444 -23310865.56442  20395754.014    20395751.849
  22510330.712   -17557634.41343 -13662981.45942  22510332.289    22510328.734
 04  7 18  2 45 30.0000000  0  8G13G27G31G29G10G28G 8G19
  22574141.750   -17900981.30543 -13666198.68242  22574144.094    22574142.058
  20753473.541   -25544289.60044 -19836146.15742  20753475.430    20753473.455
  22765207.830   -15872950.50443 -11463247.75142  22765209.770    22765209.189
  23878792.918   -11290147.58543  -8448659.17242  23878795.394    23878793.990
  23370935.784    -8769658.76643  -6819824.82342  23370937.144    23370936.320
  21527444.609   -19082160.10643 -14800293.21342  21527446.607    21527443.911
  20390952.646   -30019527.72544 -23330524.20442  20390953.178    20390951.010
  22515037.765   -17532898.77943 -13643706.94442  22515039.309    22515035.752
 04  7 18  2 46  0.0000000  0  8G13G27G31G29G10G28G 8G19
  22593005.959   -17801849.39243 -13588953.08942  22593008.317    22593006.285
  20755838.575   -25531861.24644 -19826461.72642  20755840.459    20755838.525
  22744498.970   -15981776.01443 -11548046.77442  22744500.910    22744500.329
  23860679.375   -11385334.55043  -8522830.76742  23860681.865    23860680.452
  23378036.406    -8732344.60343  -6790748.87342  23378037.740    23378037.097
  21516405.750   -19140169.59043 -14845495.38442  21516407.767    21516405.042
  20386205.635   -30044473.36644 -23349962.35442  20386206.188    20386203.989
  22519851.871   -17507600.53343 -13623994.03542  22519853.389    22519849.830
 04  7 18  2 46 30.0000000  0  8G13G27G31G29G10G28G 8G19
  22611923.141   -17702439.30843 -13511490.74642  22611925.512    22611923.438
  20758252.220   -25519177.61044 -19816578.37742  20758254.103    20758252.180
  22723827.380   -16090405.44243 -11632693.01042  22723829.320    22723828.764
  23842600.769   -11480337.62343  -8596859.08842  23842603.297    23842601.881
  23385229.368    -8694545.37443  -6761294.94942  23385230.651    23385230.141
  21505430.422   -19197845.22943 -14890437.40442  21505432.452    21505429.672
  20381512.429   -30069136.43944 -23369180.32542  20381512.956    20381510.759
  22524772.637   -17481741.70843 -13603844.30142  22524774.191    22524770.529
 04  7 18  2 47  0.0000000  0  8G13G27G31G29G10G28G 8G19
  22630893.346   -17602750.69043 -13433811.36342  22630895.712    22630893.590
  20760714.941   -25506235.80944 -19806493.85742  20760716.856    20760714.903
  22703194.162   -16198833.21143 -11717182.10642  22703196.112    22703195.572
  23824558.153   -11575152.10743  -8670740.44542  23824560.644    23824559.225
  23392514.730    -8656260.57943  -6731462.66942  23392516.004    23392515.438
  21494519.193   -19255184.07043 -14935117.00342  21494521.207    21494518.394
  20376873.676   -30093513.29044 -23388175.26942  20376874.202    20376871.975
  22529800.352   -17455320.58243 -13583256.41742  22529801.928    22529798.294
 04  7 18  2 47 30.0000000  0  8G13G27G31G29G10G28G 8G19
  22649915.514   -17502789.03043 -13355919.20642  22649917.847    22649915.690
  20763226.423   -25493038.06944 -19796209.90642  20763228.301    20763226.323
  22682599.356   -16307059.31943 -11801514.06142  22682601.316    22682600.763
  23806551.293   -11669778.63043  -8744475.35842  23806553.741    23806552.331
  23399891.501    -8617495.66043  -6701256.25342  23399892.735    23399892.278
  21483671.437   -19312189.04043 -14979536.40942  21483673.492    21483670.690
  20372288.860   -30117606.70744 -23406949.35642  20372289.401    20372287.143
  22534934.329   -17428341.26943 -13562233.58042  22534935.881    22534932.335
 04  7 18  2 48  0.0000000  0  8G13G27G31G29G10G28G 8G19
  22668989.519   -17402554.61143 -13277814.52242  22668991.910    22668989.702
  20765787.003   -25479582.08144 -19785724.72542  20765788.907    20765786.918
  22662043.829   -16415078.95543 -11885685.13342  22662045.800    22662045.218
  23788581.031   -11764213.06043  -8818060.58642  23788583.417    23788582.021
  23407359.569    -8578250.93643  -6670675.97042  23407360.801    23407360.195
  21472887.633   -19368858.09443 -15023694.07242  21472889.696    21472886.881
  20367758.481   -30141413.82544 -23425500.34842  20367759.058    20367756.780
  22540174.722   -17400802.74043 -13540774.99542  22540176.243    22540172.779
 04  7 18  2 48 30.0000000  0  8G13G27G31G29G10G28G 8G19
  22688115.163   -17302048.97543 -13199498.49942  22688117.594    22688115.392
  20768397.038   -25465866.39744 -19775037.19142  20768398.891    20768396.955
  22641528.278   -16522888.29943 -11969692.33142  22641530.285    22641529.732
  23770647.910   -11858452.31943  -8891493.72642  23770650.272    23770648.834
  23414918.683    -8538527.58143  -6639722.73642  23414919.964    23414919.258
  21462167.979   -19425190.08843 -15067589.09542  21462170.018    21462167.218
  20363282.927   -30164933.02444 -23443826.99542  20363283.482    20363281.220
  22545521.524   -17372705.07743 -13518880.71842  22545523.067    22545519.587
 04  7 18  2 49  0.0000000  0  8G13G27G31G29G10G28G 8G19
  22707291.907   -17201274.62343 -13120973.09742  22707294.395    22707292.184
  20771056.497   -25451890.84744 -19764147.15842  20771058.359    20771056.429
  22621053.274   -16630484.76543 -12053533.66042  22621055.298    22621054.750
  23752752.258   -11952494.40543  -8964773.23242  23752754.608    23752753.132
  23422568.387    -8498328.39343  -6608398.73542  23422569.686    23422568.951
  21451512.430   -19481185.30343 -15111221.70442  21451514.468    21451511.667
  20358862.137   -30188164.34144 -23461929.31642  20358862.690    20358860.452
  22550974.450   -17344049.76343 -13496551.91242  22550975.988    22550972.459
 04  7 18  2 49 30.0000000  0  8G13G27G31G29G10G28G 8G19
  22726519.228   -17100234.67543 -13042240.72942  22726521.695    22726519.537
  20773765.326   -25437655.90444 -19753055.00142  20773767.166    20773765.233
  22600619.264   -16737866.18443 -12137207.42242  22600621.232    22600620.696
  23734894.467   -12046337.76043  -9037897.87642  23734896.794    23734895.328
  23430308.036    -8457656.47943  -6576706.35242  23430309.294    23430308.619
  21440920.873   -19536844.34043 -15154592.36042  21440922.902    21440920.070
  20354496.161   -30211107.64144 -23479807.20542  20354496.730    20354494.512
  22556533.177   -17314838.61643 -13473789.98742  22556534.709    22556531.132
 04  7 18  2 50  0.0000000  0  8G13G27G31G29G10G28G 8G19
  22745796.409   -16998932.60543 -12963304.11742  22745798.872    22745796.762
  20776523.376   -25423162.20644 -19741761.21742  20776525.242    20776523.290
  22580226.426   -16845030.85043 -12220712.28042  22580228.395    22580227.861
  23717074.645   -12139981.59643  -9110867.04942  23717076.993    23717075.489
  23438136.950    -8416515.35443  -6544648.35042  23438138.225    23438137.590
  21430393.077   -19592168.31343 -15197701.92542  21430395.097    21430392.250
  20350184.848   -30233763.70044 -23497461.27742  20350185.428    20350183.215
  22562197.304   -17285073.91543 -13450596.71842  22562198.780    22562195.220
 04  7 18  2 50 30.0000000  0  8G13G27G31G29G10G28G 8G19
  22765124.398   -16897363.69643 -12884159.57242  22765126.842    22765124.732
  20779332.154   -25408401.96244 -19730259.73542  20779334.014    20779332.072
  22559876.783   -16951968.52143 -12304040.25742  22559878.782    22559878.174
  23699294.501   -12233416.46443  -9183673.37742  23699296.841    23699295.349
  23446056.112    -8374900.00043  -6512220.82642  23446057.382    23446056.742
  21419930.404   -19647149.84343 -15240544.64242  21419932.429    21419929.585
  20345929.696   -30256124.67444 -23514885.41542  20345930.246    20345928.041
  22567967.845   -17254749.48343 -13426967.29442  22567969.355    22567965.804
 04  7 18  2 51  0.0000000  0  9G26G13G27G31G29G10G28G 8G19
  24313617.727    -3922006.14053  -2694586.93452  24313620.441    24313619.557
  22784500.985   -16795539.78943 -12804816.33442  22784503.435    22784501.267
  20782189.925   -25393384.32444 -19718557.68742  20782191.765    20782189.833
  22539569.102   -17058685.95543 -12387196.62642  22539571.104    22539570.441
  23681552.786   -12326649.48443  -9256322.43542  23681555.192    23681553.682
  23454063.164    -8332822.62043  -6479433.30142  23454064.409    23454063.750
  21409531.090   -19701798.48243 -15283127.97642  21409533.107    21409530.299
  20341729.085   -30278199.17144 -23532086.32042  20341729.631    20341727.422
  22573842.878   -17223876.11243 -13402910.13242  22573844.377    22573840.762
 04  7 18  2 51 30.0000000  0  9G26G13G27G31G29G10G28G 8G19
  24293927.342    -4025479.96943  -2775215.84242  24293929.895    24293929.254
  22803925.728   -16693462.31143 -12725275.51042  22803928.250    22803926.027
  20785096.981   -25378107.78144 -19706653.89442  20785098.817    20785096.862
  22519304.058   -17165179.22943 -12470178.32642  22519306.104    22519305.368
  23663850.086   -12419677.57243  -9328811.80642  23663852.503    23663850.929
  23462157.834    -8290284.89243  -6446287.02842  23462159.130    23462158.478
  21399195.303   -19756113.23943 -15325451.14642  21399197.335    21399194.514
  20337583.237   -30299985.83344 -23549062.94242  20337583.784    20337581.551
  22579822.375   -17192454.00243 -13378425.37242  22579823.855    22579820.177
 04  7 18  2 52  0.0000000  0  9G26G13G27G31G29G10G28G 8G19
  24274271.849    -4128769.60343  -2855701.21442  24274274.393    24274273.942
  22823400.549   -16591121.43443 -12645529.43442  22823403.054    22823400.922
  20788055.683   -25362559.79544 -19694538.58642  20788057.526    20788055.536
  22499084.572   -17271433.23643 -12552973.59142  22499086.585    22499085.792
  23646189.115   -12512486.19943  -9401130.17842  23646191.531    23646189.961
  23470342.032    -8247276.79643  -6412774.26042  23470343.360    23470342.702
  21388925.386   -19810081.91143 -15367504.64642  21388927.406    21388924.558
  20333494.505   -30321472.15244 -23565805.52942  20333495.065    20333492.841
  22585908.306   -17160472.11043 -13353504.42442  22585909.831    22585906.111
 04  7 18  2 52 30.0000000  0  9G26G13G27G31G29G10G28G 8G19
  24254650.112    -4231881.98743  -2936048.46142  24254652.530    24254652.235
  22842923.227   -16488529.00743 -12565587.34642  22842925.680    22842923.622
  20791064.299   -25346749.28744 -19682218.71342  20791066.174    20791064.145
  22478909.340   -17377454.53343 -12635587.50842  22478911.366    22478910.505
  23628568.620   -12605082.70343  -9473283.26342  23628571.032    23628569.392
  23478613.606    -8203810.00943  -6378904.08242  23478614.904    23478614.191
  21378719.528   -19863713.70743 -15409295.62442  21378721.548    21378718.697
  20329461.423   -30342666.34644 -23582320.48842  20329461.964    20329459.704
  22592098.724   -17127941.09143 -13328155.58742  22592100.259    22592096.530
 04  7 18  2 53  0.0000000  0  9G26G13G27G31G29G10G28G 8G19
  24235063.160    -4334811.35843  -3016253.10342  24235065.724    24235065.199
  22862494.000   -16385684.01343 -12485448.45242  22862496.424    22862494.499
  20794123.671   -25330672.19844 -19669691.11942  20794125.519    20794123.509
  22458779.675   -17483236.59843 -12718015.00942  22458781.707    22458780.715
  23610989.531   -12697461.36743  -9545266.59342  23610991.971    23610990.156
  23486972.542    -8159883.75443  -6344675.87142  23486973.822    23486973.080
  21368578.495   -19917005.09543 -15450821.33442  21368580.509    21368577.641
  20325484.673   -30363564.33744 -23598604.63642  20325485.209    20325482.955
  22598394.060   -17094858.76043 -13302377.15242  22598395.587    22598391.911
 04  7 18  2 53 30.0000000  0  9G26G13G27G31G29G10G28G 8G19
  24215511.117    -4437558.49143  -3096315.73442  24215513.768    24215513.006
  22882111.756   -16282592.19143 -12405117.21642  22882114.190    22882112.279
  20797233.199   -25314331.50344 -19656958.11542  20797235.032    20797233.040
  22438695.447   -17588779.94443 -12800256.51542  22438697.500    22438696.404
  23593451.729   -12789623.02543  -9617080.84842  23593454.187    23593452.275
  23495417.616    -8115503.91143  -6310094.20842  23495418.951    23495418.325
  21358501.658   -19969959.26343 -15492084.29642  21358503.646    21358500.792
  20321563.709   -30384169.05744 -23614660.26442  20321564.243    20321562.009
  22604793.503   -17061229.54043 -13276172.57342  22604795.013    22604791.357
 04  7 18  2 54  0.0000000  0  9G26G13G27G31G29G10G28G 8G19
  24195994.355    -4540119.37543  -3176233.24942  24195996.970    24195996.069
  22901776.465   -16179253.79743 -12324593.84542  22901778.857    22901777.010
  20800393.369   -25297724.63344 -19644017.70342  20800395.219    20800393.223
  22418657.542   -17694079.78543 -12882308.27342  22418659.643    22418658.440
  23575955.920   -12881563.79443  -9688722.97042  23575958.412    23575956.517
  23503949.030    -8070671.01843  -6275159.51042  23503950.317    23503949.751
  21348489.297   -20022574.44444 -15533083.11542  21348491.272    21348488.442
  20317699.060   -30404477.92044 -23630485.35242  20317699.578    20317697.397
  22611297.124   -17027052.87843 -13249541.41142  22611298.648    22611294.973
 04  7 18  2 54 30.0000000  0  9G26G13G27G31G29G10G28G 8G19
  24176514.155    -4642488.74243  -3256001.56242  24176516.667    24176515.760
  22921488.157   -16075668.53743 -12243878.12042  22921490.523    22921488.688
  20803604.782   -25280848.67744 -19630867.61342  20803606.615    20803604.606
  22398666.950   -17799130.41243 -12964165.83342  22398669.089    22398667.880
  23558503.174   -12973278.59443  -9760189.03442  23558505.642    23558503.763
  23512566.718    -8025384.85043  -6239871.63942  23512568.052    23512567.424
  21338541.964   -20074848.07543 -15573815.79742  21338543.945    21338541.092
  20313891.341   -30424487.52844 -23646077.25942  20313891.858    20313889.686
  22617905.132   -16992327.47943 -13222482.66642  22617906.671    22617902.992
 04  7 18  2 55  0.0000000  0  9G26G13G27G31G29G10G28G 8G19
  24157069.795    -4744669.51643  -3335622.92642  24157072.419    24157071.525
  22941245.333   -15971844.24543 -12162976.13942  22941247.672    22941245.891
  20806866.491   -25263708.13344 -19617511.35542  20806868.349    20806866.363
  22378723.368   -17903934.13843 -13045831.00342  22378725.486    22378724.278
  23541092.891   -13064770.35943  -9831481.31042  23541095.358    23541093.417
  23521269.293    -7979653.09943  -6204236.54942  23521270.584    23521269.935
  21328658.677   -20126785.21943 -15614286.31042  21328660.632    21328657.773
  20310139.654   -30444202.52744 -23661439.60042  20310140.203    20310138.047
  22624616.381   -16957059.54643 -13195001.16842  22624617.923    22624614.313
 04  7 18  2 55 30.0000000  0  9G26G13G27G31G29G10G28G 8G19
  24137663.256    -4846651.41543  -3415089.26042  24137665.815    24137665.072
  22961048.939   -15867775.60843 -12081883.74642  22961051.305    22961049.534
  20810180.073   -25246295.22344 -19603942.86842  20810181.930    20810179.933
  22358828.827   -18008480.56443 -13127295.68142  22358830.881    22358829.673
  23523726.899   -13156029.26143  -9902592.11142  23523729.325    23523727.411
  23530057.472    -7933470.86643  -6168250.42242  23530058.876    23530058.171
  21318840.798   -20178378.28544 -15654488.67642  21318842.779    21318839.950
  20306445.746   -30463614.29844 -23676565.65342  20306446.291    20306444.115
  22631431.974   -16921243.19443 -13167092.33342  22631433.529    22631429.956
 04  7 18  2 56  0.0000000  0  9G26G13G27G31G29G10G28G 8G19
  24118293.628    -4948439.08443  -3494404.28142  24118296.267    24118295.381
  22980897.302   -15763472.05143 -12000608.31042  22980899.626    22980897.899
  20813544.311   -25228616.09044 -19590166.92742  20813546.145    20813544.169
  22338982.482   -18112773.49343 -13208562.83042  22338984.557    22338983.305
  23506404.386   -13247059.81643  -9973524.99142  23506406.761    23506404.866
  23538929.692    -7886847.47943  -6131920.55842  23538931.047    23538930.344
  21309087.193   -20229634.01344 -15694428.17342  21309089.140    21309086.286
  20302808.241   -30482729.51644 -23691460.62742  20302808.800    20302806.623
  22638350.418   -16884886.59543 -13138762.52642  22638351.935    22638348.451
 04  7 18  2 56 30.0000000  0  9G26G13G27G31G29G10G28G 8G19
  24098962.172    -5050026.53543  -3573563.28642  24098964.778    24098963.911
  23000790.635   -15658932.31343 -11919148.82842  23000792.970    23000791.199
  20816959.938   -25210666.82444 -19576180.48942  20816961.798    20816959.840
  22319185.688   -18216806.52043 -13289627.46242  22319187.717    22319186.407
  23489126.317   -13337856.25043 -10044275.42042  23489128.615    23489126.784
  23547886.047    -7839781.77543  -6095246.01942  23547887.356    23547886.640
  21299398.355   -20280548.91144 -15734102.09442  21299400.354    21299397.445
  20299227.974   -30501543.81244 -23706121.11342  20299228.533    20299226.390
  22645372.099   -16847987.38143 -13110009.88942  22645373.621    22645370.210
 04  7 18  2 57  0.0000000  0  9G26G13G27G31G29G10G28G 8G19
  24079669.386    -5151410.36843  -3652563.59242  24079671.991    24079671.276
  23020728.619   -15554157.75243 -11837506.37042  23020730.951    23020729.159
  20820427.329   -25192445.80244 -19561982.30042  20820429.217    20820427.210
  22299439.059   -18320575.54543 -13370486.38142  22299441.092    22299439.762
  23471893.402   -13428415.10643 -10114840.74042  23471895.742    23471894.029
  23556926.289    -7792275.36443  -6058228.08542  23556927.588    23556926.954
  21289774.647   -20331121.71744 -15773509.44642  21289776.636    21289773.730
  20295705.326   -30520055.44744 -23720545.76042  20295705.880    20295703.755
  22652497.064   -16810545.86343 -13080834.69242  22652498.536    22652495.125
 04  7 18  2 57 30.0000000  0  9G26G13G27G31G29G10G28G 8G19
  24060415.195    -5252591.77643  -3731406.20142  24060417.738    24060416.972
  23040710.100   -15449154.49143 -11755685.69842  23040712.433    23040710.682
  20823945.764   -25173956.34844 -19547574.94542  20823947.686    20823945.648
  22279742.434   -18424081.52243 -13451140.31642  22279744.489    22279743.190
  23454705.496   -13518737.93243 -10185222.14742  23454707.775    23454706.139
  23566049.096    -7744334.79143  -6020871.82742  23566050.395    23566049.864
  21280215.175   -20381356.68443 -15812653.55842  21280217.195    21280214.295
  20292239.758   -30538267.19444 -23734736.73142  20292240.313    20292238.199
  22659724.208   -16772567.16643 -13051240.91042  22659725.677    22659722.260
 04  7 18  2 58  0.0000000  0  9G26G13G27G31G29G10G28G 8G19
  24041200.759    -5353564.29043  -3810086.00042  24041203.127    24041202.396
  23060735.397   -15343921.07643 -11673685.71042  23060737.668    23060735.992
  20827516.158   -25155193.93844 -19532954.89642  20827518.075    20827516.025
  22260097.242   -18527317.46443 -13531583.85542  22260099.268    22260097.959
  23437563.787   -13608818.43243 -10255414.73342  23437566.021    23437564.332
  23575254.797    -7695958.62243  -5983176.15442  23575256.139    23575255.604
  21270720.875   -20431249.49644 -15851531.05742  21270722.865    21270720.016
  20288832.095   -30556174.58444 -23748690.53742  20288832.656    20288830.511
  22667053.957   -16734048.69943 -13021226.52342  22667055.502    22667052.084
 04  7 18  2 58 30.0000000  0  9G26G13G27G31G29G10G28G 8G19
  24022026.391    -5454326.09143  -3888601.61642  24022028.769    24022027.928
  23080803.941   -15238460.43343 -11591508.64142  23080806.261    23080804.564
  20831138.385   -25136158.80844 -19518122.33242  20831140.328    20831138.304
  22240503.819   -18630281.13843 -13611815.22942  22240505.869    22240504.574
  23420468.405   -13698655.07743 -10325417.29142  23420470.641    23420468.957
  23584542.844    -7647150.20743  -5945143.65242  23584544.184    23584543.466
  21261291.537   -20480800.98844 -15890142.58142  21261293.508    21261290.652
  20285482.223   -30573778.20144 -23762407.63242  20285482.784    20285480.645
  22674486.065   -16694992.62643 -12990793.22242  22674487.603    22674484.205
 04  7 18  2 59  0.0000000  0  9G26G13G27G31G29G10G28G 8G19
  24002892.530    -5554875.32443  -3966951.61242  24002894.839    24002893.940
  23100915.205   -15132775.59543 -11509156.88042  23100917.493    23100915.719
  20834812.564   -25116850.88544 -19503077.20642  20834814.491    20834812.491
  22220962.732   -18732970.04343 -13691832.50842  22220964.715    22220963.449
  23403419.790   -13788245.79943 -10395228.21442  23403422.074    23403420.425
  23593912.484    -7597912.39843  -5906776.57842  23593913.890    23593913.123
  21251927.034   -20530011.64644 -15928488.51742  21251929.025    21251926.137
  20282190.367   -30591077.00944 -23775887.22042  20282190.913    20282188.772
  22682020.110   -16655401.02843 -12959942.63342  22682021.648    22682018.264
 04  7 18  2 59 30.0000000  0  9G26G13G27G31G29G10G28G 8G19
  23983799.670    -5655208.45943  -4045133.19942  23983802.104    23983801.120
  23121068.904   -15026867.82043 -11426631.40642  23121071.192    23121069.288
  20838538.958   -25097268.69344 -19487818.36342  20838540.845    20838538.865
  22201474.668   -18835380.25643 -13771632.61142  22201476.638    22201475.392
  23386418.544   -13877587.50843 -10464845.08642  23386420.892    23386419.298
  23603363.593    -7548246.83943  -5868076.18242  23603364.973    23603364.182
  21242627.611   -20578880.53544 -15966568.15642  21242629.572    21242626.661
  20278956.729   -30608069.77244 -23789128.33642  20278957.274    20278955.125
  22689656.098   -16615274.26943 -12928675.03242  22689657.574    22689654.135
 04  7 18  3  0  0.0000000  0  9G26G13G27G31G29G10G28G 8G19
  23964747.951    -5755325.14643  -4123146.13442  23964750.443    23964749.490
  23141264.120   -14920741.56743 -11343935.66842  23141266.399    23141264.464
  20842317.210   -25077413.80244 -19472347.02342  20842319.102    20842317.137
  22182039.780   -18937510.91243 -13851214.88042  22182041.736    22182040.548
  23369464.842   -13966679.87043 -10534267.68942  23369467.194    23369465.535
  23612895.088    -7498158.17343  -5829046.08342  23612896.542    23612895.796
  21233392.766   -20627409.71544 -16004383.08242  21233394.768    21233391.844
  20275781.136   -30624757.73144 -23802131.93642  20275781.653    20275779.476
  22697393.105   -16574615.77843 -12896993.09242  22697394.586    22697391.166
 04  7 18  3  0 30.0000000  0  9G26G13G27G31G29G10G28G 8G19
  23945738.337    -5855221.11943  -4200987.10742  23945740.853    23945739.838
  23161500.684   -14814397.70343 -11261070.39342  23161503.040    23161501.041
  20846147.785   -25057284.03944 -19456661.50342  20846149.660    20846147.712
  22162658.996   -19039357.37143 -13930575.69742  22162660.953    22162659.796
  23352559.373   -14055518.74743 -10603492.75142  23352561.744    23352560.030
  23622506.965    -7447647.52343  -5789687.16442  23622508.399    23622507.817
  21224222.909   -20675597.54244 -16041932.02742  21224224.912    21224222.007
  20272664.012   -30641138.49844 -23814896.16642  20272664.529    20272662.319
  22705231.384   -16533425.39243 -12864896.69742  22705232.842    22705229.406
 04  7 18  3  1  0.0000000  0  9G26G13G27G31G29G10G28G 8G19
  23926771.659    -5954891.48843  -4278652.26442  23926774.215    23926773.274
  23181778.634   -14707836.55243 -11178035.80342  23181781.057    23181778.989
  20850031.179   -25036876.59544 -19440759.60442  20850033.067    20850031.139
  22143333.211   -19140914.37443 -14009710.96442  22143335.202    22143334.086
  23335702.964   -14144099.45543 -10672516.64342  23335705.326    23335703.664
  23632199.091    -7396715.22343  -5749999.68842  23632200.419    23632199.916
  21215118.500   -20723441.66044 -16079213.15142  21215120.470    21215117.566
  20269605.936   -30657208.76544 -23827418.44842  20269606.460    20269604.263
  22713171.074   -16491702.13443 -12832385.06842  22713172.535    22713169.083
 04  7 18  3  1 30.0000000  0  9G26G13G27G31G29G10G28G 8G19
  23907847.639    -6054337.43143  -4356142.54742  23907850.285    23907849.344
  23202096.885   -14601063.68043 -11094836.20742  23202099.413    23202097.296
  20853966.853   -25016194.38844 -19424643.60542  20853968.743    20853966.826
  22124062.461   -19242182.45443 -14088621.10042  22124064.459    22124063.312
  23318895.548   -14232423.19743 -10741340.31542  23318897.854    23318896.244
  23641970.258    -7345367.34543  -5709988.38642  23641971.583    23641971.021
  21206078.774   -20770945.61444 -16116229.20142  21206080.745    21206077.838
  20266606.335   -30672971.68544 -23839701.23942  20266606.888    20266604.694
  22721211.139   -16449451.32243 -12799462.36142  22721212.595    22721209.164
 04  7 18  3  2  0.0000000  0  9G26G13G27G31G29G10G28G 8G19
  23888967.598    -6153552.17643  -4433452.66842  23888970.256    23888969.406
  23222455.738   -14494077.34843 -11011470.28842  23222458.232    23222456.193
  20857955.721   -24995232.77844 -19408309.88542  20857957.586    20857955.668
  22104848.104   -19343154.54143 -14167300.59242  22104850.089    22104848.920
  23302138.261   -14320483.64343 -10809958.81242  23302140.493    23302138.846
  23651820.904    -7293602.36743  -5669652.07342  23651822.211    23651821.549
  21197104.517   -20818105.45344 -16152977.10142  21197106.494    21197103.595
  20263666.199   -30688422.35244 -23851740.71842  20263666.737    20263664.512
  22729352.125   -16406670.21343 -12766126.44142  22729353.569    22729350.158
 04  7 18  3  2 30.0000000  0  9G26G13G27G31G29G10G28G 8G19
  23870131.110    -6252538.28343  -4510584.64442  23870133.712    23870132.860
  23242853.741   -14386885.09943 -10927943.93342  23242856.259    23242854.260
  20861996.890   -24973996.26044 -19391761.94942  20861998.755    20861996.837
  22085689.680   -19443832.64643 -14245751.01042  22085691.688    22085690.490
  23285430.552   -14408283.16543 -10878374.00142  23285432.791    23285431.064
  23661749.357    -7241428.36543  -5628997.04942  23661750.705    23661749.990
  21188194.793   -20864926.19044 -16189460.76042  21188196.773    21188193.884
  20260784.664   -30703564.96344 -23863540.16042  20260785.202    20260782.957
  22737592.713   -16363365.43943 -12732382.46242  22737594.208    22737590.742
 04  7 18  3  3  0.0000000  0  9G26G13G27G31G29G10G28G 8G19
  23851339.090    -6351291.00143  -4587534.76542  23851341.739    23851340.716
  23263290.999   -14279486.80943 -10844257.00842  23263293.518    23263291.494
  20866090.854   -24952482.22944 -19374997.77242  20866092.721    20866090.828
  22066588.112   -19544211.72243 -14323968.41342  22066590.141    22066588.929
  23268773.290   -14495817.59943 -10946582.60442  23268775.514    23268773.779
  23671755.554    -7188845.51643  -5588023.44842  23671756.873    23671756.311
  21179350.038   -20911405.78944 -16225678.60742  21179352.033    21179349.080
  20257962.302   -30718396.63744 -23875097.30942  20257962.827    20257960.579
  22745933.080   -16319536.34943 -12698229.92242  22745934.581    22745931.137
 04  7 18  3  3 30.0000000  0  9G26G13G27G31G29G10G28G 8G19
  23832592.630    -6449803.62443  -4664297.78042  23832595.369    23832594.297
  23283767.676   -14171881.38043 -10760408.70042  23283770.222    23283768.204
  20870238.565   -24930685.84444 -19358013.57642  20870240.422    20870238.558
  22047544.844   -19644284.58343 -14401947.20742  22047546.825    22047545.659
  23252167.665   -14583080.21343 -11014579.40842  23252169.911    23252168.270
  23681839.902    -7135852.22943  -5546730.02142  23681841.112    23681840.733
  21170570.982   -20957539.93944 -16261627.28642  21170573.002    21170570.012
  20255199.951   -30732912.63044 -23886408.47242  20255200.495    20255198.297
  22754373.711   -16275180.50643 -12663666.92442  22754375.214    22754371.797
 04  7 18  3  4  0.0000000  0 10G26G13G27G31G29G10G28G 7G 8G19
  23813889.484    -6548089.39143  -4740884.04842  23813892.173    23813890.976
  23304280.308   -14064086.68443 -10676412.88842  23304282.871    23304280.879
  20874437.072   -24908622.50544 -19340821.36642  20874438.948    20874437.081
  22028557.418   -19744064.07143 -14479697.39742  22028559.381    22028558.256
  23235611.296   -14670084.38943 -11082374.82242  23235613.531    23235611.944
  23691998.709    -7082467.12243  -5505131.27942  23691999.951    23691999.654
  21161854.632   -21003344.63944 -16297319.24342  21161856.622    21161853.652
  24446166.428    -4436362.54053  -2881049.90552  24446168.270    24446171.258
  20252494.928   -30747127.62644 -23897485.09242  20252495.446    20252493.289
  22762911.325   -16230315.09743 -12628706.87342  22762912.810    22762909.406
 04  7 18  3  4 30.0000000  0 10G26G13G27G31G29G10G28G 7G 8G19
  23795234.824    -6646120.58543  -4817271.97042  23795237.409    23795236.113
  23324833.418   -13956079.82543 -10592251.76742  23324835.886    23324833.937
  20878691.267   -24886266.64744 -19323401.21442  20878693.158    20878691.259
  22009631.096   -19843522.21243 -14557197.18742  22009633.077    22009631.934
  23219109.361   -14756802.59743 -11149947.41542  23219111.599    23219110.025
  23702236.255    -7028668.09843  -5463210.01842  23702237.489    23702237.477
  21153205.716   -21048794.85144 -16332734.97342  21153207.730    21153204.744
  24426023.025    -4542216.34243  -2963533.25942  24426024.983    24426027.809
  20249852.020   -30761016.20244 -23908307.36142  20249852.550    20249850.348
  22771550.305   -16184916.67443 -12593331.47542  22771551.788    22771548.392
 04  7 18  3  5  0.0000000  0 10G26G13G27G31G29G10G28G 7G 8G19
  23776626.407    -6743908.08543  -4893469.96642  23776628.858    23776627.673
  23345423.753   -13847877.14243 -10507938.05842  23345426.109    23345424.319
  20882998.689   -24863630.98844 -19305763.03642  20883000.606    20882998.636
  21990763.975   -19942669.28443 -14634454.58842  21990765.961    21990764.805
  23202659.729   -14843245.90043 -11217305.79242  23202661.973    23202660.458
  23712549.677    -6974471.01343  -5420978.55642  23712550.869    23712550.967
  21144621.656   -21093904.20544 -16367885.08942  21144623.679    21144620.708
  24405883.267    -4648050.88343  -3046001.60542  24405885.455    24405888.105
  20247268.919   -30774590.59944 -23918884.81742  20247269.447    20247267.213
  22780287.935   -16139000.16843 -12557552.38242  22780289.449    22780286.016
 04  7 18  3  5 30.0000000  0 10G26G13G27G31G29G10G28G 7G 8G19
  23758064.880    -6841449.95743  -4969476.59742  23758067.245    23758066.027
  23366050.816   -13739481.19243 -10423473.77042  23366053.156    23366051.557
  20887359.348   -24840715.61244 -19287906.89742  20887361.276    20887359.274
  21971956.448   -20041503.07243 -14711467.87642  21971958.420    21971957.288
  23186262.732   -14929412.66343 -11284448.66942  23186264.980    23186263.487
  23722938.098    -6919879.25943  -5378439.58242  23722939.421    23722939.475
  21136102.380   -21138673.19344 -16402769.99442  21136104.403    21136101.426
  24385747.504    -4753864.52243  -3128453.66842  24385749.545    24385752.238
  20244745.502   -30787851.26444 -23929217.80642  20244746.027    20244743.793
  22789123.723   -16092567.90543 -12521371.39942  22789125.224    22789121.786
 04  7 18  3  6  0.0000000  0 10G26G13G27G31G29G10G28G 7G 8G19
  23739551.002    -6938740.54843  -5045287.42842  23739553.453    23739552.169
  23386714.786   -13630891.48543 -10338858.48442  23386717.164    23386715.659
  20891773.847   -24817517.07144 -19269830.11242  20891775.801    20891773.804
  21953209.724   -20140017.56643 -14788232.36142  21953211.672    21953210.554
  23169919.347   -15015297.23043 -11351371.66342  23169921.669    23169920.125
  23733401.822    -6864892.63443  -5335592.91642  23733403.168    23733403.072
  21127648.432   -21183098.86944 -16437387.37842  21127650.463    21127647.484
  24365616.646    -4859651.89743  -3210885.24342  24365618.832    24365621.320
  20242282.624   -30800793.77644 -23939302.88242  20242283.141    20242280.919
  22798057.901   -16045618.35743 -12484787.33542  22798059.411    22798056.013
 04  7 18  3  6 30.0000000  0 10G26G13G27G31G29G10G28G 7G 8G19
  23721085.398    -7035777.78343  -5120900.80342  23721087.897    23721086.624
  23407415.021   -13522110.88243 -10254094.46042  23407417.429    23407416.024
  20896242.304   -24794035.32144 -19251532.64042  20896244.236    20896242.215
  21934524.234   -20238210.24443 -14864746.08442  21934526.158    21934525.061
  23153630.134   -15100897.68543 -11418073.27842  23153632.409    23153630.863
  23743940.030    -6809514.27943  -5292440.99842  23743941.416    23743941.223
  21119259.716   -21227181.92044 -16471737.78042  21119261.729    21119258.758
  24345491.120    -4965411.30443  -3293295.03342  24345493.214    24345495.727
  20239880.339   -30813417.87444 -23949139.84242  20239880.866    20239878.650
  22807090.087   -15998153.71643 -12447801.90442  22807091.634    22807088.273
 04  7 18  3  7  0.0000000  0 10G26G13G27G31G29G10G28G 7G 8G19
  23702668.192    -7132560.86243  -5196316.16342  23702670.708    23702669.335
  23428150.818   -13413143.62043 -10169184.97242  23428153.294    23428151.839
  20900764.401   -24770271.60944 -19233015.45942  20900766.306    20900764.315
  21915900.229   -20336079.91143 -14941008.09742  21915902.154    21915901.057
  23137395.014   -15186213.56343 -11484553.12842  23137397.330    23137395.726
  23754551.835    -6753748.78543  -5248987.41042  23754553.240    23754553.049
  21110935.817   -21270924.24544 -16505822.68742  21110937.836    21110934.844
  24325371.165    -5071142.22443  -3375682.62142  24325373.214    24325375.667
  20237538.373   -30825725.05744 -23958729.85642  20237538.885    20237536.671
  22816219.643   -15950177.56443 -12410417.89242  22816221.208    22816217.803
 04  7 18  3  7 30.0000000  0 10G26G13G27G31G29G10G28G 7G 8G19
  23684300.659    -7229082.46543  -5271527.75442  23684303.179    23684301.910
  23448922.708   -13303987.23143 -10084128.12042  23448925.030    23448923.625
  20905341.211   -24746220.58944 -19214274.40142  20905343.065    20905341.091
  21897339.127   -20433618.99943 -15017012.52842  21897341.064    21897339.903
  23121215.465   -15271237.70243 -11550805.66342  23121217.737    23121216.111
  23765237.719    -6697594.12243  -5205230.57442  23765239.131    23765238.937
  21102677.639   -21314321.27944 -16539638.53842  21102679.619    21102676.619
  24305258.023    -5176837.43843  -3458042.40142  24305259.965    24305262.283
  20235257.790   -30837709.63144 -23968068.48442  20235258.302    20235256.056
  22825447.126   -15901686.84343 -12372632.90642  22825448.710    22825445.250
 04  7 18  3  8  0.0000000  0 10G26G13G27G31G29G10G28G 7G 8G19
  23665981.944    -7325348.36443  -5346540.11642  23665984.301    23665983.105
  23469728.480   -13194652.68243  -9998932.44942  23469730.773    23469729.342
  20909971.190   -24721889.96844 -19195315.47242  20909973.029    20909971.042
  21878839.900   -20530832.76843 -15092763.45742  21878841.846    21878840.652
  23105090.254   -15355975.91243 -11616835.38342  23105092.573    23105090.922
  23775995.496    -6641061.57643  -5161179.28942  23775996.859    23775996.825
  21094483.580   -21357381.37344 -16573191.84642  21094485.561    21094482.518
  24285150.455    -5282503.14543  -3540379.17442  24285152.178    24285154.633
  20233037.176   -30849378.93844 -23977161.44942  20233037.696    20233035.458
  22834770.624   -15852691.63043 -12334454.82442  22834772.183    22834768.714
 04  7 18  3  8 30.0000000  0 10G26G13G27G31G29G10G28G 7G 8G19
  23647714.093    -7421346.38143  -5421343.72842  23647716.488    23647715.365
  23490569.556   -13085132.41243  -9913592.07042  23490571.779    23490570.461
  20914656.148   -24697270.01544 -19176131.08942  20914658.040    20914656.072
  21860404.982   -20627708.76643 -15168251.19042  21860406.914    21860405.694
  23089021.780   -15440416.39043 -11682633.12942  23089024.101    23089022.417
  23786826.547    -6584144.40543  -5116828.29242  23786827.871    23786827.774
  21086355.432   -21400094.97344 -16606475.16142  21086357.430    21086354.349
  24265050.705    -5388127.60443  -3622683.81942  24265052.395    24265054.816
  20230878.487   -30860722.96544 -23986000.94742  20230878.987    20230876.770
  22844191.581   -15803184.11343 -12295877.53942  22844193.127    22844189.674
 04  7 18  3  9  0.0000000  0 10G26G13G27G31G29G10G28G 7G 8G19
  23629496.531    -7517079.99943  -5495941.31342  23629498.923    23629497.824
  23511444.239   -12975435.30543  -9828113.87842  23511446.508    23511445.207
  20919395.211   -24672365.94344 -19156725.32342  20919397.104    20919395.140
  21842033.692   -20724250.15143 -15243478.18442  21842035.655    21842034.429
  23073009.158   -15524562.80343 -11748201.71242  23073011.580    23073009.787
  23797729.161    -6526851.19443  -5072184.28942  23797730.435    23797730.311
  21078292.035   -21442468.31044 -16639493.33242  21078294.024    21078290.948
  24244958.102    -5493714.48743  -3704959.16542  24244959.864    24244962.153
  20228780.631   -30871747.10244 -23994591.17942  20228781.162    20228778.944
  22853708.653   -15753171.91643 -12256906.99642  22853710.116    22853706.656
 04  7 18  3  9 30.0000000  0 10G26G13G27G31G29G10G28G 7G 8G19
  23611330.111    -7612544.98243  -5570329.56242  23611332.567    23611331.376
  23532352.430   -12865562.28243  -9742498.61142  23532354.725    23532353.406
  20924188.734   -24647175.70044 -19137096.55942  20924190.628    20924188.700
  21823727.014   -20820452.36943 -15318440.88842  21823728.974    21823727.720
  23057053.350   -15608411.02143 -11813537.94342  23057055.736    23057053.953
  23808703.096    -6469183.03143  -5027248.11342  23808704.440    23808704.149
  21070293.654   -21484499.92244 -16672245.22642  21070295.643    21070292.595
  24224873.505    -5599259.88143  -3787202.20842  24224875.265    24224877.352
  20226744.156   -30882448.78244 -24002930.14842  20226744.697    20226742.462
  22863321.702   -15702655.19143 -12217543.31642  22863323.170    22863319.663
 04  7 18  3 10  0.0000000  0 10G26G13G27G31G29G10G28G 7G 8G19
  23593215.512    -7707737.76743  -5644505.72042  23593217.957    23593216.764
  23553293.832   -12755514.72143  -9656747.35342  23553296.195    23553294.876
  20929036.986   -24621698.18444 -19117243.95342  20929038.841    20929036.914
  21805485.525   -20916311.63543 -15393136.35142  21805487.509    21805486.254
  23041154.885   -15691958.01043 -11878639.46942  23041157.221    23041155.457
  23819747.900    -6411142.33543  -4982021.65942  23819749.304    23819748.856
  21062360.431   -21526189.33844 -16704730.47442  21062362.387    21062359.342
  24204797.358    -5704760.76143  -3869410.54342  24204799.020    24204801.096
  20224769.415   -30892826.17044 -24011016.41642  20224769.945    20224767.689
  22873030.489   -15651634.94043 -12177787.27642  22873031.977    22873028.510
 04  7 18  3 10 30.0000000  0 10G26G13G27G31G29G10G28G 7G 8G19
  23575153.070    -7802656.81343  -5718468.59342  23575155.467    23575154.282
  23574267.918   -12645295.76743  -9570862.53142  23574270.255    23574268.872
  20933939.820   -24595933.51344 -19097167.58842  20933941.718    20933939.786
  21787309.748   -21011825.87943 -15467562.97642  21787311.706    21787310.420
  23025314.033   -15775201.92443 -11943504.81942  23025316.395    23025314.671
  23830863.022    -6352732.50843  -4936507.57042  23830864.364    23830863.894
  21054492.112   -21567537.49444 -16736949.78642  21054494.072    21054490.997
  24184729.795    -5810215.57343  -3951583.00242  24184731.607    24184733.685
  20222856.342   -30902879.25144 -24018849.97942  20222856.879    20222854.631
  22882834.578   -15600113.97943 -12137641.07742  22882836.032    22882832.616
 04  7 18  3 11  0.0000000  0 10G26G13G27G31G29G10G28G 7G 8G19
  23557143.051    -7897300.02743  -5792216.52442  23557145.560    23557144.345
  23595273.991   -12534908.61943  -9484846.64042  23595276.414    23595274.915
  20938897.286   -24569881.81344 -19076867.56342  20938899.191    20938897.256
  21769200.049   -21106992.84843 -15541719.00042  21769202.014    21769200.622
  23009531.148   -15858141.28343 -12008132.85342  23009533.484    23009531.727
  23842047.625    -6293956.99843  -4890708.51542  23842048.866    23842048.647
  21046688.586   -21608545.10244 -16768903.73742  21046690.555    21046687.471
  24164671.328    -5915622.64843  -4033718.24742  24164673.063    24164675.227
  20221004.930   -30912608.37244 -24026431.10442  20221005.477    20221003.277
  22892733.552   -15548094.43043 -12097106.37142  22892735.050    22892731.603
 04  7 18  3 11 30.0000000  0 10G26G13G27G31G29G10G28G 7G 8G19
  23539186.966    -7991659.69743  -5865743.50042  23539189.505    23539188.191
  23616312.566   -12424350.64943  -9398697.65542  23616315.047    23616313.540
  20943910.440   -24543537.54344 -19056339.56942  20943912.324    20943910.389
  21751157.943   -21201804.44443 -15615598.11042  21751159.923    21751158.545
  22993807.739   -15940768.20543 -12072517.44042  22993810.081    22993808.322
  23853302.227    -6234813.83743  -4844622.99142  23853303.545    23853303.363
  21038950.872   -21649207.14344 -16800588.43542  21038952.817    21038949.723
  24144623.369    -6020974.61243  -4115810.56542  24144625.223    24144627.344
  20219216.412   -30922007.18244 -24033754.84342  20219216.945    20219214.760
  22902727.980   -15495573.17543 -12056180.71742  22902729.534    22902726.081
 04  7 18  3 12  0.0000000  0 10G26G13G27G31G29G10G28G 7G 8G19
  23521283.912    -8085740.49643  -5939053.17242  23521286.448    23521285.101
  23637381.881   -12313631.21543  -9312422.85242  23637384.324    23637382.819
  20948978.042   -24516907.16743 -19035588.62942  20948979.927    20948977.983
  21733182.671   -21296264.95143 -15689203.64342  21733184.632    21733183.299
  22978142.787   -16023087.62243 -12136662.40942  22978145.155    22978143.461
  23864624.882    -6175312.70643  -4798258.52842  23864626.305    23864626.146
  21031277.530   -21689530.85644 -16832009.49542  21031279.476    21031276.335
  24124585.027    -6126276.31843  -4197863.71942  24124586.856    24124589.010
  20217489.453   -30931082.59044 -24040826.57842  20217489.975    20217487.762
  22912816.195   -15442559.35343 -12014871.24942  22912817.744    22912814.327
 04  7 18  3 12 30.0000000  0 10G26G13G27G31G29G10G28G 7G 8G19
  23503435.710    -8179533.12943  -6012138.30742  23503438.246    23503436.868
  23658482.607   -12202746.16543  -9226019.01242  23658485.142    23658483.657
  20954101.423   -24489983.73444 -19014609.33642  20954103.296    20954101.345
  21715275.957   -21390364.98643 -15762528.29142  21715277.956    21715276.604
  22962538.065   -16105090.71143 -12200560.90242  22962540.422    22962538.671
  23876016.403    -6115449.97443  -4751612.30542  23876017.785    23876017.689
  21023669.687   -21729510.18744 -16863162.21442  21023671.634    21023668.524
  24104557.949    -6231518.92243  -4279870.83442  24104559.854    24104561.855
  20215825.380   -30939827.28644 -24047640.61542  20215825.924    20215823.666
  22922998.998   -15389048.16943 -11973174.23042  22923000.577    22922997.171
 04  7 18  3 13  0.0000000  0 10G26G13G27G31G29G10G28G 7G 8G19
  23485641.505    -8273041.91143  -6085002.25142  23485644.075    23485642.722
  23679613.094   -12091705.16643  -9139493.64442  23679615.590    23679614.193
  20959279.302   -24462773.74443 -18993406.75242  20959281.198    20959279.221
  21697437.163   -21484108.34643 -15835575.00842  21697439.121    21697437.795
  22946992.745   -16186781.92643 -12264216.36542  22946995.126    22946993.371
  23887475.041    -6055235.34243  -4704691.88042  23887476.311    23887476.174
  21016126.065   -21769152.11644 -16894052.00742  21016128.015    21016124.904
  24084541.182    -6336706.98343  -4361835.44342  24084543.155    24084545.108
  20214223.132   -30948247.05044 -24054201.45942  20214223.695    20214221.423
  22933274.860   -15335048.19643 -11931096.33842  22933276.423    22933273.044
 04  7 18  3 13 30.0000000  0 10G26G13G27G31G29G10G28G 7G 8G19
  23467902.709    -8366259.25543  -6157639.08542  23467905.337    23467904.032
  23700773.719   -11980505.74643  -9052844.84142  23700776.221    23700774.695
  20964512.780   -24435271.72044 -18971976.61142  20964514.656    20964512.683
  21679667.633   -21577487.55143 -15908337.96542  21679669.633    21679668.293
  22931508.160   -16268153.89243 -12327623.08142  22931510.533    22931508.756
  23899000.858    -5994667.19443  -4657495.97142  23899002.170    23899001.843
  21008647.547   -21808451.90944 -16924675.19642  21008649.522    21008646.390
  24064536.198    -6441833.38743  -4443752.01442  24064538.265    24064540.108
  20212683.758   -30956336.35544 -24060504.80342  20212684.322    20212682.105
  22943644.280   -15280556.67143 -11888635.41442  22943645.877    22943642.415
 04  7 18  3 14  0.0000000  0 10G26G13G27G31G29G10G28G 7G 8G19
  23450220.343    -8459180.45443  -6230045.17042  23450222.998    23450221.713
  23721964.458   -11869148.04043  -8966072.68842  23721966.937    23721965.423
  20969802.351   -24407475.07044 -18950316.89242  20969804.215    20969802.204
  21661968.436   -21670497.23943 -15980812.98442  21661970.445    21661969.117
  22916085.153   -16349202.16043 -12390777.54842  22916087.531    22916085.709
  23910593.814    -5933746.00843  -4610024.96842  23910595.120    23910594.802
  21001234.516   -21847407.65544 -16955030.30842  21001236.460    21001233.339
  24044543.820    -6546893.48843  -4525616.90842  24044545.838    24044547.679
  20211207.809   -30964092.47844 -24066548.52542  20211208.349    20211206.176
  22954107.319   -15225573.12343 -11845791.09542  22954108.902    22954105.429
 04  7 18  3 14 30.0000000  0 10G26G13G27G31G29G10G28G 7G 8G19
  23432593.936    -8551807.72043  -6302222.20642  23432596.628    23432595.343
  23743183.886   -11757639.33143  -8879182.88242  23743186.343    23743184.857
  20975147.134   -24379388.03743 -18928430.90042  20975149.020    20975146.990
  21644339.211   -21763139.53543 -16053001.73442  21644341.154    21644339.811
  22900723.364   -16429928.97643 -12453681.55242  22900725.693    22900723.876
  23922252.320    -5872479.69343  -4562285.04542  23922253.695    23922253.509
  20993886.043   -21886024.37544 -16985121.24642  20993887.966    20993884.811
  24024563.638    -6651889.87943  -4607432.16742  24024565.577    24024567.285
  20209794.489   -30971519.37344 -24072335.70642  20209795.032    20209792.846
  22964662.663   -15170104.42143 -11802568.74742  22964664.222    22964660.793
 04  7 18  3 15  0.0000000  0 10G26G13G27G31G29G10G28G 7G 8G19
  23415024.449    -8644135.77843  -6374166.11342  23415027.095    23415025.706
  23764432.115   -11645979.04843  -8792174.95542  23764434.620    23764433.121
  20980547.787   -24351007.33043 -18906316.07142  20980549.680    20980547.673
  21626780.911   -21855408.75143 -16124899.76942  21626782.886    21626781.527
  22885423.700   -16510329.29143 -12516331.12142  22885426.015    22885424.200
  23933976.717    -5810868.18643  -4514276.13942  23933978.032    23933977.918
  20986602.559   -21924299.21244 -17014945.76642  20986604.509    20986601.343
  24004596.485    -6756817.50843  -4689193.82842  24004598.351    24004600.192
  20208444.614   -30978612.97244 -24077863.17642  20208445.172    20208442.930
  22975310.500   -15114149.71443 -11758967.68042  22975312.022    22975308.610
 04  7 18  3 15 30.0000000  0 10G26G13G27G31G29G10G28G 7G 8G19
  23397512.331    -8736162.40943  -6445875.11942  23397514.876    23397513.563
  23785708.676   -11534170.31143  -8705051.36242  23785711.109    23785709.745
  20986004.343   -24322332.91443 -18883972.37742  20986006.216    20986004.231
  21609294.094   -21947302.39743 -16196505.14842  21609296.085    21609294.681
  22870186.566   -16590401.09643 -12578724.72242  22870188.856    22870187.010
  23945766.136    -5748914.80743  -4466000.82442  23945767.500    23945767.266
  20979383.901   -21962233.28644 -17044504.76642  20979385.893    20979382.720
  23984642.746    -6861674.39043  -4770900.34642  23984644.677    23984646.429
  20207158.096   -30985373.64844 -24083131.22842  20207158.663    20207156.374
  22986050.423   -15057711.26643 -11714989.68242  22986051.895    22986048.451
 04  7 18  3 16  0.0000000  0 10G26G13G27G31G29G10G28G 7G 8G19
  23380057.871    -8827885.86643  -6517347.89042  23380060.387    23380059.024
  23807012.941   -11422216.55043  -8617814.74642  23807015.268    23807013.954
  20991516.652   -24293365.42843 -18861400.32042  20991518.539    20991516.579
  21591879.098   -22038818.75443 -16267816.54942  21591881.094    21591879.635
  22855012.107   -16670143.16943 -12640861.38042  22855014.410    22855012.576
  23957619.781    -5686623.74443  -4417462.38242  23957621.210    23957620.765
  20972229.882   -21999827.75344 -17073799.12942  20972231.866    20972228.715
  23964702.808    -6966459.36543  -4852550.85342  23964704.652    23964706.419
  20205934.885   -30991801.65244 -24088140.05342  20205935.433    20205933.173
  22996881.819   -15000792.10343 -11670637.10042  22996883.268    22996879.756
 04  7 18  3 16 30.0000000  0 10G26G13G27G31G29G10G28G 7G 8G19
  23362661.585    -8919303.50543  -6588582.36742  23362664.104    23362662.817
  23828344.354   -11310119.84443  -8530466.76642  23828346.768    23828345.303
  20997084.864   -24264104.23443 -18838599.39842  20997086.745    20997084.823
  21574536.463   -22129954.75743 -16338831.56242  21574538.450    21574536.963
  22839900.940   -16749552.81743 -12702738.99942  22839903.219    22839901.450
  23969537.197    -5623997.62543  -4368662.86342  23969538.633    23969538.126
  20965140.502   -22037082.63044 -17102828.88042  20965142.471    20965139.327
  23944776.957    -7071169.87043  -4934143.32842  23944778.822    23944780.544
  20204775.202   -30997895.77844 -24092888.71142  20204775.728    20204773.488
  23007804.298   -14943394.16143 -11625911.44042  23007805.784    23007802.235
 04  7 18  3 17  0.0000000  0 10G26G13G27G31G29G10G28G 7G 8G19
  23345325.000    -9010408.27743  -6659573.06042  23345327.442    23345326.201
  23849703.283   -11197878.39143  -8443005.99742  23849705.632    23849704.310
  21002709.920   -24234544.48443 -18815565.83442  21002711.795    21002709.872
  21557267.536   -22220703.22243 -16409544.59842  21557269.552    21557268.026
  22824854.337   -16828623.25743 -12764352.31142  22824856.570    22824854.786
  23981518.563    -5561034.92643  -4319601.06942  23981520.009    23981519.644
  20958116.498   -22073993.86544 -17131590.86542  20958118.491    20958115.332
  23924866.529    -7175799.29343  -5015672.62742  23924868.416    23924870.006
  20203680.072   -31003650.73844 -24097373.09042  20203680.605    20203678.362
  23018818.299   -14885514.92743 -11580810.75742  23018819.827    23018816.308
 04  7 18  3 17 30.0000000  0 10G26G13G27G31G29G10G28G 7G 8G19
  23328046.950    -9101204.76943  -6730323.51842  23328049.473    23328048.227
  23871087.812   -11085501.85143  -8355439.94042  23871090.243    23871088.967
  21008390.530   -24204692.72543 -18792304.72842  21008392.412    21008390.493
  21540071.611   -22311068.37943 -16479958.95742  21540073.586    21540072.008
  22809871.374   -16907359.17943 -12825704.95542  22809873.633    22809871.853
  23993562.120    -5497745.95343  -4270285.05042  23993563.527    23993563.128
  20951156.540   -22110568.59944 -17160090.63442  20951158.518    20951155.394
  23904970.602    -7280352.47643  -5097142.50842  23904972.546    23904974.120
  20202648.227   -31009073.02244 -24101598.23742  20202648.756    20202646.542
  23029922.239   -14827163.63443 -11535342.23042  23029923.756    23029920.205
 04  7 18  3 18  0.0000000  0 10G26G13G27G31G29G10G28G 7G 8G19
  23310829.135    -9191684.65343  -6800827.25242  23310831.747    23310830.455
  23892498.784   -10972986.76543  -8267765.94242  23892501.156    23892500.023
  21014127.868   -24174542.92243 -18768811.38142  21014129.726    21014127.825
  21522950.195   -22401041.76443 -16550068.03542  21522952.158    21522950.590
  22794953.578   -16985752.73743 -12886790.81742  22794955.824    22794953.996
  24005668.248    -5434127.92943  -4220712.63042  24005669.637    24005669.376
  20944261.621   -22146801.49944 -17188324.05542  20944263.596    20944260.463
  23885090.858    -7384821.24843  -5178546.62442  23885092.687    23885094.370
  20201680.892   -31014156.34444 -24105559.25742  20201681.423    20201679.208
  23041116.749   -14768336.38643 -11489502.83542  23041118.254    23041114.672
 04  7 18  3 18 30.0000000  0 10G26G13G27G31G29G10G28G 7G 8G19
  23293671.628    -9281847.28843  -6871083.79642  23293674.351    23293673.080
  23913935.234   -10860337.91443  -8179987.70842  23913937.613    23913936.466
  21019921.620   -24144096.56944 -18745086.95042  21019923.511    21019921.584
  21505903.480   -22490622.59843 -16619871.23342  21505905.423    21505903.879
  22780101.002   -17063803.50343 -12947609.57142  22780103.292    22780101.412
  24017836.160    -5370185.82543  -4170887.67642  24017837.481    24017837.272
  20937431.281   -22182695.13544 -17216293.12342  20937433.251    20937430.106
  23865227.001    -7489205.46043  -5259884.83142  23865228.985    23865230.684
  20200777.869   -31018901.70244 -24109256.93142  20200778.413    20200776.186
  23052400.930   -14709037.46643 -11443295.89542  23052402.481    23052398.910
 04  7 18  3 19  0.0000000  0 10G26G13G27G31G29G10G28G 7G 8G19
  23276575.213    -9371689.54343  -6941090.69442  23276577.839    23276576.600
  23935396.833   -10747557.14743  -8092106.68142  23935399.122    23935398.034
  21025771.977   -24113352.68643 -18721130.68142  21025773.880    21025771.929
  21488932.134   -22579807.50543 -16689365.91542  21488934.114    21488932.511
  22765314.178   -17141508.55943 -13008158.93942  22765316.481    22765314.628
  24030065.191    -5305921.97243  -4120812.00142  24030066.536    24030066.400
  20930665.576   -22218249.06844 -17243997.46042  20930667.556    20930664.402
  23845379.883    -7593502.29743  -5341154.96542  23845381.810    23845383.630
  20199939.309   -31023308.32044 -24112690.65742  20199939.842    20199937.638
  23063774.584   -14649268.50743 -11396722.70042  23063776.122    23063772.612
 04  7 18  3 19 30.0000000  0 10G26G13G27G31G29G10G28G 7G 8G19
  23259540.189    -9461209.01643  -7010846.08742  23259542.779    23259541.591
  23956882.969   -10634647.07743  -8004124.89142  23956885.294    23956884.042
  21031678.962   -24082311.12643 -18696942.45442  21031680.868    21031678.963
  21472036.625   -22668593.86743 -16758550.04042  21472038.628    21472036.987
  22750593.599   -17218865.63743 -13068437.15742  22750595.908    22750593.998
  24042354.702    -5241339.64143  -4070488.16542  24042356.102    24042356.055
  20923964.437   -22253463.67444 -17271437.39542  20923966.447    20923963.273
  23825549.804    -7697709.55743  -5422355.29542  23825551.724    23825553.565
  20199165.313   -31027375.64544 -24115859.99842  20199165.858    20199163.649
  23075237.344   -14589031.42543 -11349784.73442  23075238.851    23075235.396
 04  7 18  3 20  0.0000000  0 10G26G13G27G31G29G10G28G 7G 8G19
  23242566.812    -9550404.37843  -7080348.91942  23242569.400    23242568.211
  23978393.031   -10521611.27243  -7916045.13442  23978395.418    23978394.119
  21037642.534   -24050972.39243 -18672522.65842  21037644.422    21037642.510
  21455217.262   -22756980.11143 -16827422.38642  21455219.245    21455217.597
  22735939.490   -17295873.61443 -13128443.34042  22735941.784    22735939.814
  24054704.165    -5176443.17543  -4019919.54042  24054705.463    24054705.456
  20917327.539   -22288340.65344 -17298614.24842  20917329.547    20917326.385
  23805736.999    -7801826.10243  -5503484.96242  23805738.914    23805740.681
  20198455.883   -31031103.64344 -24118764.92542  20198456.429    20198454.249
  23086788.522   -14528329.65243 -11302484.65842  23086790.075    23086786.603
 04  7 18  3 20 30.0000000  0 10G26G13G27G31G29G10G28G 7G 8G19
  23225656.328    -9639268.78243  -7149593.84742  23225658.978    23225657.776
  23999927.284   -10408447.95043  -7827866.02242  23999929.765    23999928.458
  21043663.505   -24019332.08143 -18647867.87042  21043665.381    21043663.435
  21438475.316   -22844959.24643 -16895977.50342  21438477.299    21438475.619
  22721353.038   -17372526.07243 -13188172.50542  22721355.335    22721353.330
  24067113.632    -5111231.06843  -3969104.98542  24067114.956    24067115.158
  20910755.698   -22322876.10544 -17325524.99142  20910757.684    20910754.492
  23785942.647    -7905845.46743  -5584538.88142  23785944.587    23785946.298
  20197811.911   -31034487.82044 -24121401.94442  20197812.454    20197810.238
  23098428.495   -14467161.03943 -11254820.82242  23098430.084    23098426.611
